ECMWFNIL_500_spd_000.txt.gz
Wind_Speed
22 22 22 22 22 23 24 25 26 26 27 27 27 27 28 28 29 29 29 28 28 28 28 28 28 28 29 29 30 31 31 32 31 31 32 32 32 32 33 34 35 36
23 23 22 22 22 23 24 25 26 26 26 27 27 27 27 28 29 29 30 30 30 31 30 30 30 30 30 30 31 31 32 33 33 33 33 33 33 34 34 35 36 37
25 25 24 24 23 24 25 26 27 27 27 27 28 28 29 29 30 30 31 32 33 34 34 34 34 33 33 33 33 33 33 34 34 35 36 36 36 36 37 37 37 38
27 27 27 27 26 26 27 28 28 28 28 29 29 29 30 30 31 31 32 33 33 34 35 36 36 36 36 36 36 36 36 36 36 36 37 38 39 40 40 40 41 41
29 30 30 29 29 29 29 30 30 30 30 30 30 30 31 31 32 33 33 34 34 35 36 36 37 38 38 38 39 39 39 39 39 39 39 39 40 41 42 43 44 44
29 30 31 31 31 31 31 31 32 32 31 31 31 32 32 33 34 35 36 36 37 37 37 38 38 39 40 40 41 41 41 41 42 42 41 41 41 42 43 44 45 46
27 28 29 30 31 32 33 33 33 32 32 32 32 32 32 33 34 35 36 37 38 38 39 39 40 41 41 42 43 43 44 44 44 43 44 44 43 43 43 44 45 46
26 27 28 29 30 31 31 31 31 31 31 31 31 31 31 32 33 34 35 36 37 38 39 40 41 42 43 44 45 46 46 47 47 46 46 46 46 46 46 46 45 46
29 29 29 30 30 30 30 29 29 29 29 29 29 30 31 32 33 34 35 36 37 39 40 41 42 43 45 46 47 48 48 49 49 50 49 49 48 48 48 49 48 48
32 32 32 32 32 32 31 30 29 29 29 30 30 31 32 33 34 35 36 37 38 39 40 42 43 44 45 47 48 49 50 51 51 52 52 52 51 51 51 51 51 51
35 35 36 35 35 35 33 31 30 30 31 32 33 33 34 34 35 36 36 37 37 39 40 41 42 44 45 46 48 49 50 51 52 53 53 54 54 54 53 53 53 53
38 38 38 38 37 37 35 33 32 33 34 34 34 34 35 35 35 35 36 37 37 38 39 40 41 42 43 44 45 47 49 50 51 53 53 54 54 55 55 55 55 55
39 39 40 40 39 38 37 35 34 35 35 35 35 35 35 35 35 36 36 37 37 37 38 38 39 40 41 42 43 45 46 48 49 51 52 53 54 54 55 56 56 56
39 39 42 42 40 40 39 37 37 37 36 36 35 35 35 35 35 36 36 37 37 37 38 38 39 40 41 42 43 44 46 47 48 49 51 52 53 54 55 55 56 56
39 38 41 42 42 42 42 40 39 38 37 37 36 35 35 35 35 36 36 37 37 38 38 38 38 38 39 41 42 44 46 47 48 50 50 51 52 53 54 55 56 56
44 41 40 40 42 44 44 43 41 40 38 37 36 36 36 35 35 36 37 37 38 38 38 37 37 38 39 41 43 44 46 47 49 50 52 52 53 53 54 55 56 57
44 42 41 43 45 45 44 44 43 41 40 39 38 37 37 37 36 36 37 38 38 39 39 38 39 40 42 43 45 46 47 48 50 51 53 54 54 54 55 55 56 57
42 41 44 48 50 50 47 45 43 42 41 41 40 39 39 38 38 37 38 39 40 41 41 41 42 44 46 48 49 50 51 52 53 53 54 55 56 57 57 57 57 58
48 48 47 48 53 55 53 47 44 44 44 43 42 41 41 40 39 38 39 40 42 42 42 43 45 47 50 51 52 53 54 56 57 57 56 56 57 57 58 59 59 59
54 53 51 49 51 52 52 50 46 46 45 44 43 43 42 41 40 40 41 42 43 42 43 45 48 50 52 53 54 55 56 59 61 61 59 57 57 58 59 59 60 61
58 56 54 52 50 48 47 45 45 45 45 45 44 43 42 42 41 41 42 43 43 44 45 47 49 52 54 55 56 57 59 61 63 63 61 59 59 59 59 60 60 61
56 55 53 52 52 51 47 44 43 44 45 44 44 43 43 42 42 42 43 44 45 46 47 48 51 53 55 57 58 60 62 63 63 62 60 59 59 60 61 61 61 62
49 49 50 52 53 53 53 51 47 44 44 44 44 43 43 43 43 43 44 45 46 47 48 49 52 54 57 58 60 62 63 63 62 60 59 59 59 60 60 60 61 61
51 50 51 52 52 51 51 51 48 44 43 43 43 43 43 43 43 43 44 46 47 47 49 50 53 55 58 60 62 63 63 62 60 59 59 58 57 56 56 56 56 57
52 52 53 54 52 50 49 47 44 42 42 43 43 43 43 43 43 44 45 45 46 48 50 52 54 57 60 62 62 62 61 60 59 58 56 54 53 52 52 53 53 54
45 47 52 55 55 53 49 43 40 40 42 43 44 44 44 44 44 44 44 45 47 50 52 54 57 59 61 62 61 60 60 58 57 55 53 52 52 53 53 53 54 55

ECMWFNIL_500_spd_003.txt.gz
Wind_Speed
22 22 22 22 22 23 24 25 25 24 24 23 24 23 23 22 22 22 22 22 22 21 21 21 21 22 23 24 25 27 28 29 29 29 29 28 28 29 29 30 30 30
24 24 23 23 23 23 24 24 24 24 23 23 23 23 23 23 22 22 22 22 21 21 21 21 22 22 23 24 25 26 27 29 30 31 31 31 30 29 30 30 31 31
27 26 25 25 25 24 24 24 24 24 23 23 23 23 23 23 23 23 23 23 23 23 23 23 23 24 25 25 26 27 28 29 30 31 32 33 33 33 32 32 32 32
30 29 28 27 27 26 25 25 25 25 24 24 24 25 25 25 25 25 25 25 25 25 25 25 25 26 26 27 27 28 29 30 31 32 33 34 35 36 36 36 36 36
29 30 30 30 30 28 28 27 27 27 26 27 27 27 28 28 28 28 27 27 27 27 27 27 27 28 28 28 29 29 30 31 32 33 34 35 36 37 38 39 40 41
25 27 28 29 30 31 31 31 30 29 29 29 29 30 30 31 31 31 30 30 29 29 29 29 30 30 30 31 31 32 32 32 33 34 35 36 36 37 38 40 41 43
23 24 25 27 28 29 30 31 32 32 32 32 32 32 33 33 33 33 33 33 32 32 31 31 31 31 32 32 33 33 34 34 35 36 37 37 38 38 39 40 41 42
26 26 26 27 28 29 30 30 31 31 32 33 33 34 34 34 34 34 35 35 35 34 33 32 32 32 33 33 34 34 35 36 36 37 38 39 40 41 41 42 42 43
32 30 29 29 30 31 32 32 31 30 30 31 33 34 34 35 35 35 35 35 35 35 34 34 33 33 34 35 35 36 37 37 38 39 40 40 41 42 43 44 45 45
36 34 32 31 31 33 35 35 34 33 32 32 32 32 33 33 33 33 34 34 34 34 34 34 35 35 35 36 36 37 37 38 39 39 40 41 42 43 44 45 46 47
38 37 36 35 34 35 36 37 37 36 35 34 33 33 34 34 33 32 32 32 33 34 34 34 35 35 36 36 36 36 36 37 37 38 39 39 40 41 42 43 44 45
39 39 40 41 40 38 37 39 39 38 36 35 35 36 36 36 35 33 32 33 33 34 34 34 34 34 35 35 35 34 34 35 35 36 36 37 38 39 40 41 42 43
41 42 43 45 45 42 40 41 41 41 40 38 37 38 39 38 37 35 34 34 34 34 33 33 33 33 33 33 32 32 32 32 33 34 35 36 37 38 39 40 41 42
44 46 47 47 48 46 43 42 42 43 44 43 41 40 41 40 40 39 37 37 36 35 34 33 33 32 32 32 31 31 31 32 33 34 35 36 37 38 39 40 41 42
44 45 47 49 49 49 48 46 46 46 46 44 42 41 41 41 42 42 42 40 39 37 36 35 34 33 32 32 32 31 32 33 34 36 37 38 39 39 40 41 42 43
48 48 48 50 51 51 51 50 48 47 45 43 41 40 40 42 43 44 45 44 42 40 39 38 36 35 35 35 34 33 33 34 36 38 40 40 41 42 43 44 45 46
51 50 49 52 54 52 51 49 47 46 44 44 44 43 42 42 43 44 46 47 46 44 42 40 39 38 38 38 37 36 36 37 38 40 41 42 43 44 45 46 47 49
52 51 49 50 52 52 51 49 46 46 45 47 49 48 45 44 43 45 47 48 48 47 45 43 42 41 41 40 40 40 39 39 40 41 42 43 45 46 47 47 49 50
53 53 51 49 47 46 46 45 44 45 45 46 48 47 45 44 44 46 48 49 49 49 47 45 44 44 44 44 44 43 42 42 42 42 43 45 46 47 48 49 50 52
56 55 55 53 51 50 51 50 49 49 49 49 50 50 48 47 45 46 47 48 49 50 49 47 46 46 46 47 46 45 45 44 44 45 45 46 47 49 50 52 53 55
59 58 57 56 55 57 60 62 60 57 55 54 54 54 53 52 50 47 44 44 48 50 50 49 48 48 48 49 48 48 47 47 47 48 47 48 49 51 52 54 56 57
62 61 59 58 55 55 56 57 57 57 56 55 56 57 54 53 52 48 43 42 45 50 50 50 50 49 49 50 50 49 49 50 50 50 49 50 51 53 55 56 58 60
63 62 61 59 56 54 55 55 54 54 52 50 52 53 50 49 49 48 46 46 48 50 50 50 50 49 50 50 51 51 52 52 52 51 51 52 53 55 57 59 60 62
62 62 61 58 53 53 57 58 58 54 46 40 40 42 41 42 44 45 46 47 47 48 49 49 49 49 50 51 52 53 54 54 53 53 53 54 55 58 60 61 62 65
60 59 58 55 51 53 55 55 54 50 43 39 41 43 43 42 41 41 43 43 44 46 47 47 48 49 50 52 53 55 55 54 54 54 54 56 58 59 61 63 65 68
59 56 53 49 48 51 53 52 51 48 45 46 47 47 47 47 44 43 43 42 41 42 43 45 48 49 51 53 54 54 54 54 55 56 57 59 60 61 63 65 68 69

ECMWFNIL_500_spd_006.txt.gz
Wind_Speed
24 25 25 25 25 25 25 24 24 24 24 24 23 23 22 21 21 21 20 19 19 20 20 21 22 22 22 23 23 23 23 23 23 23 23 24 24 25 25 26 27 27
25 26 27 26 26 26 26 25 25 25 26 26 25 24 22 21 20 20 20 20 20 20 20 21 22 22 23 23 23 23 23 24 24 23 24 24 24 25 26 26 27 27
24 26 27 28 28 28 27 27 26 26 27 27 27 26 24 23 21 21 20 20 20 21 21 21 21 22 22 23 23 24 24 24 25 25 25 25 25 26 26 27 27 28
22 23 25 27 29 29 29 29 27 27 28 28 29 29 27 25 24 23 22 21 21 21 22 22 22 22 23 23 24 24 24 25 25 26 27 27 27 27 28 28 29 29
23 23 23 24 25 27 29 30 30 29 29 29 30 30 30 29 27 26 25 24 24 24 24 24 24 24 25 25 25 26 26 26 27 28 28 29 29 30 30 31 31 32
25 26 26 25 24 24 25 27 28 29 30 31 32 32 32 31 30 29 28 27 27 27 27 27 27 27 27 28 28 28 28 28 29 30 30 31 31 32 32 33 34 35
27 27 27 27 26 25 24 24 25 26 27 29 31 32 33 33 33 32 31 30 30 30 30 29 29 29 30 30 30 30 30 31 31 32 32 33 33 34 34 35 36 37
29 30 29 28 28 27 26 26 26 26 26 26 28 29 31 32 33 34 34 33 33 33 32 32 32 32 32 32 32 33 33 33 34 34 34 35 36 36 37 37 38 38
29 31 31 30 29 30 30 31 30 30 29 28 28 28 29 29 30 32 33 34 34 34 34 34 34 34 34 34 34 34 35 35 35 36 36 37 37 38 39 39 40 40
30 32 33 32 31 30 32 34 34 34 33 31 29 28 29 30 30 30 31 32 32 32 33 34 35 35 35 35 35 34 35 35 35 36 36 37 38 38 39 40 40 41
33 34 35 35 34 33 32 34 35 35 35 33 31 29 29 30 31 31 31 31 31 31 32 33 34 35 35 35 35 34 33 33 34 35 36 37 37 37 37 37 37 38
36 36 36 37 37 36 36 37 37 37 37 37 36 35 34 32 32 33 32 32 32 33 33 34 34 35 36 35 35 35 33 33 33 34 35 36 36 35 35 33 32 32
39 38 38 38 38 38 39 40 43 44 42 41 41 41 40 38 36 36 35 34 34 35 36 35 35 36 37 37 36 35 34 34 34 34 34 33 33 32 31 29 28 27
43 41 40 40 40 40 40 41 45 47 47 46 44 43 43 42 41 38 37 37 37 38 39 38 37 36 37 37 37 37 36 36 35 35 34 33 32 31 30 29 28 28
48 46 44 43 42 43 42 42 45 49 49 47 44 43 44 46 44 42 42 42 42 41 42 41 39 38 38 38 38 38 38 38 38 37 36 34 33 33 32 31 31 31
52 50 49 47 45 44 45 46 48 50 51 51 50 48 48 49 48 47 47 47 44 43 42 41 39 39 40 40 41 40 40 40 40 39 39 37 36 35 35 34 34 34
54 53 53 51 49 48 49 50 51 52 52 53 52 50 49 50 49 50 50 47 45 43 41 40 39 39 40 42 43 43 43 42 42 42 42 41 40 39 38 38 37 37
57 57 56 55 54 54 53 53 53 53 54 54 51 49 49 50 50 51 52 49 46 44 42 42 42 42 43 43 43 44 45 44 43 43 44 44 44 43 42 41 40 39
62 61 60 59 58 58 57 56 55 55 56 57 56 54 53 52 50 49 49 48 46 44 43 44 45 44 44 44 43 43 45 47 46 45 45 47 47 47 46 44 42 41
63 62 61 60 59 58 58 57 56 56 55 54 54 55 55 55 54 50 45 43 43 45 47 48 47 46 45 45 45 45 46 48 48 46 46 48 49 49 49 47 45 44
63 62 61 59 58 58 59 59 58 58 56 52 49 49 48 49 53 53 50 49 50 52 51 51 50 50 50 50 50 49 46 45 46 45 46 48 49 51 51 49 47 46
62 62 61 60 60 59 60 60 60 60 59 57 54 52 50 48 49 50 51 52 54 52 50 51 53 53 54 54 54 52 48 44 43 44 45 47 49 51 51 50 49 48
61 61 62 62 62 61 61 61 62 61 60 59 59 58 57 54 53 53 53 53 53 50 48 51 53 55 55 54 54 53 51 49 47 46 47 47 48 49 50 50 50 49
59 59 60 61 62 63 62 62 62 62 61 60 59 57 56 55 55 57 58 58 57 52 46 45 46 47 49 50 51 52 52 52 52 50 49 47 48 49 50 50 50 51
58 58 58 59 60 61 62 62 61 61 61 58 56 55 54 53 53 54 55 57 57 51 43 41 41 42 42 44 47 49 50 51 52 51 48 47 47 49 50 50 51 54
57 57 56 57 58 58 59 60 60 61 60 56 51 49 48 48 49 49 49 50 48 43 40 42 44 45 45 44 44 45 47 48 49 48 46 45 46 47 49 51 54 58

ECMWFNIL_500_spd_009.txt.gz
Wind_Speed
21 21 20 20 19 19 19 19 20 20 21 21 22 22 22 21 21 21 21 21 21 21 22 22 22 22 21 21 21 21 21 21 21 21 22 22 23 23 23 24 24 25
22 22 22 22 21 21 21 20 21 21 21 21 22 22 21 21 20 20 21 21 21 21 21 22 22 22 21 21 21 21 21 20 20 21 21 22 22 23 23 23 23 24
22 23 23 23 23 23 23 22 22 22 22 22 22 22 22 21 20 19 20 20 21 21 21 22 22 22 22 22 22 22 21 21 21 21 21 21 22 23 23 24 24 24
22 22 23 23 22 22 22 23 23 23 23 23 23 24 23 22 21 20 20 20 20 21 21 21 22 22 23 23 23 23 23 23 22 22 22 22 23 23 24 24 25 26
22 23 22 21 20 20 21 21 22 21 21 21 22 23 24 24 23 23 22 21 20 21 21 22 22 22 23 24 24 24 24 24 24 25 25 25 25 25 25 26 27 27
22 23 23 21 20 20 20 21 21 21 21 20 19 20 21 22 23 23 24 23 22 22 22 23 23 23 23 24 25 25 26 26 27 27 27 27 27 27 28 28 28 29
22 23 24 23 22 22 21 21 21 21 22 20 18 17 17 17 19 21 23 23 24 24 24 24 24 25 25 25 26 26 27 28 29 29 29 30 30 30 30 30 31 31
24 25 26 25 25 25 24 23 23 22 22 22 21 19 18 17 18 19 21 22 22 23 23 24 25 25 26 26 27 27 28 29 30 31 32 32 33 33 33 33 33 34
27 27 27 27 27 27 26 26 25 24 23 23 23 23 23 22 21 20 20 21 22 23 23 23 24 25 26 26 27 28 29 30 31 32 33 34 35 35 36 36 36 36
30 30 30 29 29 29 28 28 28 27 26 24 24 23 23 24 24 22 21 22 23 24 24 25 26 26 26 27 28 28 29 29 30 31 33 34 35 35 36 37 37 37
33 34 33 32 32 32 31 30 30 29 28 28 27 25 24 25 26 26 26 26 26 26 26 27 28 29 30 29 30 30 29 30 30 32 33 34 34 35 36 36 37 38
38 38 37 37 36 36 35 34 33 31 30 30 30 29 29 30 30 29 29 30 31 30 30 29 29 30 31 31 32 32 32 32 32 33 34 34 34 35 35 35 36 37
40 40 40 40 39 38 38 37 36 35 33 33 33 33 35 36 35 32 31 31 33 35 35 34 33 33 34 33 33 34 35 35 35 35 36 36 36 35 35 35 35 36
42 41 41 41 40 40 40 40 40 38 37 36 36 37 38 39 38 38 37 35 35 36 36 34 34 35 38 37 36 35 37 38 39 38 38 38 37 37 36 36 36 36
44 43 42 42 42 41 42 42 43 42 41 40 40 40 41 42 41 41 42 40 39 39 39 39 39 39 39 40 40 40 40 41 41 40 39 39 39 38 38 38 37 37
48 47 47 46 45 45 45 45 46 46 46 45 44 44 44 44 43 43 44 43 43 42 41 41 42 41 40 40 42 43 42 42 43 43 41 40 40 40 40 40 40 39
52 52 52 52 51 50 49 49 49 49 49 49 49 48 47 46 46 46 48 48 47 45 44 42 41 41 41 40 40 42 43 44 45 44 43 41 40 40 40 41 42 42
56 56 56 55 55 54 53 52 52 52 52 52 52 52 52 51 50 50 51 49 47 46 47 48 48 46 45 44 44 43 43 44 45 45 44 43 42 41 41 41 42 43
60 59 59 58 57 56 55 55 55 55 55 55 55 56 56 56 54 54 54 52 50 49 49 50 52 53 52 51 49 45 43 45 45 44 45 46 46 46 45 43 42 42
60 60 59 59 58 58 57 58 58 58 58 58 58 58 58 58 57 57 56 56 55 54 51 49 49 50 51 52 51 48 45 43 43 44 47 49 50 50 49 48 46 44
60 60 60 59 60 60 60 60 60 60 60 59 59 59 59 58 58 57 57 57 56 54 53 52 49 46 46 47 47 47 46 45 47 49 51 50 51 51 50 50 50 49
60 60 60 60 60 60 60 61 61 60 60 60 60 60 59 58 58 57 57 57 57 55 53 53 53 52 52 51 48 47 46 47 48 50 50 50 51 52 52 51 52 52
59 59 59 60 60 60 60 60 60 60 60 60 61 60 60 60 59 59 59 59 57 56 54 53 54 56 57 57 56 53 50 49 49 50 51 51 52 53 54 54 54 54
58 58 59 59 59 59 59 59 59 58 58 59 59 59 59 59 59 59 60 59 57 56 55 54 54 54 55 56 56 54 52 50 50 51 52 52 51 52 53 55 55 55
58 58 58 58 58 58 58 58 56 55 55 55 55 54 54 55 55 55 56 56 56 55 55 54 54 54 53 53 53 52 51 50 49 49 50 51 50 50 50 51 52 53
58 58 57 57 57 57 57 56 54 54 53 53 52 51 50 51 53 54 54 54 55 54 53 52 51 52 52 52 51 50 48 46 45 46 47 48 48 48 48 47 48 49

ECMWFNIL_500_spd_012.txt.gz
Wind_Speed
20 20 20 20 19 18 18 18 19 20 19 19 18 17 17 16 16 16 16 16 16 16 17 18 19 20 21 20 20 19 19 20 20 21 22 22 23 23 23 22 22 23
18 18 19 19 18 17 17 17 17 18 18 18 18 17 17 17 16 16 16 15 15 15 15 16 17 19 20 20 20 19 19 19 20 20 20 21 21 22 22 22 21 21
17 17 17 18 18 18 18 17 17 17 17 17 17 17 17 17 16 16 16 16 15 15 15 15 15 17 18 19 20 19 19 20 20 20 20 20 21 21 21 22 21 21
19 18 17 17 17 17 18 18 19 18 18 17 17 17 17 17 17 17 17 17 16 16 15 15 15 16 17 18 19 19 20 20 20 20 20 20 21 21 21 22 22 22
20 19 19 18 18 18 18 19 18 18 18 17 16 16 16 15 16 16 17 17 18 18 17 17 16 16 17 18 19 20 20 20 20 20 21 21 21 22 22 23 23 23
20 20 21 21 21 21 20 20 19 18 18 16 15 15 15 15 14 14 14 15 16 18 19 19 19 19 19 19 19 20 21 21 21 21 21 22 22 23 23 24 24 25
22 22 23 24 24 23 22 21 20 20 19 17 15 15 15 15 14 13 13 14 14 15 17 19 20 21 21 21 21 22 22 22 22 22 22 23 24 24 25 25 26 26
25 25 25 25 26 25 24 23 22 21 20 19 18 16 15 15 16 16 16 17 17 16 16 17 18 20 21 22 23 23 24 24 25 25 25 25 25 26 26 27 27 27
28 27 26 27 28 29 28 27 26 25 23 22 21 19 17 16 16 17 18 18 19 19 18 17 18 18 19 20 21 22 23 24 25 26 27 28 29 29 29 29 29 29
29 28 28 29 30 31 31 30 30 29 27 25 24 23 22 20 18 18 18 18 19 20 20 20 20 20 20 20 21 22 22 23 24 25 27 28 30 31 32 32 32 32
29 30 30 30 31 32 34 34 33 32 31 30 29 27 26 24 23 22 22 21 21 21 22 23 23 22 21 22 23 24 24 24 25 26 27 28 29 30 32 33 34 34
33 33 33 33 33 33 35 37 37 36 34 34 34 32 30 29 28 28 28 28 26 24 24 24 24 23 23 24 26 27 28 28 28 28 29 29 29 29 30 32 34 35
36 36 36 36 35 35 37 40 41 39 38 37 37 37 35 34 34 33 33 33 33 31 29 27 26 26 27 28 29 29 30 31 31 31 32 32 32 31 31 32 34 35
40 40 40 40 39 38 40 41 43 42 42 41 40 40 39 37 37 37 37 37 37 36 35 32 31 31 32 32 33 31 31 31 32 33 35 35 36 35 35 34 34 35
42 42 42 42 42 42 42 43 44 44 43 43 43 43 42 40 39 38 39 39 40 40 39 37 36 36 36 36 36 36 35 35 36 37 38 38 39 39 39 39 38 38
41 42 43 44 44 43 43 44 45 45 44 44 44 44 43 42 41 41 41 42 43 43 42 41 40 40 39 40 40 40 41 40 39 39 38 37 37 38 39 40 41 40
44 44 45 46 46 45 44 44 45 46 46 46 46 46 46 45 45 45 45 45 45 45 44 44 43 42 42 42 43 44 44 43 41 39 38 38 38 38 39 40 41 42
52 50 50 51 51 50 50 48 48 48 48 49 49 50 51 51 51 50 50 49 48 47 47 47 47 47 46 45 45 45 46 46 44 43 43 44 44 44 45 46 45 44
55 55 55 55 55 56 56 55 53 52 52 52 53 54 55 55 55 55 54 52 51 50 50 50 51 51 50 48 47 47 47 48 47 47 47 48 48 49 50 50 48 46
57 57 57 57 58 58 58 58 58 57 56 56 56 57 57 57 58 57 56 55 53 53 53 52 53 53 53 52 51 49 48 47 47 47 47 48 49 49 48 48 48 48
59 59 58 58 58 58 58 59 59 58 58 58 57 57 57 57 57 57 57 56 56 55 55 55 54 54 54 53 53 52 51 49 48 47 47 48 49 48 45 43 44 47
59 59 59 59 59 58 58 58 58 57 57 57 57 57 57 57 57 57 57 58 57 58 57 57 56 56 55 55 54 54 54 53 51 50 49 49 50 50 49 48 47 48
58 58 58 58 58 58 58 58 58 57 57 57 57 57 57 58 58 58 58 58 58 58 58 58 58 57 56 56 56 56 56 56 55 53 52 51 51 52 53 54 54 53
55 55 56 56 56 56 57 57 57 57 57 57 57 57 57 58 58 58 58 58 57 57 57 57 57 56 57 58 59 58 57 55 54 54 53 53 53 53 54 54 55 55
53 53 53 54 54 54 54 55 55 55 55 55 55 56 56 56 56 57 57 57 57 57 56 55 54 54 55 56 54 51 50 50 51 51 52 53 53 53 53 53 53 53
52 52 52 52 53 53 53 53 54 54 54 54 54 54 54 55 55 55 55 56 56 55 54 52 50 49 50 48 47 47 48 49 50 50 51 51 51 51 52 52 52 52

ECMWFNIL_500_spd_015.txt.gz
Wind_Speed
19 19 20 20 20 19 19 18 18 19 19 19 18 18 17 17 18 17 17 17 16 16 17 18 19 19 20 20 20 20 20 20 20 20 20 20 19 19 19 19 19 20
19 19 20 20 20 20 19 20 20 20 20 20 20 19 19 19 19 19 18 18 17 17 17 17 18 19 19 20 20 20 19 19 19 19 19 20 19 19 18 18 18 18
21 21 21 20 20 20 20 20 20 20 20 19 19 19 19 19 19 20 19 19 19 18 18 18 18 18 19 19 19 19 19 18 18 18 18 19 19 19 19 18 18 17
23 23 22 21 21 21 21 21 21 21 20 20 19 19 19 18 18 18 19 19 19 19 19 19 18 19 19 19 19 19 19 18 18 18 18 18 18 19 19 18 18 18
25 24 23 22 22 21 22 23 22 23 22 21 20 19 18 18 18 17 17 18 18 19 19 19 19 19 19 20 20 20 19 19 18 18 18 18 19 19 19 19 18 18
25 25 24 24 23 23 23 23 23 24 23 22 20 18 17 17 16 16 16 16 15 16 16 17 17 18 19 20 20 21 21 20 20 19 19 19 19 19 19 19 19 19
26 26 25 25 24 24 24 25 25 24 24 23 21 19 17 16 16 16 16 15 14 14 14 14 14 15 17 18 19 20 21 21 22 22 22 21 21 20 20 20 20 21
26 26 25 25 25 25 25 27 27 26 25 25 24 22 19 17 16 15 16 16 16 17 16 15 15 16 16 16 17 18 19 20 21 22 23 23 23 23 22 22 22 22
28 28 28 26 26 27 27 27 27 26 26 26 27 26 23 20 18 17 17 17 18 18 19 19 19 19 18 18 18 18 18 19 20 21 22 23 23 23 23 24 24 24
31 30 29 29 29 29 29 29 29 29 28 27 27 27 25 24 22 20 19 19 19 19 19 19 20 21 21 21 21 20 20 20 20 20 21 22 22 23 23 23 24 25
32 30 29 31 33 33 32 31 30 29 29 29 30 30 29 28 26 25 24 22 22 22 21 21 20 21 22 22 23 24 24 24 23 23 23 23 23 23 23 23 24 24
34 33 33 34 35 34 32 31 30 29 30 30 32 33 32 31 29 28 28 27 26 26 26 25 24 23 23 23 24 25 26 26 26 25 25 26 26 27 27 27 27 26
37 40 39 35 34 33 32 32 33 33 33 34 36 36 35 33 32 31 31 31 31 30 30 30 30 29 28 27 27 26 28 29 28 28 27 27 28 29 29 30 29 29
41 45 43 37 35 35 35 36 37 37 38 37 35 33 33 34 34 34 34 35 35 35 35 34 34 34 33 33 32 31 31 32 32 31 30 30 29 29 30 31 32 33
42 44 43 41 40 39 37 38 39 39 40 40 36 34 35 36 36 37 37 38 39 40 40 39 37 37 37 36 36 36 37 37 36 35 35 35 33 32 33 34 35 37
46 45 44 42 41 40 39 38 39 40 42 44 45 45 42 40 39 39 40 41 42 43 43 42 42 41 38 36 37 37 39 40 39 38 38 38 38 37 37 38 38 38
49 49 48 46 44 42 41 40 40 42 43 44 46 46 43 41 41 41 41 43 45 45 45 45 45 43 40 39 39 39 39 39 40 40 41 41 42 41 41 41 40 40
49 50 50 50 49 48 47 46 45 45 46 46 45 45 44 43 42 42 42 44 46 46 46 47 47 46 44 45 45 45 44 43 44 44 43 44 44 44 45 45 44 44
52 52 52 52 52 52 52 52 52 52 51 50 49 49 48 47 47 47 47 48 48 48 49 49 48 47 49 50 49 50 50 50 50 49 47 47 47 46 46 47 48 48
55 55 55 55 54 54 54 54 54 54 54 53 53 53 53 52 53 53 53 53 53 52 53 52 50 50 52 53 53 53 53 53 54 53 51 50 49 48 48 48 48 49
56 56 57 57 57 57 57 56 56 56 56 55 55 55 55 55 56 56 56 57 57 57 58 57 53 53 55 55 55 55 55 55 55 54 52 52 52 51 50 49 49 49
54 55 56 57 57 58 58 58 58 57 57 57 56 56 56 56 56 57 58 58 58 59 60 58 56 56 57 57 57 57 56 56 55 54 54 54 53 53 52 52 52 52
52 53 54 54 55 55 56 56 57 57 57 57 56 56 56 56 56 56 58 59 58 59 59 58 57 58 58 58 58 57 56 56 55 55 54 55 55 54 54 53 53 54
52 53 53 54 54 54 54 54 55 55 56 56 56 56 56 56 55 55 56 58 58 57 56 56 56 57 57 57 56 55 55 54 54 54 54 55 55 54 54 54 55 55
52 52 53 53 54 54 55 55 55 55 55 55 55 55 55 56 55 54 54 55 55 55 54 54 55 55 55 55 54 53 53 53 53 53 54 55 55 54 54 54 53 51
51 51 51 52 52 53 53 54 54 54 54 54 55 55 55 55 55 55 54 53 54 54 53 53 53 54 53 53 53 52 52 52 52 52 53 54 54 53 52 50 49 49

ECMWFNIL_500_spd_018.txt.gz
Wind_Speed
17 15 13 13 16 17 18 20 20 20 20 19 19 19 19 19 19 19 18 18 18 18 19 19 19 19 19 19 19 19 19 20 20 19 19 18 18 17 17 18 19 20
18 16 14 15 17 18 19 20 21 21 20 20 20 19 19 18 18 18 18 18 18 18 18 18 19 19 19 19 19 19 19 19 19 19 19 18 17 17 17 17 18 18
19 17 16 17 19 19 20 21 21 22 21 21 21 20 19 18 18 18 18 18 18 18 19 19 19 18 18 18 18 19 19 18 18 18 18 18 17 17 17 17 17 17
20 19 18 19 20 21 22 23 23 23 22 21 21 20 20 19 19 18 18 18 18 19 19 19 19 19 19 19 18 18 18 18 17 17 17 17 16 16 16 16 17 17
22 21 21 21 22 22 23 24 23 22 22 21 20 20 21 21 21 20 19 19 19 19 19 20 20 20 20 20 20 19 18 18 17 17 16 16 15 16 15 16 16 16
23 23 23 23 23 23 24 24 23 22 22 21 20 21 21 21 22 21 20 19 19 19 19 19 20 20 20 20 20 20 20 20 19 19 18 17 16 16 15 16 16 16
24 25 26 26 26 25 24 24 24 23 22 21 21 21 21 20 20 21 20 19 19 19 18 18 18 18 18 18 18 18 19 20 21 21 20 19 18 18 17 17 17 17
27 29 28 28 28 28 26 25 25 24 23 23 23 23 22 21 20 19 20 19 19 18 18 18 17 17 17 17 16 16 17 17 18 19 20 20 20 20 19 19 18 18
31 33 32 30 31 30 28 26 26 25 25 25 25 24 24 24 23 22 20 19 19 19 19 19 19 19 18 18 17 17 17 17 16 17 18 18 19 19 19 20 19 19
36 36 35 33 32 32 32 30 28 25 25 26 26 27 27 26 26 26 24 22 21 20 20 20 20 20 20 20 19 19 19 19 19 19 18 18 19 19 19 19 19 19
41 39 37 35 34 36 36 33 30 27 26 27 28 29 30 29 27 27 26 25 23 23 22 21 22 22 22 21 20 20 20 21 21 21 21 20 20 20 20 20 20 20
37 37 37 37 37 39 39 35 32 30 29 29 31 31 32 31 29 29 29 27 26 26 25 25 25 25 25 24 23 22 21 22 23 23 24 24 23 23 23 23 24 24
36 36 36 36 36 35 36 35 34 34 33 33 33 33 33 32 31 33 32 28 27 27 28 28 28 29 29 27 26 25 24 24 26 26 26 27 27 27 27 27 28 28
40 40 39 38 36 34 35 35 36 37 39 38 36 35 34 34 34 35 33 30 29 30 31 31 31 32 32 31 28 28 27 27 28 29 30 29 30 31 31 31 31 31
43 42 41 41 40 39 39 40 39 40 41 40 38 37 37 37 37 37 35 33 31 31 32 32 30 30 31 30 28 29 30 30 31 32 32 32 32 33 34 34 35 35
46 44 43 42 43 43 42 42 43 43 41 39 39 39 41 42 43 41 38 35 32 31 32 31 30 30 31 31 29 30 31 33 35 36 36 35 35 35 35 35 36 36
50 48 46 44 43 44 45 45 46 46 45 42 40 41 43 45 46 45 42 38 37 37 38 38 38 38 37 36 35 35 36 36 38 39 39 39 38 37 37 37 37 37
51 51 50 47 43 42 44 46 47 48 49 48 47 45 45 45 44 43 42 39 40 42 43 44 45 44 42 41 39 40 41 41 41 41 42 43 43 42 41 41 41 42
51 51 51 50 48 46 45 46 47 49 51 52 52 51 50 50 48 46 45 43 44 46 47 47 46 45 44 42 41 41 42 42 43 43 44 44 44 44 45 45 45 46
50 51 50 50 50 50 49 49 50 50 51 53 54 53 53 54 53 52 52 51 51 51 50 50 48 47 47 46 45 45 45 45 46 46 45 45 46 47 48 48 49 49
50 51 51 51 51 51 51 52 52 52 53 54 55 55 55 55 55 55 55 56 57 57 55 54 54 53 53 52 51 50 50 51 52 51 50 50 51 52 52 52 52 53
50 50 51 51 51 51 51 52 52 52 53 53 54 55 56 56 56 56 56 56 58 59 59 58 58 58 56 55 54 54 54 55 55 55 55 55 56 56 55 55 55 55
49 50 50 51 51 51 52 52 52 52 52 52 53 53 54 54 55 55 56 55 56 58 59 57 57 57 56 56 56 55 55 55 55 55 55 56 57 57 57 56 56 57
49 49 49 50 50 51 51 52 52 52 52 52 52 53 53 53 53 54 54 54 54 55 55 53 53 54 55 55 55 53 53 53 53 53 53 54 54 55 55 56 57 57
50 50 50 50 50 51 52 52 52 52 52 53 53 54 54 54 54 54 54 53 52 52 52 52 53 53 53 53 52 51 50 50 50 51 51 51 52 52 53 54 54 54
49 50 50 51 51 51 52 52 53 53 53 53 53 54 55 55 55 55 54 53 52 52 53 53 53 53 53 52 51 50 50 49 49 49 50 50 50 50 51 51 52 52

ECMWFNIL_500_spd_021.txt.gz
Wind_Speed
21 19 19 18 18 18 18 17 15 13 13 13 14 15 15 15 16 16 15 15 15 15 15 15 15 15 15 15 14 14 14 13 13 12 12 12 11 11 12 13 14 14
22 19 18 17 17 18 18 17 15 14 14 13 14 15 15 15 15 16 16 16 16 15 15 15 15 15 15 15 15 14 14 13 12 12 11 11 10 10 11 11 12 13
23 19 18 17 17 17 17 17 16 15 15 15 15 16 16 16 15 15 15 15 16 16 16 16 16 16 15 15 15 15 15 14 13 13 12 11 11 10 10 11 12 13
23 20 19 18 18 17 16 17 18 17 16 17 17 17 17 17 16 15 14 15 15 16 17 17 17 17 17 16 16 16 16 15 14 14 13 12 12 11 11 11 12 12
24 21 21 20 19 18 16 16 18 19 18 18 19 19 18 17 17 16 15 15 15 16 17 18 18 18 18 18 17 17 17 16 15 14 14 13 12 12 12 12 12 12
26 24 24 23 22 20 17 17 18 20 20 20 21 21 20 19 18 17 16 15 15 15 16 17 18 18 18 18 18 18 17 17 17 16 15 14 13 12 12 12 12 12
28 26 25 25 24 21 19 18 19 20 21 22 23 24 24 23 21 19 17 16 16 15 15 16 17 17 18 17 17 17 16 16 16 16 15 15 14 14 13 13 12 13
28 28 28 27 25 23 21 20 20 21 22 23 24 25 26 26 25 23 20 18 17 17 17 17 17 18 18 18 17 16 15 15 14 14 14 14 13 13 13 13 13 13
28 30 30 29 28 27 25 23 23 23 24 24 25 26 26 26 27 26 25 23 22 20 19 18 18 18 19 19 19 18 17 16 15 14 14 14 13 13 13 12 12 13
29 30 30 30 31 30 29 28 28 27 27 27 27 27 28 27 27 28 28 28 26 23 22 21 21 20 20 20 21 20 20 19 18 17 17 16 15 15 14 14 13 13
29 29 29 30 31 31 31 32 33 32 31 30 30 30 29 28 29 29 29 28 27 26 25 25 24 23 22 22 22 21 21 20 19 19 18 18 17 16 16 15 15 15
32 32 31 31 32 31 30 30 32 33 32 32 33 33 33 31 29 30 30 29 30 30 29 28 27 26 25 24 23 23 22 22 22 21 21 20 19 18 18 17 17 17
36 36 36 36 36 35 34 32 31 32 32 32 33 33 34 32 31 31 31 30 30 32 32 32 30 29 28 27 27 27 27 26 25 25 24 24 22 22 21 21 21 21
40 39 39 40 41 40 40 38 37 36 36 36 35 33 31 31 32 33 33 32 32 34 34 34 33 31 31 31 30 30 30 29 29 29 28 27 26 26 25 26 26 25
44 43 42 43 44 44 44 43 42 41 41 40 39 36 33 33 34 34 35 36 37 36 36 35 35 34 34 35 34 33 31 30 31 32 32 31 30 30 29 30 30 29
48 47 47 47 47 47 48 47 46 45 45 43 41 39 38 38 38 38 39 39 37 37 37 38 37 36 36 37 37 36 35 33 31 31 31 32 32 32 32 33 34 34
50 50 51 51 51 50 50 50 50 49 47 45 44 42 41 41 42 42 43 43 39 37 37 39 40 38 36 37 37 36 36 35 33 31 31 31 32 33 35 36 37 38
51 51 52 52 53 53 52 52 52 51 50 49 47 46 45 45 46 46 46 47 45 42 40 40 41 41 39 38 38 39 38 39 39 40 40 38 37 38 39 40 41 40
49 49 50 50 51 52 52 53 53 53 53 53 51 49 49 48 48 48 49 49 49 47 46 44 44 45 44 42 42 43 44 44 45 47 48 45 42 41 41 41 41 41
46 46 47 48 48 49 50 51 51 52 53 53 53 52 51 49 47 47 48 49 50 49 49 49 49 50 50 49 47 47 47 47 47 48 49 48 46 45 44 43 42 42
47 47 46 47 48 49 49 49 49 50 50 51 51 51 51 50 48 48 47 48 49 50 50 51 52 52 53 53 52 51 51 51 52 52 52 52 52 52 51 49 47 47
49 49 49 50 50 49 49 49 49 49 49 49 50 50 50 50 50 49 49 48 48 48 50 51 52 53 53 53 53 53 53 54 54 55 55 56 56 56 56 54 53 52
52 52 52 52 51 49 49 49 49 49 49 49 49 49 49 50 50 50 50 49 49 47 47 49 50 51 52 52 52 52 53 53 53 53 54 54 55 56 56 56 55 54
55 54 52 50 49 49 49 49 48 48 49 49 49 49 49 50 50 50 50 49 49 48 47 48 49 49 49 49 49 50 50 50 50 50 50 51 52 53 54 55 55 53
56 54 52 50 49 48 48 48 48 48 49 49 49 50 50 50 50 50 50 49 49 48 48 49 49 49 49 49 49 48 48 48 48 48 48 49 49 50 50 51 52 52
55 54 53 51 49 48 48 47 48 48 49 50 50 51 51 51 51 51 51 51 50 49 49 50 50 50 50 50 49 49 48 48 48 48 48 48 48 48 49 49 49 49

ECMWFNIL_500_spd_024.txt.gz
Wind_Speed
23 19 18 18 19 20 20 18 17 16 15 14 12 9 9 9 10 10 10 10 10 11 11 11 12 12 13 13 13 13 13 13 14 15 15 15 15 15 15 15 15 16
19 18 19 20 20 21 20 19 18 17 16 15 13 11 10 11 12 12 12 12 11 11 11 10 11 11 12 13 13 13 13 13 14 14 15 15 15 15 15 15 15 16
18 18 21 22 21 21 21 20 19 18 16 15 14 13 12 12 13 13 13 13 13 12 12 11 11 11 11 12 13 14 14 14 14 14 15 15 15 15 15 15 15 15
20 19 22 23 23 22 21 21 21 20 18 16 15 14 13 13 14 14 14 14 13 13 13 13 12 12 12 12 13 14 15 15 16 16 16 15 15 15 15 15 15 15
19 19 21 24 25 23 20 20 21 20 19 19 16 14 14 14 14 14 14 14 14 14 15 15 15 14 14 13 13 13 14 15 16 17 17 17 16 16 16 15 15 15
16 19 21 23 25 23 19 19 21 19 19 20 20 17 15 15 15 16 16 15 15 15 15 15 15 16 16 15 14 14 15 15 16 17 17 18 18 17 17 16 16 16
18 20 22 23 24 23 20 17 18 18 18 19 21 20 19 18 18 18 18 18 18 17 16 16 15 16 17 17 16 16 16 16 15 16 16 17 18 19 19 18 18 18
23 23 24 23 22 23 22 19 18 19 19 19 20 22 22 22 22 21 20 20 21 21 20 18 17 17 17 17 18 18 17 17 16 16 16 16 17 18 18 19 19 19
25 24 25 24 23 24 24 22 22 22 22 22 21 22 23 23 24 25 25 24 24 24 23 21 19 18 18 18 18 19 19 19 18 18 17 16 16 16 16 17 17 18
24 21 21 21 20 22 24 24 24 24 25 25 25 24 24 25 25 26 27 27 26 26 26 25 23 20 19 19 20 20 21 21 21 20 19 18 17 17 17 17 17 17
25 21 22 22 20 21 23 24 24 25 25 25 24 24 25 27 28 28 28 29 30 29 28 28 26 23 21 22 22 23 23 23 23 22 22 21 19 19 19 19 18 18
27 26 27 29 26 24 22 21 22 25 27 26 25 24 25 26 28 29 28 28 31 33 31 30 28 26 24 24 25 25 26 26 26 25 24 23 22 22 21 21 20 20
32 32 31 32 33 31 28 27 29 30 30 30 29 28 28 28 28 29 28 27 29 32 32 31 30 29 28 28 27 27 28 29 30 29 28 27 26 25 24 23 23 22
37 38 37 36 36 35 35 36 37 35 33 33 33 32 32 32 31 32 32 31 30 29 29 31 31 30 30 30 30 30 30 31 33 33 32 31 30 29 28 28 28 27
39 40 40 40 39 39 39 40 40 39 38 37 37 37 36 36 35 35 34 34 33 31 31 32 32 32 31 31 32 32 33 33 34 35 36 35 34 32 31 31 32 32
42 42 42 42 41 41 42 42 42 42 42 41 40 41 41 41 40 39 38 37 36 36 35 35 35 35 34 34 34 34 33 34 35 37 39 39 38 36 35 34 34 35
42 42 42 42 43 43 43 44 44 44 44 43 43 43 43 43 43 42 42 42 41 40 39 38 38 37 37 37 38 37 36 36 37 38 39 41 42 40 38 37 36 35
42 42 42 42 42 43 44 45 46 46 46 45 44 43 43 42 42 42 43 43 43 42 42 41 41 40 40 40 40 41 41 40 40 39 38 39 40 40 39 38 36 35
42 41 41 41 41 41 42 42 43 44 44 44 43 42 41 41 41 41 41 42 42 43 43 42 42 43 43 43 43 43 44 44 44 43 41 40 40 40 40 40 40 39
43 43 43 43 43 43 43 42 42 41 42 42 43 43 42 41 41 41 41 41 42 42 42 42 42 43 44 45 45 44 45 46 46 47 47 46 45 44 43 44 44 45
46 46 45 45 44 44 44 44 43 43 44 45 45 46 45 44 44 44 44 43 43 42 42 42 42 43 43 44 46 46 46 47 47 48 48 49 49 48 48 49 49 50
48 47 46 45 45 45 45 45 46 46 47 47 48 48 48 49 49 49 47 45 44 44 43 43 43 43 43 43 45 46 46 46 47 47 48 49 50 51 51 52 53 53
49 48 47 47 46 46 47 48 49 49 49 50 50 50 51 52 52 51 49 47 46 45 45 44 44 44 44 44 44 44 45 45 46 46 47 49 50 51 52 52 53 53
50 49 49 49 49 50 51 51 51 51 51 51 51 52 53 53 52 51 50 49 48 47 46 45 44 44 44 44 44 44 44 45 45 46 47 48 49 50 51 51 51 51
52 52 52 53 54 55 54 54 53 53 52 52 53 54 53 52 51 51 51 50 50 49 48 47 46 46 45 45 45 45 45 45 45 46 47 47 48 49 50 50 50 50
57 57 58 59 59 58 56 55 55 54 54 54 54 53 53 52 51 50 50 50 50 50 49 49 48 48 47 47 47 47 47 47 47 47 47 48 48 48 49 49 49 50

ECMWFNIL_500_spd_027.txt.gz
Wind_Speed
17 18 20 20 19 18 19 20 20 18 17 16 15 14 13 13 13 13 11 10 10 11 11 12 12 12 11 11 12 12 13 14 15 16 17 17 18 18 19 19 20 20
18 18 18 17 16 16 17 19 21 19 18 17 16 15 15 14 14 14 12 11 10 11 11 12 12 12 13 12 12 11 11 12 12 13 14 15 16 17 17 18 18 19
19 18 17 16 15 15 17 20 22 21 20 18 16 15 15 15 16 15 14 13 12 11 12 12 12 12 12 12 12 12 12 12 12 12 13 13 14 15 15 16 17 17
17 16 17 17 16 17 18 20 23 24 22 19 17 16 15 15 16 16 17 16 15 13 13 13 13 12 12 12 12 13 13 14 14 13 13 13 13 14 15 15 15 16
17 16 16 16 17 18 17 20 24 25 23 20 17 16 16 16 16 17 17 18 17 16 15 13 13 13 13 12 12 12 13 14 14 15 15 14 14 14 14 15 16 16
16 13 12 14 16 18 17 19 23 24 21 19 18 17 17 17 17 17 17 17 17 16 15 14 13 13 13 13 13 13 13 13 14 14 15 15 15 15 15 16 16 16
15 14 16 17 17 19 19 19 21 22 21 21 19 17 16 16 16 16 16 17 16 16 15 14 14 14 14 14 15 15 15 14 14 14 15 15 16 16 16 17 17 17
17 19 21 19 18 19 20 20 21 22 23 23 23 20 18 16 16 16 16 16 16 16 16 16 15 15 15 15 16 16 16 16 15 15 15 16 16 16 17 17 17 18
19 21 21 19 18 20 20 20 21 22 23 25 25 24 22 19 17 17 17 17 16 15 15 16 16 16 16 17 17 17 17 17 16 16 16 17 17 17 17 17 17 18
21 21 22 21 19 19 18 17 18 21 23 25 26 24 22 21 19 19 18 18 18 18 19 19 19 19 19 19 20 19 19 19 19 19 19 18 19 19 19 19 19 18
23 23 23 21 19 18 17 16 18 19 20 22 24 23 22 22 22 22 21 20 21 22 23 24 23 22 22 23 23 22 21 21 21 21 21 20 20 20 21 21 21 21
24 23 19 16 17 20 20 20 20 19 17 18 20 20 20 21 22 23 22 20 20 20 21 23 24 23 24 24 24 24 24 23 23 23 23 22 22 22 23 23 23 23
25 23 21 22 25 26 23 21 20 20 21 22 22 23 22 21 22 23 24 23 22 21 20 22 24 24 25 26 25 24 25 25 24 25 25 24 24 24 24 25 25 26
28 27 27 29 29 26 23 23 23 24 25 25 25 26 27 26 26 27 28 27 26 25 25 26 26 26 26 27 27 26 26 26 27 28 28 28 27 26 27 27 28 28
31 30 30 30 29 28 28 29 29 29 27 27 27 28 28 28 27 27 28 28 28 29 29 29 29 28 28 27 27 28 28 29 29 30 30 30 30 29 29 30 30 31
32 31 31 31 31 32 33 34 33 32 31 30 30 30 30 30 29 30 31 32 31 31 31 31 31 31 31 30 29 30 31 32 32 33 32 33 33 32 32 33 34 35
33 33 33 34 34 35 35 35 34 34 33 33 33 33 34 34 35 36 35 35 34 34 34 34 33 33 33 32 32 33 33 34 34 35 34 34 35 34 34 36 38 40
39 39 40 40 40 39 37 36 35 34 34 34 35 35 35 35 36 36 35 35 35 35 35 35 34 34 34 34 34 35 35 36 37 37 37 37 37 37 37 38 39 41
44 44 44 44 43 41 39 38 37 36 35 35 35 35 35 35 35 35 34 33 33 34 35 35 35 34 34 35 36 36 37 37 38 39 40 40 40 40 40 41 41 42
45 44 44 43 42 41 40 39 38 37 37 37 37 37 37 37 37 36 35 34 34 35 36 36 37 36 36 37 38 39 39 39 40 41 41 42 42 42 42 43 44 44
44 44 43 42 41 40 39 39 39 39 39 40 40 40 40 39 38 37 37 37 38 38 39 40 40 41 41 41 41 41 42 42 42 42 42 42 43 44 44 45 46 46
45 44 44 43 43 42 41 42 42 43 42 42 42 42 41 40 39 39 39 40 41 42 43 43 44 45 45 45 44 43 42 43 43 43 43 43 43 44 45 46 47 48
48 48 48 47 47 46 46 46 46 46 46 45 44 44 43 42 42 42 42 43 44 45 46 46 47 48 48 48 47 45 43 43 44 44 44 44 44 44 45 46 47 48
51 51 50 50 51 51 51 50 49 49 49 48 47 46 46 45 45 45 46 47 47 47 48 48 48 49 50 51 50 48 46 45 44 44 44 44 44 45 45 45 46 47
50 49 49 49 50 51 52 52 52 51 50 50 49 48 48 48 48 49 51 51 50 49 49 50 50 51 51 51 51 50 49 48 47 46 45 45 44 45 45 45 46 47
44 45 47 48 48 48 49 50 50 49 49 50 50 50 50 52 53 54 53 52 51 50 51 51 52 52 51 51 50 50 49 49 48 47 46 46 46 45 45 46 46 46

ECMWFNIL_500_spd_033.txt.gz
Wind_Speed
21 22 21 19 18 18 18 19 18 17 17 17 16 15 15 14 14 13 13 13 14 15 16 16 17 19 20 21 22 22 22 22 22 21 20 20 19 19 19 18 18 17
16 16 15 16 17 19 21 22 20 18 18 17 15 15 14 13 13 13 13 13 13 14 15 16 17 18 19 20 21 21 21 21 20 19 19 19 18 18 18 17 17 17
9 10 11 12 15 18 20 21 19 19 19 18 17 16 15 15 14 13 13 13 14 14 15 16 16 17 18 19 19 20 20 20 19 19 18 18 18 18 17 17 16 16
8 10 10 11 13 16 18 18 18 19 19 18 18 18 17 16 16 14 14 14 14 14 15 17 18 18 18 19 19 20 20 20 19 18 18 17 17 17 17 17 16 16
9 9 10 11 12 14 15 16 15 15 15 16 17 17 17 18 17 15 14 13 13 14 15 17 18 19 20 20 20 20 20 20 19 18 17 16 16 16 16 16 16 16
9 10 10 11 13 13 13 14 12 11 12 15 16 16 17 17 15 13 12 11 11 12 13 15 17 18 19 20 20 20 19 19 18 18 17 16 15 15 15 15 15 15
11 11 11 12 13 13 13 13 13 12 13 15 17 18 19 17 15 14 13 13 13 13 12 13 15 17 17 18 18 18 17 17 17 17 16 15 15 15 15 15 15 14
12 13 13 13 14 15 15 15 15 15 15 16 18 20 20 19 17 16 15 16 16 15 15 15 16 17 18 18 17 16 16 15 15 15 15 14 14 14 14 15 15 15
12 13 13 14 15 15 16 16 16 16 16 17 19 20 21 21 19 17 16 16 17 17 17 17 17 18 18 19 18 18 17 15 14 14 14 15 15 15 15 15 15 15
12 11 12 14 16 16 15 15 16 16 17 18 20 21 21 20 19 17 16 16 17 18 18 17 18 19 19 19 19 18 17 16 16 16 16 17 17 17 17 17 17 17
14 13 14 15 16 17 17 17 18 17 17 19 21 21 19 19 19 18 17 19 19 19 19 18 19 20 20 20 20 19 19 18 19 19 19 19 18 19 19 20 20 19
18 18 18 18 18 19 20 20 21 20 19 19 20 20 18 19 20 20 20 22 21 18 18 18 18 19 21 21 21 21 20 20 21 22 21 20 19 19 19 20 21 22
23 23 23 23 23 23 23 23 24 23 21 21 21 22 23 24 24 23 23 23 22 19 19 19 19 19 20 21 21 21 20 21 22 22 21 20 20 20 20 21 22 23
28 28 28 27 27 27 26 26 26 26 26 25 25 26 28 28 27 26 24 24 23 22 22 23 23 22 22 23 22 22 22 22 23 23 23 23 23 22 22 23 24 25
31 31 31 31 30 30 30 30 30 29 29 30 29 28 29 30 30 28 26 25 24 23 23 25 25 26 27 27 26 26 26 27 28 29 30 30 29 29 29 30 30 29
35 35 34 35 35 34 34 34 33 33 32 32 31 31 30 30 31 30 28 28 26 25 25 27 27 29 29 29 30 30 31 32 34 35 35 35 34 33 33 34 34 34
39 39 39 39 39 38 38 37 36 36 35 34 34 34 33 32 33 33 32 31 30 29 29 30 31 32 33 34 35 35 35 35 36 37 37 36 35 35 34 34 34 34
43 43 43 42 42 41 41 40 39 38 38 37 36 35 35 35 36 36 34 33 32 32 33 33 34 35 37 37 37 36 36 36 36 36 35 34 33 33 33 33 33 33
43 43 43 43 43 42 41 40 40 39 39 39 38 38 38 37 37 38 37 37 37 36 36 36 36 37 38 38 37 36 35 35 35 34 34 33 33 33 32 32 32 32
42 43 42 41 41 42 42 41 41 40 39 38 38 38 39 38 38 38 40 40 39 38 37 36 36 37 37 37 36 36 35 35 35 34 34 34 34 33 33 33 33 33
44 43 40 39 38 38 39 40 40 39 39 39 38 39 40 40 40 42 43 42 40 38 36 35 36 36 37 37 37 37 38 38 37 36 36 36 36 35 35 34 34 34
45 42 40 38 36 35 35 36 36 37 38 40 40 41 43 44 44 45 45 44 41 39 36 35 36 37 38 39 39 40 40 40 40 39 38 38 38 38 37 37 36 36
44 43 42 40 36 34 35 35 35 36 37 38 39 41 43 44 43 43 43 42 41 39 37 37 37 38 39 40 41 41 41 41 41 40 39 40 40 40 40 40 39 39
47 46 46 44 41 39 38 39 39 39 38 37 37 38 39 41 42 42 42 41 41 40 39 40 41 42 43 43 44 44 43 43 42 42 41 41 41 42 42 42 42 42
54 52 50 48 48 46 44 43 42 42 42 42 40 39 39 40 41 42 42 42 42 43 44 44 45 45 46 46 46 45 44 44 44 43 43 42 42 42 42 43 44 45
59 57 55 53 53 53 51 49 48 47 47 47 47 47 46 46 46 46 46 47 48 49 49 49 48 47 46 46 45 45 44 44 44 44 43 42 42 41 43 45 47 48

ECMWFNIL_500_spd_036.txt.gz
Wind_Speed
23 23 21 20 19 19 20 22 23 22 21 21 20 20 18 17 17 17 15 14 14 13 13 12 12 12 13 13 14 14 15 16 17 18 19 20 20 19 19 19 18 18
23 22 19 16 16 17 20 23 24 23 22 23 23 22 19 17 16 16 14 13 13 13 12 12 11 11 12 12 13 14 14 15 16 17 18 18 19 19 18 18 17 17
19 16 12 11 12 15 18 21 23 22 22 23 22 20 19 17 15 15 15 14 14 14 14 13 12 12 11 12 12 13 14 15 16 16 17 17 18 18 18 17 16 16
13 10 9 10 13 15 17 18 19 20 21 21 19 18 19 18 17 17 17 16 16 16 16 15 14 13 13 13 13 14 14 15 16 17 17 17 18 18 18 17 17 16
12 11 11 13 14 16 17 16 16 16 17 18 19 18 18 18 18 18 18 17 17 18 18 17 16 15 15 15 15 15 16 16 17 17 17 17 17 17 18 18 17 17
13 13 13 13 15 16 16 15 14 14 15 16 17 17 16 16 17 17 17 18 18 18 17 17 16 16 15 15 16 16 17 17 18 18 18 18 17 16 17 17 18 17
13 13 13 14 14 14 14 14 13 13 14 14 14 15 16 16 17 17 17 17 16 16 16 17 17 16 16 16 16 16 17 17 18 18 18 18 18 17 16 16 16 17
14 15 15 15 15 14 14 14 14 14 14 14 15 16 17 18 18 17 17 16 16 17 18 18 19 18 18 18 18 18 18 18 18 18 18 17 17 17 17 16 16 16
16 17 17 16 16 16 14 14 14 15 15 14 15 15 16 18 19 19 18 17 17 17 19 20 20 20 21 21 22 21 20 19 18 18 18 18 17 17 17 17 17 16
17 18 18 18 17 16 15 15 15 16 15 14 14 15 16 17 19 20 20 19 18 18 19 20 20 20 21 22 23 23 22 21 20 21 21 20 19 18 18 19 19 19
19 19 19 18 17 16 16 16 16 17 17 16 16 16 16 17 18 20 21 21 19 19 19 20 20 20 22 23 23 23 23 23 22 22 23 22 22 21 21 21 21 21
19 20 20 19 19 18 17 16 17 18 18 19 19 19 19 18 18 19 21 21 20 19 20 22 23 23 23 24 24 24 25 25 24 24 24 24 24 24 23 22 22 21
19 20 21 21 21 20 20 19 19 20 21 22 22 22 22 21 20 21 22 23 24 25 26 27 27 26 23 23 24 24 24 26 27 27 27 27 26 26 24 22 22 21
20 21 22 23 23 24 24 24 24 24 24 25 25 25 25 24 24 24 25 27 28 30 31 30 29 28 27 26 27 26 26 26 28 29 29 28 27 26 25 23 22 22
23 24 24 25 26 26 27 28 28 28 28 28 28 28 28 28 28 29 30 31 31 32 33 33 32 32 31 30 30 30 29 28 29 29 29 28 28 27 27 27 26 27
28 28 29 29 30 30 30 31 31 32 32 32 32 33 32 32 32 33 33 34 34 35 35 35 35 34 33 32 30 30 31 31 31 32 31 32 32 31 31 32 32 34
34 34 34 34 35 35 35 35 35 35 36 36 37 37 37 38 38 38 38 38 38 38 38 38 37 37 36 33 31 31 33 34 34 34 34 35 35 35 36 36 37 38
38 39 39 39 39 40 40 40 39 39 40 40 40 41 42 42 42 43 42 41 40 40 40 39 39 39 38 36 35 34 35 35 36 36 37 37 38 39 40 41 42 42
42 42 43 43 43 43 43 43 43 43 42 41 41 41 42 41 41 41 41 40 41 41 40 39 39 40 40 39 37 36 36 37 38 39 40 41 42 43 43 44 44 43
46 46 46 46 46 45 44 44 43 42 40 39 40 41 42 42 42 41 41 41 43 44 42 41 42 42 41 40 39 38 38 39 40 41 42 43 44 44 43 43 41 40
49 49 49 49 47 46 44 41 40 40 40 40 40 41 41 42 42 43 43 42 42 42 41 42 43 43 41 41 41 40 41 42 43 44 45 46 46 45 43 41 40 39
47 47 47 46 45 44 42 41 42 42 42 42 41 41 41 42 43 45 44 41 37 36 36 39 42 42 42 42 42 43 44 45 46 47 47 47 46 44 42 41 40 40
45 45 44 44 44 44 44 44 44 44 43 42 42 43 43 44 45 46 45 43 40 38 38 39 41 42 43 45 46 46 47 47 47 47 47 46 45 43 42 41 41 40
49 48 46 46 45 46 45 45 44 44 43 43 44 45 45 45 45 46 45 46 47 48 48 48 48 48 48 49 49 49 49 48 47 46 46 45 44 43 43 43 42 41
54 53 52 51 50 49 47 46 45 44 45 45 47 48 49 47 46 47 46 46 48 50 50 50 50 50 49 49 49 48 48 47 46 45 44 44 44 45 46 46 46 46
58 59 59 58 57 56 54 53 52 51 52 53 54 55 54 52 49 49 49 47 47 47 47 46 47 48 49 48 48 47 46 46 46 46 46 47 47 48 49 50 50 50

ECMWFNIL_500_spd_039.txt.gz
Wind_Speed
19 17 18 19 21 22 21 21 19 17 15 16 18 18 17 17 17 17 17 16 15 15 15 15 14 14 14 14 13 13 12 12 11 11 11 11 11 11 12 12 13 14
22 19 19 21 23 24 22 18 15 12 12 14 16 17 16 18 18 18 16 15 14 14 14 14 14 14 14 14 14 14 13 13 12 12 12 12 11 12 12 12 13 13
27 24 22 22 23 23 19 15 12 12 13 14 16 17 17 17 17 15 14 14 13 13 13 14 15 16 16 16 16 16 15 15 14 14 14 13 13 13 13 13 13 14
30 26 23 21 20 17 14 12 12 13 14 14 16 18 17 16 15 14 14 14 14 13 14 15 16 17 18 18 18 18 18 17 16 15 15 15 15 14 14 14 14 14
27 23 20 19 18 15 13 12 13 13 14 16 17 16 15 14 13 12 13 14 14 14 15 16 17 18 19 19 19 19 19 18 18 17 16 16 16 16 16 16 15 15
22 20 19 19 19 16 14 14 14 15 16 17 16 15 14 13 12 11 11 12 13 15 16 17 18 19 19 19 20 19 19 19 18 18 17 17 16 16 16 16 16 16
22 21 20 21 20 17 16 16 17 18 18 17 16 14 13 12 12 11 11 11 13 14 16 17 18 18 19 19 19 19 19 18 18 18 18 18 18 17 17 17 17 17
24 22 21 21 21 19 18 19 19 19 19 17 15 14 13 13 13 13 13 13 13 14 15 16 17 18 19 20 20 20 20 20 20 20 20 20 19 19 18 18 18 17
24 23 22 21 20 19 19 20 20 20 19 17 16 16 15 15 15 15 14 14 14 14 15 16 17 18 20 21 21 21 22 22 22 22 22 21 21 20 19 19 19 19
24 23 22 20 19 19 19 20 20 20 19 18 18 17 17 17 17 16 16 16 15 15 15 16 17 18 19 21 21 21 21 21 21 22 22 22 22 22 21 21 21 20
21 21 20 19 19 19 19 19 20 20 20 20 19 19 19 19 19 19 18 18 17 16 16 16 16 16 18 19 21 21 21 22 23 24 24 23 24 24 24 24 24 23
20 20 20 20 20 20 19 20 20 21 21 21 21 21 21 21 21 21 21 20 19 19 18 17 16 17 18 19 21 22 24 25 26 26 26 25 25 25 25 26 26 26
22 22 22 22 22 22 22 22 22 21 21 21 22 22 22 23 23 23 23 23 23 22 22 21 20 20 21 22 23 25 26 27 28 28 28 27 27 27 28 28 28 28
22 23 24 24 24 24 24 24 24 23 22 23 24 24 25 26 26 26 26 26 27 27 27 27 26 26 27 27 27 27 27 27 29 30 30 30 29 29 29 30 31 31
21 22 23 23 23 23 24 25 25 25 25 26 27 28 29 29 29 30 30 30 30 31 31 31 31 32 32 31 31 31 29 29 30 31 33 33 33 33 33 33 33 33
22 23 23 23 23 24 25 26 27 28 28 28 29 30 32 34 33 32 31 31 32 32 33 34 35 37 36 35 35 34 33 32 32 33 35 35 36 36 35 33 33 33
26 27 27 27 27 28 29 30 31 31 31 31 32 34 36 36 33 30 30 31 32 32 32 33 35 36 36 35 35 36 36 36 35 36 38 38 39 39 38 36 36 35
30 31 32 32 32 33 33 33 34 35 35 35 36 38 38 36 34 34 35 36 36 36 35 34 34 36 36 37 37 38 39 39 38 38 38 36 35 35 36 37 37 36
34 35 35 36 36 36 36 36 37 37 37 38 39 40 40 40 41 42 43 42 42 41 40 39 39 40 40 40 40 40 40 41 41 40 40 39 34 32 33 36 37 37
37 38 38 38 39 39 39 40 40 40 40 41 42 43 44 45 46 46 46 46 45 43 41 40 39 39 40 40 40 41 43 45 44 42 42 42 38 36 37 39 39 39
40 41 41 41 42 42 42 43 43 43 44 44 45 46 48 49 49 49 47 46 44 43 41 39 38 38 38 40 42 44 45 46 45 43 43 43 42 43 45 46 45 44
43 44 44 44 45 45 45 45 45 45 44 44 44 45 47 48 48 47 46 44 43 43 42 40 39 39 39 40 42 44 45 45 43 42 45 47 47 48 49 50 49 48
46 46 46 46 47 47 47 47 46 45 44 43 42 42 43 43 43 43 43 44 45 45 44 42 42 42 41 41 42 42 41 42 42 43 46 49 50 49 49 49 48 49
47 48 49 49 49 49 49 49 47 46 46 46 45 45 44 44 44 44 45 46 47 47 46 46 45 45 43 42 43 43 41 38 38 40 43 46 47 48 48 48 49 50
52 53 53 53 52 52 52 51 50 50 50 49 49 50 50 50 51 51 50 50 50 50 49 49 48 48 47 45 45 47 48 45 43 44 45 47 48 49 50 51 52 51
58 58 57 57 56 55 55 54 53 53 53 52 52 53 53 54 55 55 53 52 52 52 52 51 52 52 51 49 47 48 51 54 55 55 54 54 53 53 52 51 50 48

ECMWFNIL_500_spd_042.txt.gz
Wind_Speed
19 17 16 16 16 16 16 17 17 17 15 11 8 7 8 8 8 8 9 11 12 12 11 11 11 11 10 10 10 10 11 11 12 13 13 14 15 15 15 14 14 13
18 19 19 19 18 18 18 18 18 18 15 11 9 8 9 8 7 7 8 9 9 9 9 10 10 10 10 10 10 11 11 11 11 12 13 14 15 15 15 15 14 14
18 19 20 20 21 21 21 22 22 20 15 12 10 9 9 8 8 7 7 8 8 9 9 10 11 11 11 12 12 12 13 13 13 13 14 15 15 16 16 16 15 15
16 15 17 19 22 25 26 26 24 20 15 13 11 10 10 9 9 8 8 8 9 9 10 11 12 13 13 13 13 14 14 15 15 15 16 16 17 17 17 17 17 17
16 17 19 22 25 27 27 26 22 18 15 14 12 11 11 11 11 9 9 9 9 10 11 12 13 14 14 14 15 15 15 16 16 16 17 17 17 18 18 18 18 18
19 20 23 25 27 26 24 22 20 18 17 15 13 13 13 13 12 12 10 10 10 11 12 13 14 15 16 16 16 16 16 16 16 16 16 16 17 17 17 18 18 19
24 25 26 26 25 22 21 21 21 20 18 15 14 14 14 14 14 14 12 11 11 11 12 14 15 16 17 16 15 14 14 14 15 16 16 17 17 18 18 19 20 20
27 28 27 24 21 20 20 22 22 21 19 16 16 16 16 16 16 15 13 13 12 13 14 15 16 16 16 15 14 13 12 13 15 16 17 17 18 19 19 20 20 20
26 26 24 22 21 21 22 23 24 22 20 18 18 18 18 18 17 16 15 15 14 15 15 15 15 15 15 15 14 13 13 13 14 15 16 16 17 18 19 19 20 20
21 22 21 21 22 22 23 24 25 24 22 20 20 20 19 19 18 18 17 16 16 15 15 15 15 15 15 16 15 15 14 13 14 14 15 15 17 18 19 20 20 21
16 18 19 20 22 23 25 26 25 24 23 22 21 21 20 19 19 19 19 18 17 17 16 15 14 14 15 16 16 16 15 14 14 14 16 17 19 20 21 21 22 22
13 16 17 19 21 24 25 25 26 25 24 22 22 22 21 21 21 21 21 20 20 19 18 17 16 16 16 16 16 16 15 15 15 17 19 20 21 22 22 22 23 24
14 15 16 17 20 22 22 21 22 24 24 22 21 21 21 21 21 21 21 21 21 20 20 20 21 21 20 19 18 18 18 18 19 21 23 23 24 24 24 24 25 25
17 18 18 19 21 22 21 20 19 19 21 23 23 22 22 22 22 21 21 22 21 22 22 24 26 27 25 22 20 22 23 24 24 25 26 27 28 29 27 26 27 28
18 20 20 20 21 22 22 22 20 18 19 21 22 23 23 24 23 23 24 25 25 25 26 28 31 31 29 25 24 25 26 27 27 28 28 29 30 30 29 28 30 30
19 18 18 18 19 21 22 22 22 20 19 20 21 22 23 24 24 25 27 28 28 29 29 31 33 33 30 29 29 29 28 27 27 27 28 29 30 31 31 31 31 31
20 19 20 19 19 21 22 23 23 23 22 23 24 24 25 26 27 28 30 31 32 31 31 31 32 32 32 32 32 32 33 32 30 30 32 33 34 36 35 34 34 34
22 22 23 23 23 24 25 25 26 26 27 27 28 29 29 30 31 32 33 35 35 35 33 33 33 35 37 37 37 37 37 37 36 36 38 39 39 39 37 36 36 36
25 26 26 26 27 28 28 29 29 30 31 31 32 32 33 33 35 36 37 38 39 38 37 37 38 39 40 41 42 42 40 39 37 36 37 38 39 39 38 38 38 38
28 29 29 30 31 31 32 32 32 33 33 34 34 35 35 36 38 39 40 41 42 42 41 40 40 40 41 42 44 44 43 41 38 35 35 36 37 38 39 40 41 41
33 33 34 35 35 35 35 35 35 36 37 38 38 38 38 39 40 41 43 43 44 45 44 42 41 41 43 44 44 44 43 41 38 36 37 38 39 40 41 41 42 41
38 38 37 37 38 38 38 39 39 39 40 41 42 42 42 42 42 43 43 44 45 45 44 42 42 43 44 44 43 42 41 39 38 38 39 40 41 42 42 40 40 41
41 40 40 41 41 42 42 43 43 43 43 44 44 44 43 43 44 45 45 45 45 45 44 44 43 43 43 42 41 40 40 40 39 40 42 44 44 44 42 41 41 40
44 44 44 44 45 46 47 47 47 46 45 44 44 45 46 48 49 49 49 49 48 48 47 46 45 44 43 42 42 42 42 43 43 44 46 48 48 47 46 45 45 44
46 47 47 47 47 47 47 48 47 45 45 46 47 50 51 53 53 53 53 53 53 52 51 49 48 47 47 47 48 48 49 49 49 48 48 49 50 50 49 49 48 47
46 45 45 46 46 46 46 46 47 49 51 54 55 55 55 55 55 55 55 55 55 55 54 52 51 50 50 50 51 52 53 52 51 50 50 51 52 53 52 51 49 48

ECMWFNIL_500_spd_045.txt.gz
Wind_Speed
16 17 17 17 17 18 17 16 16 15 12 10 10 12 12 11 12 11 10 10 9 8 7 6 6 5 5 4 4 4 4 4 4 4 4 4 5 5 6 6 7 7
16 18 19 17 16 18 19 18 18 17 14 9 9 12 14 13 13 12 10 10 8 7 7 6 6 6 6 5 5 5 5 5 5 6 6 6 6 7 7 7 7 8
15 18 20 19 17 18 20 20 19 19 17 14 11 13 16 15 14 13 11 10 9 8 7 7 7 7 7 7 7 7 7 7 7 7 8 8 8 8 8 8 8 8
12 14 16 17 16 17 19 19 20 20 21 20 18 17 18 18 16 15 13 12 11 9 9 8 9 9 9 9 9 9 8 8 9 9 9 9 9 9 9 9 9 9
13 13 13 14 14 15 17 18 19 21 22 23 21 19 19 19 18 16 14 12 11 10 10 10 10 10 10 10 10 10 9 9 9 9 9 9 9 8 8 8 9 9
17 16 14 15 16 17 18 19 21 22 23 22 20 19 20 20 18 17 15 13 12 12 11 11 11 12 12 11 11 10 9 9 9 9 9 9 9 9 9 9 10 10
20 19 19 19 20 21 22 22 22 23 23 21 19 19 19 19 18 16 14 14 13 13 13 12 13 13 13 12 11 9 9 9 8 8 9 9 10 11 11 11 11 11
18 19 21 22 23 23 23 23 23 22 21 19 19 19 19 18 17 15 15 14 13 13 13 13 13 14 13 12 11 10 10 10 10 10 10 10 11 12 12 11 11 12
15 16 19 22 23 23 22 22 21 20 19 18 19 19 18 17 16 16 15 14 13 13 13 13 13 13 12 12 11 12 12 12 12 12 12 11 12 12 11 11 12 13
16 16 18 19 19 20 20 19 19 18 17 17 18 19 18 17 17 17 15 14 14 13 13 12 12 11 10 10 11 11 12 13 13 13 13 13 13 13 13 14 15 16
18 20 19 17 16 16 17 16 16 16 16 18 19 20 20 20 19 17 16 15 15 14 14 13 11 10 9 9 10 11 11 12 13 13 13 13 13 14 15 17 18 19
16 18 18 17 14 14 16 16 17 18 19 20 21 22 23 22 21 20 18 17 16 15 15 14 13 12 12 13 13 13 13 13 14 14 14 15 15 16 18 20 21 21
14 16 17 18 16 14 14 16 18 19 20 22 22 23 24 24 24 23 21 20 18 16 15 14 15 16 16 16 16 16 17 17 17 17 17 18 20 21 22 24 24 23
13 15 16 18 18 15 14 17 20 20 21 21 21 21 23 24 24 24 23 22 20 18 17 16 18 18 19 19 19 20 21 22 21 21 21 22 22 23 25 26 27 25
13 14 14 16 18 17 15 16 19 20 20 18 16 16 18 20 22 23 23 23 22 21 21 21 21 21 22 22 23 23 24 25 24 23 23 24 24 25 26 27 27 27
12 13 14 15 16 18 17 16 17 18 18 18 16 15 15 17 19 20 21 22 22 22 22 23 24 25 25 25 25 26 26 25 24 24 25 26 27 28 29 29 30 31
11 13 15 16 16 17 16 17 18 16 17 18 17 17 17 17 18 19 20 20 21 22 23 25 26 28 28 28 29 28 27 27 27 28 29 30 30 31 32 32 33 34
13 13 15 15 15 14 12 15 16 15 16 17 18 19 19 20 21 22 23 23 23 25 26 27 29 30 31 32 32 31 31 31 31 32 33 33 33 34 34 35 36 36
20 17 18 18 18 17 17 20 22 20 19 20 21 22 23 24 25 26 26 26 26 27 28 30 31 32 33 34 34 34 34 34 34 35 35 35 35 36 36 36 37 39
25 24 26 27 27 27 28 29 28 25 23 24 25 26 27 28 28 29 29 29 29 30 31 32 34 35 36 36 37 37 37 37 37 37 37 38 39 38 38 38 39 40
27 28 29 31 33 33 32 31 30 30 29 29 29 30 30 31 32 33 33 34 33 33 33 35 37 38 38 39 39 39 39 39 40 40 41 42 42 41 40 41 41 41
32 33 33 33 35 36 36 36 36 36 36 35 34 35 35 36 37 37 37 37 38 37 37 38 39 40 40 40 41 41 41 41 42 42 43 43 43 42 41 41 41 41
38 38 39 39 39 40 40 40 41 41 41 40 39 39 39 39 40 40 40 40 40 41 40 39 40 40 41 42 42 43 43 43 43 44 44 44 44 42 41 41 41 41
40 40 41 40 41 42 43 43 44 45 45 44 44 43 43 43 43 42 42 43 43 42 41 40 41 42 43 44 44 45 45 45 45 45 45 45 44 43 42 43 43 44
42 42 42 42 42 43 45 45 46 48 48 49 49 49 49 48 46 44 43 43 42 42 43 43 44 46 46 46 47 47 47 47 47 47 47 47 46 45 45 45 46 47
43 44 44 44 45 45 46 48 49 51 52 53 53 53 52 51 50 47 44 43 43 44 46 48 48 49 50 50 50 50 50 51 51 51 51 51 50 48 47 48 48 48

ECMWFNIL_500_spd_048.txt.gz
Wind_Speed
13 14 14 14 14 15 16 17 18 16 14 15 15 14 15 15 15 14 14 13 13 13 14 14 13 12 11 10 10 9 8 7 7 7 7 8 8 8 9 9 10 10
14 14 15 15 16 17 18 19 20 17 15 15 16 15 14 13 13 14 13 13 12 13 13 13 13 12 11 10 9 9 8 8 8 8 8 8 8 9 9 9 9 10
14 15 15 15 17 18 19 20 20 18 17 17 17 17 16 13 12 13 13 13 13 12 13 12 12 12 11 10 10 9 9 9 9 9 9 10 10 10 10 10 10 11
16 15 15 15 16 18 19 21 21 19 18 18 18 20 20 17 16 16 15 14 14 13 13 13 13 12 11 11 10 10 10 10 10 11 11 12 11 11 11 11 11 11
17 16 15 16 16 16 18 22 22 20 19 18 19 20 21 20 19 18 17 16 15 14 13 13 13 12 12 12 12 12 12 12 12 13 13 13 12 11 10 10 9 9
18 18 18 19 18 17 19 22 21 19 17 16 17 18 20 20 18 18 17 15 14 14 13 13 13 13 13 12 12 13 13 13 13 14 14 13 12 10 9 8 8 8
21 22 22 22 21 20 21 23 22 19 17 16 16 18 18 17 16 15 15 14 14 13 12 12 12 12 12 12 12 12 12 12 13 13 13 12 11 10 9 8 8 8
26 26 25 25 24 22 23 24 24 21 18 17 18 18 17 15 13 13 13 13 13 12 12 12 11 11 11 12 12 12 12 12 12 12 12 11 10 9 9 9 9 9
27 26 24 24 23 23 25 26 24 22 21 19 18 17 15 13 12 12 13 13 12 12 12 11 11 12 13 13 13 13 12 12 12 12 10 10 10 10 11 11 11 11
23 23 23 23 22 23 26 27 25 23 22 20 17 14 13 12 12 12 12 13 13 12 12 12 13 14 14 14 13 13 12 11 10 10 10 11 12 12 12 12 12 12
21 20 21 23 23 24 26 26 25 23 22 20 17 15 14 13 13 13 13 14 14 14 14 15 15 16 15 13 13 13 12 10 9 9 11 13 14 14 13 13 13 14
24 21 20 22 23 23 22 21 21 22 22 21 18 17 17 16 16 16 15 15 16 16 17 17 17 17 16 14 14 14 13 11 11 12 13 15 15 15 16 16 17 18
26 24 21 22 23 22 20 17 17 19 20 20 18 17 18 18 18 18 17 17 17 18 19 20 20 18 17 17 16 15 14 14 14 15 15 16 16 17 18 19 19 19
24 23 21 19 19 19 19 17 15 17 18 18 18 18 19 19 20 19 18 17 17 19 21 21 20 19 18 18 17 16 17 17 17 18 18 18 18 18 19 19 19 20
21 22 21 18 15 15 18 18 17 16 17 19 20 21 20 20 20 21 21 20 19 20 21 21 21 20 20 20 20 19 19 20 20 20 20 20 20 20 20 20 20 22
18 20 20 18 15 15 17 19 20 19 20 21 22 22 21 20 19 20 21 22 22 22 22 23 23 22 22 22 22 22 22 21 21 22 22 23 22 22 23 23 25 26
14 16 17 15 13 14 16 18 20 22 22 22 22 22 22 21 20 20 20 21 22 23 23 24 23 23 23 23 24 24 24 24 24 24 25 25 25 25 26 27 29 30
11 14 15 13 12 14 16 18 20 21 22 22 21 21 22 24 24 23 22 21 21 22 23 24 24 24 24 25 25 26 26 26 27 27 28 28 28 29 30 30 31 31
12 13 15 15 15 16 17 18 19 19 20 22 22 22 22 24 25 25 24 23 23 24 25 26 27 27 28 28 29 29 29 30 30 30 31 31 32 32 33 33 33 33
16 17 19 20 19 19 19 18 19 19 20 22 25 26 26 26 27 27 26 26 26 27 28 29 30 31 32 33 33 33 33 33 34 34 35 35 35 35 36 36 36 36
22 23 23 23 23 23 23 22 22 23 23 23 25 27 27 27 28 27 27 27 28 30 32 33 34 35 36 37 37 37 37 37 38 38 38 38 38 38 38 38 38 38
27 26 24 25 26 25 25 26 26 27 27 27 27 26 26 27 29 31 31 31 32 34 36 37 39 39 39 40 41 41 41 42 42 42 42 42 42 42 41 41 40 40
28 27 26 28 29 29 28 29 30 30 31 33 33 33 33 34 36 38 38 37 37 38 39 41 42 43 43 44 44 45 45 46 46 46 46 46 45 44 44 43 43 43
30 30 31 32 32 32 32 32 32 33 34 35 37 39 41 42 42 43 43 43 43 43 42 43 44 46 47 47 48 49 49 50 50 50 49 48 47 46 45 44 44 44
35 36 37 37 37 37 36 36 36 36 37 38 39 41 43 45 45 46 47 48 47 47 47 47 48 49 50 50 51 52 52 52 52 51 50 49 48 47 46 46 47 47
37 39 40 40 41 41 41 41 41 41 41 41 42 44 45 46 47 48 50 51 51 50 51 52 52 53 53 53 53 52 51 50 50 49 49 49 49 50 50 50 50 51

ECMWFNIL_500_spd_051.txt.gz
Wind_Speed
19 21 23 24 24 22 20 18 16 16 15 14 15 16 17 17 17 18 17 16 15 13 11 11 11 13 14 15 16 16 15 15 14 13 13 12 11 11 10 10 10 9
20 21 23 24 25 23 22 20 17 16 15 15 16 17 18 17 17 16 16 16 15 13 11 10 11 13 14 15 15 15 15 14 14 13 12 12 11 11 11 11 11 10
22 22 23 24 24 22 21 19 17 16 15 15 17 19 19 18 17 16 15 15 14 13 11 11 11 12 13 14 14 14 15 15 14 14 13 12 12 12 12 12 11 11
23 23 23 23 21 19 18 18 17 15 15 15 18 20 20 20 19 18 15 14 14 13 12 11 11 12 13 13 14 15 16 16 15 15 14 14 13 13 13 13 13 13
24 23 22 20 18 16 15 15 15 13 12 15 18 20 21 21 21 20 18 17 15 14 13 12 12 13 13 14 16 16 16 16 15 15 14 14 14 14 14 14 15 15
23 21 19 17 16 14 12 13 14 13 12 15 19 21 21 21 21 21 21 20 19 17 15 14 13 14 15 15 16 16 16 16 15 15 15 15 15 14 14 15 15 15
20 18 17 15 15 14 13 14 16 15 14 16 19 21 21 19 19 19 20 21 21 21 20 17 15 15 16 16 16 16 16 16 16 16 15 15 15 14 14 14 13 13
20 18 17 16 16 16 16 18 19 18 17 18 19 20 19 18 18 18 19 20 21 22 21 20 17 16 16 16 16 16 16 15 15 15 14 14 14 13 12 11 11 10
22 21 21 19 18 17 19 21 22 21 21 21 21 21 20 19 20 20 19 20 20 20 21 20 18 17 16 15 15 14 14 14 14 14 13 13 13 12 11 11 10 10
26 25 24 20 19 20 22 25 25 23 23 23 23 23 23 22 22 21 20 19 19 19 19 19 18 16 15 15 14 14 14 14 14 14 14 13 13 12 10 9 9 9
26 27 26 24 22 23 26 27 26 24 23 23 24 24 24 24 24 23 21 20 18 18 18 17 16 16 15 15 14 14 14 15 15 14 14 13 12 11 10 9 9 9
25 26 28 29 26 25 27 27 25 24 24 24 23 23 23 24 25 24 22 20 19 18 17 17 16 16 15 15 15 16 16 17 16 15 14 13 13 12 11 11 11 12
27 27 29 31 29 27 26 25 24 23 23 22 22 22 23 24 25 25 23 21 20 19 18 18 17 16 16 17 17 17 18 18 17 16 15 14 14 13 13 13 14 14
29 29 30 32 33 33 30 26 24 23 21 19 19 20 22 23 24 23 23 22 22 21 21 20 20 19 20 19 19 19 19 18 17 17 16 16 16 16 16 16 16 17
24 23 25 27 30 32 29 23 20 19 19 18 18 19 20 21 22 22 23 23 23 23 23 23 23 22 22 21 21 21 20 20 19 18 19 19 19 19 19 19 19 19
16 15 18 20 21 20 17 14 14 16 18 19 20 19 19 20 21 22 23 23 23 24 24 24 24 24 23 23 22 22 22 22 22 22 22 21 21 21 21 21 21 21
14 13 14 16 16 15 14 14 15 16 17 19 20 21 20 20 21 23 24 24 24 24 23 24 24 24 24 23 23 24 24 25 25 26 25 25 24 23 23 23 22 23
14 14 14 14 15 15 14 14 16 17 18 19 22 23 23 23 23 24 25 25 24 24 23 23 23 23 24 24 25 26 26 27 28 28 28 27 26 26 26 25 26 27
18 17 15 14 14 15 15 15 16 18 19 20 23 24 24 24 24 25 26 26 25 25 24 24 24 24 24 25 26 27 27 28 29 29 29 29 29 29 30 30 30 31
22 21 18 15 14 16 18 18 18 18 19 21 24 25 24 23 24 25 26 27 27 27 27 27 27 26 26 26 26 27 29 30 31 32 33 33 33 33 33 34 35 35
24 24 23 21 19 20 22 23 23 22 22 23 26 27 26 24 24 25 27 28 28 28 29 29 29 28 27 27 28 30 32 33 34 36 36 37 37 37 37 38 39 39
25 25 26 26 25 25 26 27 27 27 26 27 28 29 28 27 27 27 28 30 31 31 31 31 31 30 29 30 32 34 36 37 38 39 39 39 39 40 40 41 42 43
26 27 27 27 27 27 27 28 30 30 30 30 31 32 32 31 30 30 30 31 32 33 34 34 33 33 34 36 38 39 40 41 42 42 42 42 42 43 44 45 46 47
26 27 27 28 28 27 27 29 30 30 30 31 32 33 33 33 33 33 33 34 34 35 35 36 38 40 42 43 43 44 44 44 44 45 45 45 45 46 47 48 49 50
26 27 29 30 30 30 29 30 32 33 34 34 35 35 36 36 36 36 37 37 38 40 41 43 46 48 48 48 48 48 49 49 49 48 48 48 48 49 50 51 52 54
30 32 33 33 34 34 33 33 34 37 38 39 40 40 41 41 41 41 41 41 42 43 45 47 49 50 51 51 51 52 53 53 53 53 52 52 52 52 53 54 55 55

ECMWFNIL_500_spd_054.txt.gz
Wind_Speed
28 27 27 27 26 25 23 23 23 20 17 15 16 17 18 17 15 13 13 14 15 14 14 15 15 15 15 14 14 14 14 14 14 14 14 13 12 11 9 8 7 7
28 27 27 27 26 25 24 25 24 20 16 15 17 18 17 16 15 14 14 15 15 15 15 15 15 14 13 13 14 14 15 15 14 15 14 13 11 10 9 8 8 9
27 26 27 26 25 25 26 27 25 20 15 15 16 17 16 16 16 16 16 16 16 15 15 15 15 14 13 13 14 14 14 14 14 14 14 13 12 11 10 10 10 11
26 25 25 24 23 25 26 25 23 20 17 16 17 17 17 16 16 17 17 17 16 15 14 14 14 14 14 13 14 14 14 14 14 14 14 13 13 12 12 12 12 12
22 21 20 19 20 23 22 20 19 18 18 18 17 17 17 17 17 17 18 18 17 16 15 14 14 14 14 14 14 14 14 14 14 14 14 14 13 13 13 13 14 14
17 17 17 17 18 19 19 18 18 17 17 17 17 16 16 17 17 17 18 18 18 18 18 17 16 15 15 14 15 15 15 15 15 14 14 15 15 15 15 15 15 14
16 16 17 18 19 19 18 17 17 16 16 16 15 14 14 15 17 17 18 18 19 20 21 20 19 18 17 16 16 17 17 17 16 16 16 17 17 16 16 16 16 16
16 17 18 18 18 17 17 18 17 16 16 15 14 13 13 13 14 16 18 18 18 19 20 21 21 22 21 21 20 19 19 19 18 18 18 18 18 17 17 17 17 17
17 17 17 17 17 18 19 19 19 18 17 17 16 15 14 13 13 15 17 18 18 17 18 19 21 23 24 25 23 22 21 20 19 19 19 19 18 17 17 17 17 16
16 16 17 17 18 20 21 20 20 20 19 19 18 18 17 15 14 15 18 20 20 20 19 20 21 22 24 25 24 22 21 20 19 19 18 18 18 17 17 16 16 15
17 17 18 19 20 22 23 23 21 22 21 20 20 21 20 18 17 18 19 21 23 22 21 20 20 21 22 23 22 21 20 19 19 18 18 18 18 17 16 16 16 16
19 19 20 20 22 24 26 25 24 23 23 23 23 23 23 21 19 19 20 21 22 22 21 20 20 20 20 20 20 19 19 18 18 18 18 18 17 17 17 17 17 17
23 22 21 21 22 25 28 29 29 26 25 24 25 25 23 21 21 20 20 21 21 21 20 20 19 19 20 20 19 19 18 18 18 18 18 18 18 18 18 18 18 18
26 24 23 24 25 26 28 30 31 31 28 25 25 25 23 22 22 21 20 19 19 20 20 20 20 20 20 20 20 19 19 19 19 19 19 19 19 19 19 20 20 20
26 24 24 26 29 30 29 29 32 36 34 29 26 25 23 22 21 20 19 18 18 19 20 21 21 21 22 22 22 22 22 22 21 21 21 21 21 21 22 22 22 22
25 23 22 23 26 29 29 28 31 34 35 34 31 27 23 22 21 19 18 16 16 17 18 20 22 22 23 24 24 25 24 24 24 24 24 23 23 24 24 24 24 24
24 22 19 17 18 20 20 20 21 21 23 27 27 23 21 20 20 19 17 15 14 16 17 19 21 23 24 25 26 26 26 26 26 25 25 25 25 25 26 26 26 26
21 20 18 18 18 16 15 15 14 13 14 17 19 18 18 19 19 19 18 16 16 17 19 21 23 24 25 26 26 27 27 27 27 27 27 27 27 27 28 28 28 28
20 20 19 18 17 16 15 13 14 14 14 14 15 15 16 17 18 19 20 19 18 19 20 22 24 25 26 26 26 26 27 27 28 29 29 29 29 30 30 30 29 29
18 18 18 17 17 17 15 14 16 16 14 13 14 15 16 17 18 19 21 20 20 20 20 22 24 26 27 27 27 27 27 28 29 29 30 31 31 31 31 31 31 31
17 16 17 18 17 16 15 14 16 17 16 16 16 18 21 20 20 21 23 22 22 21 22 24 24 26 28 29 29 29 29 29 29 29 30 31 31 32 32 33 33 34
18 17 18 18 16 16 17 17 18 18 17 18 19 21 24 24 23 24 25 26 26 26 26 27 27 28 29 30 31 32 31 31 31 31 32 33 34 34 34 35 36 38
20 19 20 19 18 18 20 21 22 21 21 22 23 24 26 27 27 28 29 30 31 31 31 31 30 31 32 33 34 35 35 35 35 36 36 37 36 36 36 38 41 43
22 22 22 22 22 22 22 23 25 25 25 26 27 27 27 29 31 32 33 34 35 35 35 34 34 34 35 36 36 37 38 38 39 40 41 40 40 40 41 43 45 47
23 23 23 23 23 24 25 27 28 29 30 31 31 31 30 30 32 34 36 36 37 37 37 37 38 38 39 40 40 40 40 41 42 43 44 45 46 47 48 49 49 50
24 25 25 26 27 28 29 30 30 31 32 33 34 35 34 34 36 38 38 37 37 37 38 40 42 43 44 44 44 44 44 45 46 47 48 50 52 53 54 54 53 53

ECMWFNIL_500_spd_057.txt.gz
Wind_Speed
26 25 24 23 22 21 21 20 20 21 22 22 23 23 23 21 20 18 16 16 16 17 18 17 15 14 14 14 14 14 15 15 13 11 10 10 11 11 11 11 11 11
24 23 22 21 20 20 20 20 21 22 22 22 22 22 20 19 17 16 14 15 16 17 17 16 15 14 13 13 13 13 14 14 14 12 12 12 13 13 12 12 12 11
21 21 20 20 19 20 20 21 22 23 22 21 21 19 18 17 15 14 13 14 15 16 16 16 14 13 13 12 12 13 13 13 13 13 13 13 13 13 13 12 12 12
20 20 20 20 19 21 22 22 23 23 21 20 19 18 16 16 16 15 15 15 16 16 16 16 14 12 11 11 12 12 13 13 12 12 12 13 13 13 13 13 12 12
18 18 19 19 19 21 20 21 22 21 20 21 20 18 16 17 17 17 17 17 16 16 17 16 14 11 10 9 11 12 12 12 12 12 12 12 13 13 13 13 12 12
17 16 17 18 19 18 17 18 18 17 19 22 22 19 18 18 18 18 17 17 17 16 16 17 15 13 11 10 10 11 12 12 12 12 13 13 14 14 14 13 13 13
15 14 16 17 16 14 14 15 15 15 18 21 21 19 19 18 16 15 15 15 15 15 16 17 17 16 15 13 13 13 12 12 13 14 14 15 15 15 15 14 14 14
16 15 16 16 15 15 14 15 15 16 18 19 19 18 17 16 14 13 13 13 13 14 15 16 17 18 17 16 15 15 15 14 15 15 16 16 17 16 16 16 15 16
17 17 17 17 17 17 16 16 17 17 18 19 19 18 17 16 15 14 13 13 13 13 14 15 17 17 17 17 16 16 17 17 17 17 18 18 18 18 18 17 17 17
17 18 18 18 17 17 17 17 18 19 20 20 21 20 19 17 17 16 16 15 14 14 14 15 17 17 17 16 17 17 18 19 19 20 20 20 20 20 19 19 19 18
17 18 19 18 18 18 18 19 20 21 21 22 23 22 21 20 19 18 17 17 16 15 16 17 18 19 20 19 18 18 19 20 20 20 21 21 21 20 20 20 20 19
20 20 19 18 18 18 19 21 23 23 23 24 24 23 22 21 21 19 18 18 17 17 17 19 20 21 22 22 20 19 19 20 20 20 21 21 21 20 20 20 20 20
23 22 21 19 19 20 20 21 23 24 25 25 25 24 22 21 21 20 20 20 19 19 19 20 21 22 22 22 20 19 20 20 19 19 20 20 20 20 20 20 21 21
23 23 22 21 21 21 20 20 21 24 26 26 26 25 24 22 21 21 20 21 20 20 20 20 21 22 22 21 20 20 20 20 19 19 19 19 19 19 20 20 21 22
23 24 25 24 24 23 22 21 21 22 25 26 26 28 28 26 25 23 21 21 21 20 20 20 20 21 21 20 20 20 20 20 20 19 19 19 19 19 20 21 22 23
24 25 25 25 25 25 23 22 22 24 25 25 25 28 30 30 30 28 25 23 23 21 19 18 18 18 18 19 19 20 20 20 20 20 20 20 20 20 21 22 23 24
23 24 25 26 26 25 23 24 28 31 30 28 29 31 32 32 32 34 31 26 23 22 19 17 16 15 15 17 19 20 21 21 21 21 22 22 22 22 23 24 26 27
23 23 23 25 25 24 25 28 30 30 27 26 28 30 30 31 33 37 34 27 23 22 19 17 16 15 15 16 19 21 22 22 23 23 24 24 24 25 26 27 29 30
22 21 21 23 24 25 26 25 23 20 19 19 20 21 22 24 28 31 28 24 23 22 20 19 18 17 17 19 21 23 24 25 25 25 25 26 26 27 29 30 31 32
20 21 21 22 23 24 24 22 19 18 18 18 18 18 18 19 22 24 23 22 22 22 21 22 22 21 21 21 22 24 25 26 27 27 27 28 28 30 31 32 34 34
21 22 22 21 21 22 22 20 18 18 17 17 17 18 17 18 20 21 22 22 21 21 22 24 24 24 24 23 23 24 25 26 27 28 29 30 30 31 33 34 36 37
23 23 23 22 21 21 20 19 18 17 15 15 16 17 18 18 20 20 21 21 21 22 23 24 26 27 27 26 26 25 26 26 28 29 31 32 32 33 34 35 37 38
23 23 23 23 23 22 20 19 18 17 16 15 16 18 19 20 21 21 22 22 23 24 25 26 27 28 29 30 30 29 29 29 30 31 32 33 34 35 36 37 38 39
24 24 24 24 23 22 20 20 19 19 18 18 19 20 20 21 22 22 23 24 26 27 28 28 28 30 32 34 35 35 35 34 34 34 34 35 36 37 38 39 40 41
26 25 24 24 24 23 22 22 21 21 21 21 22 22 22 24 25 26 27 29 30 31 30 29 29 31 34 36 38 39 39 39 39 39 39 39 39 40 41 42 44 45
28 26 25 25 25 25 25 24 23 23 23 24 25 25 26 27 28 29 31 32 33 32 31 30 31 33 35 37 38 40 41 42 43 43 43 43 43 45 46 46 47 48

ECMWFNIL_500_spd_060.txt.gz
Wind_Speed
28 25 23 23 22 21 19 19 20 20 19 19 19 18 17 17 18 19 19 20 20 21 20 19 19 19 19 18 17 17 17 16 16 16 16 15 13 11 9 8 9 9
28 24 20 21 21 19 19 19 20 20 21 21 20 18 18 18 19 19 20 20 21 20 19 19 19 19 19 19 18 17 16 16 15 15 15 15 14 12 10 9 9 10
26 22 18 19 19 19 19 19 20 21 22 22 20 18 18 19 19 19 19 19 19 18 18 18 18 19 19 19 18 17 16 15 14 14 15 15 15 13 11 10 10 11
25 20 16 16 18 19 19 20 20 21 21 20 19 18 18 18 18 17 17 17 17 17 16 17 18 19 19 19 18 17 15 14 13 13 14 14 15 13 12 11 11 12
26 20 14 14 17 19 19 20 20 20 19 19 19 19 19 18 17 16 16 16 16 16 16 17 18 18 18 18 17 16 14 13 12 12 13 13 13 13 12 12 12 13
27 21 13 12 15 18 19 19 19 18 19 20 20 19 19 18 17 16 16 16 16 16 17 17 18 18 18 18 17 15 13 12 11 11 11 12 12 12 12 13 14 14
28 23 16 14 16 17 17 17 17 17 19 20 20 19 20 19 18 17 16 16 17 17 17 18 18 19 19 19 18 16 14 12 11 11 11 11 12 12 13 14 14 15
26 23 19 17 17 16 16 16 15 16 17 18 18 19 20 21 19 17 16 16 16 16 16 17 18 19 19 19 18 17 15 14 13 12 12 11 11 12 13 14 15 15
23 22 20 19 19 17 16 17 16 16 17 18 18 19 20 20 18 16 16 15 14 14 14 15 16 18 19 19 18 17 16 15 15 15 15 14 14 14 14 15 16 17
24 22 22 22 21 19 19 19 17 17 18 19 19 20 21 20 17 16 16 15 14 13 13 14 16 18 19 19 18 17 16 15 15 15 16 16 16 16 16 17 18 18
26 24 24 23 22 21 20 19 18 18 18 20 22 23 23 21 18 17 17 16 16 15 15 15 16 18 19 20 19 18 16 15 15 16 17 17 17 18 18 19 20 20
24 24 23 22 21 21 20 19 18 18 20 22 23 24 24 21 19 19 19 19 18 17 17 17 18 19 20 21 21 20 19 18 17 18 19 19 19 19 19 20 21 21
23 24 22 20 19 20 19 18 18 18 20 22 23 24 24 22 21 21 22 21 20 19 19 19 20 21 22 22 22 22 21 20 19 19 20 20 20 20 20 21 22 22
23 24 24 21 19 19 19 18 18 18 20 21 23 24 24 24 23 23 23 23 22 21 21 21 21 21 21 21 22 21 21 19 19 19 20 20 20 20 21 22 22 22
22 25 25 24 21 21 21 20 19 19 19 19 21 23 25 25 25 25 25 25 24 22 21 21 21 21 20 20 20 20 18 17 18 19 19 20 20 21 21 21 21 22
22 24 26 25 24 24 24 24 23 21 20 20 20 22 24 26 27 28 28 28 27 25 23 21 21 21 21 21 20 19 17 16 17 19 20 20 21 22 22 22 21 22
22 23 25 25 25 25 26 26 24 23 23 23 23 23 24 25 27 28 29 31 31 30 27 24 23 23 22 21 21 19 17 16 17 19 21 22 22 23 23 23 23 23
24 24 25 26 26 26 27 27 25 25 27 27 27 27 26 26 28 29 30 32 32 31 30 27 27 27 24 22 21 20 18 18 19 20 22 24 25 26 26 26 26 26
26 25 26 26 26 26 27 27 27 29 31 32 31 31 30 29 31 33 35 36 34 32 31 30 31 31 27 23 22 21 21 21 22 23 24 26 28 29 29 29 29 29
26 27 27 26 27 27 27 28 30 32 34 35 35 33 30 27 27 29 32 34 35 34 34 34 34 32 27 24 24 24 24 24 24 25 26 27 29 30 31 31 32 32
26 26 26 26 26 28 28 29 30 31 32 31 28 26 24 22 22 22 24 27 30 33 34 32 30 29 26 25 25 25 25 25 25 26 27 28 29 30 31 31 32 33
25 24 24 23 24 25 26 26 27 28 29 27 24 21 21 21 21 22 22 23 25 27 28 27 26 26 25 25 25 26 26 26 26 26 27 28 29 29 30 31 32 33
24 24 24 23 23 24 24 24 25 26 26 25 23 22 22 22 22 22 21 21 22 24 25 25 25 25 25 25 25 26 27 27 28 29 29 29 30 30 31 32 33 33
24 24 24 24 24 24 24 24 25 25 25 24 24 23 23 23 22 22 21 21 23 24 25 25 26 25 25 25 26 27 28 29 31 32 32 32 33 33 34 35 36 36
25 25 24 23 23 23 24 25 26 26 25 24 24 24 23 23 24 24 24 24 24 25 25 25 26 26 27 28 29 30 31 32 33 34 35 36 37 38 38 39 40 41
26 25 24 23 23 24 25 26 26 25 24 24 24 25 25 25 26 27 26 25 25 25 25 25 27 29 30 31 33 34 35 36 36 37 37 38 39 39 39 40 42 44

ECMWFNIL_500_spd_063.txt.gz
Wind_Speed
20 20 22 24 25 23 21 18 15 15 15 15 14 14 14 15 16 16 16 16 16 16 16 17 17 16 16 17 17 17 16 16 16 17 17 18 18 18 17 15 12 12
20 20 21 24 25 24 21 17 16 16 16 16 16 16 16 16 17 16 16 16 17 17 18 18 18 17 17 17 17 16 16 16 16 17 17 17 17 17 17 15 13 13
21 20 20 23 26 24 21 18 17 17 17 17 17 17 17 18 17 17 17 17 18 18 18 18 18 18 18 17 16 16 16 16 16 16 17 17 16 16 15 15 15 14
20 19 19 22 24 23 19 18 18 19 18 18 17 17 18 19 18 18 18 18 18 19 18 18 18 18 17 16 16 16 16 16 16 16 17 16 15 14 14 15 15 15
19 18 19 19 20 19 16 16 18 19 18 18 18 18 18 18 18 18 18 18 18 18 18 17 17 17 16 16 16 16 16 16 15 16 16 15 14 14 14 15 15 16
19 19 20 18 19 18 15 15 18 19 20 19 19 18 17 18 19 18 18 18 18 17 17 17 17 17 17 16 16 16 15 15 15 15 14 14 14 14 14 15 15 16
20 20 20 20 21 19 15 16 19 20 21 20 19 18 18 19 19 19 19 18 18 17 17 17 18 18 18 17 17 16 16 15 14 13 13 12 13 13 14 15 15 15
21 21 20 21 24 22 16 16 19 21 21 20 19 20 20 21 21 20 19 18 18 17 17 18 19 19 19 19 18 17 17 17 15 14 13 12 12 13 12 13 14 15
21 21 20 21 25 23 16 16 19 20 20 19 19 19 20 21 21 19 19 19 19 18 18 19 19 19 19 19 18 18 18 18 18 16 16 15 14 14 13 13 14 14
18 19 19 20 24 23 18 17 19 19 18 18 18 18 18 20 20 19 19 19 20 20 19 19 17 16 17 17 17 18 18 18 19 18 18 17 17 16 16 16 16 16
17 17 18 20 23 23 21 20 21 20 18 19 18 18 19 20 19 19 20 20 20 20 20 18 16 15 14 15 15 16 18 19 19 19 18 18 17 18 18 18 19 19
17 16 18 21 23 23 22 22 22 22 21 21 20 20 20 21 21 21 21 21 21 21 20 19 18 16 15 15 15 16 17 18 19 20 19 18 18 18 18 19 20 21
20 19 21 23 24 23 22 22 23 23 23 22 21 21 21 22 23 23 23 22 22 22 21 20 19 18 17 17 17 17 18 19 20 21 21 21 20 20 20 21 21 22
22 22 23 23 23 23 22 22 22 22 22 21 21 21 22 23 24 24 23 23 23 23 22 22 21 20 19 19 19 20 20 21 21 22 23 23 24 23 23 23 23 23
22 22 23 23 22 23 23 21 21 21 21 20 20 21 22 23 23 23 23 23 24 24 24 23 22 22 21 21 21 21 21 21 22 23 24 25 26 26 25 25 25 25
22 22 23 24 23 24 24 22 20 21 21 20 20 21 22 22 23 23 23 24 24 24 24 24 24 25 24 22 21 21 21 21 22 24 25 26 27 27 27 27 26 25
24 23 23 23 23 24 25 24 22 22 22 21 21 21 21 21 23 23 23 24 24 24 24 25 26 27 26 24 23 23 22 22 23 24 25 27 28 28 27 26 25 24
24 22 22 23 22 22 23 24 23 23 23 23 23 22 22 22 23 23 23 24 23 23 25 27 28 29 29 29 29 27 26 25 25 25 26 28 28 27 26 25 25 24
24 22 21 22 21 20 22 24 24 24 24 25 25 24 24 24 24 25 25 25 24 24 26 27 29 30 31 31 31 30 29 29 28 27 27 27 27 27 26 26 25 25
24 23 22 23 23 22 23 24 25 25 26 27 27 26 26 26 27 28 28 28 27 28 29 31 32 34 34 34 32 30 31 33 31 28 27 27 27 26 26 26 26 26
25 23 23 23 24 23 23 24 25 26 26 28 28 29 29 29 29 30 31 32 32 32 33 34 34 35 36 37 35 33 34 36 33 30 28 27 26 26 26 27 27 27
28 27 26 26 26 25 25 25 26 27 28 29 31 33 33 32 30 30 30 31 32 32 31 31 30 31 33 35 36 36 36 35 33 31 29 28 27 26 27 28 29 29
31 30 29 28 28 27 27 28 28 29 30 31 32 32 31 30 28 26 25 25 26 27 27 27 27 27 28 30 34 35 32 30 30 30 29 27 27 27 28 29 28 29
31 29 27 26 26 26 27 28 28 28 30 29 28 26 25 25 25 24 24 24 24 25 26 26 26 25 25 27 29 28 27 27 28 28 27 27 27 27 28 29 30 30
27 25 24 25 25 26 27 26 26 26 27 27 26 25 24 24 24 24 24 24 25 26 26 26 25 24 25 26 27 26 25 26 27 27 27 28 29 29 30 31 33 34
23 23 24 25 25 26 26 26 27 28 28 27 26 25 25 24 24 24 24 24 25 25 26 26 25 25 25 26 27 26 26 27 27 28 29 30 31 31 33 34 36 37

ECMWFNIL_500_spd_069.txt.gz
Wind_Speed
17 18 17 17 17 17 18 18 19 21 23 22 21 20 16 15 17 19 20 21 20 19 18 16 16 15 15 16 16 16 15 14 13 11 10 10 10 10 10 10 10 11
18 19 19 19 18 17 17 17 18 19 21 22 22 20 16 15 18 20 21 22 21 20 18 17 17 16 16 16 17 16 16 15 14 12 12 11 11 11 11 11 11 12
19 19 18 19 19 18 17 17 17 17 19 22 23 20 17 16 19 21 22 22 22 21 20 19 18 17 16 17 17 17 17 16 14 13 13 12 12 12 11 11 11 12
18 17 16 17 18 18 18 18 17 16 17 21 23 21 17 17 20 22 23 24 23 22 20 19 19 18 17 17 17 17 17 16 15 14 14 13 13 13 12 12 12 12
15 15 15 15 16 18 19 18 17 17 18 21 23 22 19 19 21 23 25 25 23 21 20 19 18 18 18 18 17 17 17 16 16 15 15 14 13 13 12 12 12 12
14 15 14 14 15 17 18 18 17 17 19 22 23 22 21 20 22 25 27 25 23 21 20 19 18 18 19 18 18 18 18 17 16 16 15 13 13 13 13 12 12 12
17 18 16 15 15 17 18 18 16 17 19 22 24 23 22 22 23 26 27 26 24 22 20 19 19 19 19 19 19 19 18 17 16 15 14 13 13 13 13 13 13 13
20 20 18 16 15 16 18 17 16 16 18 22 24 23 23 23 24 26 27 26 24 22 21 20 19 19 19 19 19 19 18 16 15 14 14 14 14 14 14 14 14 14
22 23 20 17 15 16 18 17 16 15 17 21 24 24 24 24 24 26 26 26 24 22 21 20 19 19 19 19 20 19 17 16 16 15 15 15 16 16 16 15 14 14
21 23 21 18 15 16 17 17 16 16 18 22 24 24 24 23 24 26 26 26 24 22 20 20 20 19 19 19 19 18 17 16 17 17 17 17 17 18 18 17 16 16
20 23 21 19 17 17 17 16 15 17 20 22 22 22 23 24 25 27 26 26 24 22 21 21 20 19 19 19 19 18 17 17 18 18 18 18 19 19 19 19 19 18
20 22 19 18 18 18 17 15 14 17 21 23 23 22 23 25 26 26 26 25 24 22 22 21 19 19 20 20 19 18 17 17 18 18 18 18 18 18 18 19 19 18
19 20 18 16 17 18 18 16 15 18 21 23 23 22 22 23 24 25 24 24 23 21 21 21 20 20 21 21 20 19 18 18 17 18 18 17 17 16 17 17 18 18
18 18 18 17 16 17 18 17 17 19 21 23 23 22 21 21 22 23 23 22 21 20 21 21 21 21 21 21 21 20 20 19 18 17 17 17 17 16 16 17 18 19
19 20 20 19 16 17 18 18 18 20 22 24 23 21 19 19 20 20 20 20 20 20 21 21 22 22 21 21 21 21 20 20 19 18 18 18 19 18 18 19 20 21
20 21 20 19 18 19 20 18 18 22 25 25 23 21 19 19 19 19 19 19 21 21 21 20 21 21 21 21 21 21 21 21 21 21 20 20 21 21 21 22 22 22
20 21 21 20 20 21 21 19 20 24 25 23 21 20 19 20 20 20 21 22 23 23 22 20 20 21 21 22 22 22 22 23 23 23 23 23 23 23 22 22 21 20
20 20 20 20 21 21 20 19 21 24 21 18 18 18 18 20 22 22 24 25 25 25 23 21 20 20 21 22 22 22 23 24 25 25 25 25 25 24 23 21 20 20
19 18 18 19 21 21 19 19 22 22 18 17 17 18 20 23 25 26 26 25 25 24 22 21 20 20 21 22 23 23 24 25 25 25 25 26 26 25 25 24 24 24
19 18 18 19 20 20 19 21 23 21 19 19 20 22 24 27 27 26 24 23 23 23 21 20 20 20 21 22 23 24 25 26 26 26 25 26 26 27 27 27 27 26
18 18 18 18 19 20 21 23 23 21 20 20 22 24 25 26 25 24 23 23 24 23 21 21 21 22 23 23 24 24 24 25 25 26 26 26 27 28 29 29 29 29
15 17 19 19 20 22 24 24 22 21 20 20 22 23 23 24 24 24 24 23 23 23 23 23 24 24 25 25 26 26 25 25 25 27 28 29 30 31 32 32 32 32
14 15 17 20 22 24 25 24 23 22 20 20 21 22 22 23 25 25 24 23 23 23 23 23 24 25 26 27 28 29 29 29 29 29 30 32 34 35 34 35 34 33
15 15 16 18 21 23 23 23 22 22 21 22 24 25 24 23 25 26 25 23 23 23 22 22 23 24 25 27 29 30 31 31 31 32 32 34 35 35 34 34 33 32
16 16 16 18 20 21 23 23 23 23 25 28 30 30 28 25 25 25 24 24 24 24 24 24 24 24 24 25 26 27 28 29 30 30 31 31 32 32 31 29 28 29
16 16 19 22 24 26 27 27 27 28 30 31 31 31 31 29 27 25 24 24 25 26 27 27 26 25 24 23 24 24 25 26 26 27 27 28 28 28 27 25 25 26

ECMWFNIL_500_spd_072.txt.gz
Wind_Speed
18 18 16 15 15 16 17 18 19 22 24 24 24 22 21 22 21 21 20 19 19 19 19 20 21 21 20 20 20 20 19 19 19 19 18 17 15 15 15 14 14 14
23 22 21 19 17 17 18 19 20 22 24 25 25 23 22 21 21 21 21 20 19 19 19 20 22 22 22 21 20 20 20 20 20 19 18 17 16 16 15 16 16 15
25 26 25 23 21 21 21 22 22 23 24 24 24 24 23 22 22 22 21 20 19 19 21 22 23 23 22 21 21 21 21 21 21 20 19 18 17 16 16 17 16 15
24 24 23 23 23 24 25 25 24 23 23 23 23 24 24 24 24 22 20 20 19 20 23 24 23 23 22 21 21 21 21 22 22 21 20 19 18 17 17 18 17 15
22 22 21 22 24 25 25 26 25 23 23 23 22 23 25 27 26 22 21 21 20 21 23 24 23 23 22 21 22 22 22 23 22 21 20 20 19 18 18 17 16 16
21 21 21 21 22 23 23 23 24 24 24 23 22 24 27 29 27 23 22 21 20 21 23 24 24 24 23 22 22 23 23 23 23 22 21 20 19 18 18 17 16 16
18 19 20 21 20 20 20 19 20 23 24 23 23 25 28 29 27 23 22 21 20 21 24 24 24 24 23 23 23 23 24 23 23 22 21 20 18 17 17 16 16 16
16 18 19 20 20 20 19 18 18 20 23 25 25 25 27 29 27 23 21 21 21 23 25 25 24 24 24 24 24 24 24 23 23 22 21 20 18 17 17 16 16 16
19 20 20 21 22 22 20 18 17 20 24 26 26 25 27 29 27 24 23 22 22 24 26 25 25 24 24 24 24 23 23 24 24 23 21 20 18 18 17 16 16 16
21 22 22 22 23 24 23 19 19 22 25 26 26 25 26 28 27 25 24 23 23 24 25 25 25 25 24 24 24 23 24 24 24 22 21 20 19 19 18 17 17 17
21 22 23 23 24 25 25 21 21 23 26 27 26 25 25 27 27 26 24 24 24 24 24 24 23 24 24 24 24 23 24 24 23 22 21 21 20 19 19 18 18 18
20 21 23 24 24 24 25 24 23 25 27 28 27 25 26 28 28 26 25 25 25 25 24 22 22 24 25 25 24 24 24 24 22 22 22 21 20 20 20 19 19 19
19 21 22 24 23 23 24 25 25 26 29 28 27 26 28 30 30 29 27 25 25 25 23 23 24 25 25 25 24 24 24 23 23 22 22 21 20 20 19 18 19 19
19 22 21 22 23 24 24 25 27 28 29 28 27 27 28 29 30 28 26 25 24 24 24 24 25 25 25 25 25 24 24 24 23 23 22 21 20 19 18 17 18 19
18 19 20 22 25 26 23 24 26 27 27 26 27 29 29 27 26 25 24 24 24 25 25 25 24 24 25 25 25 25 25 24 24 23 22 20 20 19 18 17 19 20
18 18 19 21 24 26 23 23 26 28 28 26 27 28 28 25 25 25 24 25 26 26 25 24 24 24 25 25 25 25 25 24 24 23 22 21 21 20 19 19 19 19
20 19 19 20 23 25 23 23 28 30 28 26 26 27 26 26 27 26 25 26 26 25 25 24 24 24 24 25 25 25 24 24 24 23 22 23 22 21 20 20 19 19
20 19 19 20 23 25 23 24 28 30 26 25 25 25 26 28 28 25 24 25 25 25 25 25 25 25 25 24 24 25 25 24 24 24 24 24 23 22 22 22 21 21
18 18 19 20 23 24 23 24 27 28 26 25 24 26 29 29 26 23 23 24 25 27 27 27 27 27 25 24 24 25 25 25 25 25 25 25 25 24 25 25 24 23
16 18 20 21 23 24 24 25 27 29 27 25 25 28 30 27 24 23 24 25 27 29 30 30 29 27 25 24 24 25 25 26 26 26 26 26 26 26 26 26 26 25
15 17 19 22 23 23 24 26 27 29 28 27 27 29 27 24 23 24 25 26 29 31 31 31 29 26 25 25 25 25 25 26 26 26 27 27 28 28 27 26 26 26
15 18 19 21 22 22 25 28 30 33 30 27 29 30 26 24 25 26 27 28 30 31 31 30 29 28 27 26 26 26 25 25 26 26 27 27 28 28 27 26 26 26
17 18 18 20 21 21 25 29 32 33 31 29 31 29 25 24 25 26 28 29 30 31 30 30 30 29 28 27 26 26 25 25 26 27 27 28 28 28 28 28 29 30
17 20 19 19 21 21 24 28 30 30 31 32 31 27 25 25 26 27 28 28 29 30 30 30 30 29 29 28 27 26 26 27 28 28 28 28 29 29 31 31 32 33
15 20 22 22 24 24 26 27 28 29 31 31 29 27 27 28 27 28 28 28 29 30 30 30 30 29 28 27 26 26 26 27 27 27 27 29 30 31 32 32 32 32
13 13 17 21 24 24 26 26 27 29 31 30 28 28 29 30 30 30 29 29 30 32 32 31 29 28 27 25 25 27 27 27 26 25 26 29 30 30 31 32 32 32

ECMWFNIL_500_spd_075.txt.gz
Wind_Speed
21 21 21 22 21 19 19 21 21 22 23 24 24 24 23 24 24 25 26 26 25 24 23 22 22 23 22 22 21 22 22 23 23 23 23 23 22 22 21 20 19 18
23 24 24 23 23 20 19 20 21 22 23 24 24 24 24 25 26 26 26 26 26 25 24 24 24 24 23 22 22 22 22 23 23 23 23 22 22 22 21 20 19 18
23 25 26 25 23 20 19 19 20 22 23 23 23 23 24 26 27 27 27 27 27 27 25 25 25 25 24 23 22 22 22 22 22 22 22 22 22 22 21 20 19 19
22 24 27 26 23 21 21 21 22 23 23 23 22 22 25 27 27 28 28 28 28 27 26 27 27 26 24 23 22 22 22 22 22 21 22 22 22 22 21 20 20 19
21 24 27 28 26 26 26 26 26 25 24 25 24 24 27 29 28 29 30 29 29 28 28 28 27 25 23 23 23 22 21 21 21 21 22 22 23 22 22 21 20 20
20 23 26 29 30 30 30 31 31 28 26 25 25 25 27 28 28 28 30 30 29 29 29 28 26 24 22 23 23 22 21 21 21 21 22 23 23 23 22 22 21 21
22 24 26 28 29 31 32 32 32 29 26 26 26 26 27 27 27 27 28 29 28 29 29 28 25 23 22 23 23 21 21 21 21 21 22 23 23 24 23 23 22 21
22 23 25 26 26 28 29 28 28 27 26 26 27 27 28 28 27 27 27 27 27 29 30 28 25 24 23 23 23 22 21 21 21 21 22 22 23 24 24 24 23 22
22 22 22 22 22 23 24 25 26 25 25 26 27 27 27 27 27 27 27 26 27 28 29 28 25 24 23 24 23 23 22 22 21 21 21 22 23 23 24 24 23 22
21 21 20 20 21 22 23 24 26 25 25 25 26 26 25 26 27 27 26 26 28 29 27 25 24 23 23 24 24 24 23 22 22 21 21 22 22 23 23 23 23 22
21 22 21 22 25 25 24 24 26 26 26 26 26 26 25 26 27 26 26 27 30 30 28 26 24 24 24 25 25 25 24 23 22 21 21 21 23 23 23 23 22 21
23 24 23 23 26 27 27 28 27 27 27 28 28 27 26 27 27 27 28 29 30 31 30 29 27 26 26 27 27 26 25 23 21 20 21 22 23 24 23 22 22 21
22 23 24 24 25 27 28 29 28 28 29 31 31 29 27 28 28 27 27 29 31 31 31 30 30 28 27 27 27 26 24 22 21 21 22 23 24 23 22 22 22 22
22 21 22 24 25 26 27 27 28 29 31 32 32 29 28 28 27 26 27 29 31 31 31 31 30 28 26 26 26 25 23 22 22 22 23 23 23 23 22 23 23 24
21 20 22 24 25 25 25 26 27 30 31 32 32 30 28 26 26 27 28 30 32 31 31 29 28 26 26 26 25 25 23 23 23 23 23 23 23 23 23 23 24 24
20 20 22 24 25 25 24 24 27 29 29 31 31 31 29 25 25 27 29 31 33 33 31 28 27 26 25 25 26 25 24 23 24 24 24 24 24 24 23 23 23 23
20 21 22 23 24 25 25 24 25 26 28 30 31 32 30 25 23 26 28 30 32 31 29 28 27 27 26 26 27 25 24 24 25 26 25 24 25 25 24 23 23 23
21 22 23 23 24 26 25 25 24 24 27 30 30 31 32 27 23 25 27 28 29 27 27 28 28 28 28 28 27 26 25 25 26 26 25 24 25 26 25 24 23 24
22 23 24 24 25 25 25 25 24 24 27 30 28 30 34 30 25 25 26 27 27 26 27 29 29 29 29 29 28 27 26 25 25 25 25 25 25 25 25 25 25 26
23 23 23 24 24 24 24 24 24 25 28 30 28 30 36 34 28 26 26 26 27 28 28 29 29 29 30 30 29 26 25 24 24 24 25 26 27 26 26 26 27 27
24 23 23 23 22 22 23 24 24 26 28 28 28 32 38 37 30 26 25 26 28 30 30 28 29 29 29 29 28 26 24 24 24 24 25 27 28 28 28 28 28 28
23 23 23 22 22 20 21 22 24 25 27 28 28 32 38 38 31 26 25 27 30 32 30 28 28 29 29 29 28 27 26 24 25 26 26 26 27 28 28 29 29 29
21 20 19 20 21 19 20 22 23 24 28 31 30 31 36 40 34 27 26 29 33 33 30 29 29 29 29 30 31 30 29 27 26 26 27 26 27 27 28 28 28 29
19 17 17 19 21 21 23 25 25 25 28 32 32 32 38 43 38 30 28 32 34 32 30 30 30 29 29 30 31 32 31 29 27 27 27 27 26 27 28 29 29 30
19 18 20 21 19 22 25 26 27 29 31 33 35 37 42 44 38 32 32 33 32 30 30 30 30 30 30 31 32 32 32 31 29 29 28 27 27 28 29 29 30 30
20 20 21 23 20 18 23 26 29 32 35 37 38 40 43 41 34 31 34 34 31 29 29 29 30 31 32 32 33 33 33 32 31 31 30 28 27 29 28 28 30 31

ECMWFNIL_500_spd_078.txt.gz
Wind_Speed
24 23 22 23 24 24 24 25 25 24 23 26 29 29 27 24 23 24 25 26 28 28 27 26 25 24 24 24 24 23 22 22 22 22 22 21 21 20 19 19 19 19
25 23 22 23 25 25 24 24 25 26 26 27 29 29 26 23 22 23 25 26 27 27 27 27 26 25 26 25 24 23 22 22 22 22 22 22 21 20 20 20 20 19
23 22 22 23 25 26 26 27 27 27 26 26 27 28 27 25 24 25 25 25 26 26 26 27 27 27 26 26 24 24 23 22 22 22 22 21 21 21 21 21 21 20
23 22 23 24 24 26 28 29 30 29 27 26 26 26 27 26 26 27 27 26 26 27 27 28 28 28 28 27 26 25 24 23 23 22 22 22 21 21 21 21 21 21
25 23 24 25 25 27 28 28 29 29 29 28 27 26 26 26 27 28 29 28 28 29 29 29 29 30 30 29 28 27 25 24 24 23 22 22 21 21 21 21 21 21
25 24 25 27 28 28 27 26 27 28 28 28 27 26 26 27 27 28 28 28 29 29 29 29 30 31 30 30 29 27 25 24 24 23 22 22 20 20 20 21 21 21
26 25 24 26 28 27 26 27 27 28 28 29 28 27 27 27 26 26 27 27 28 28 28 29 30 30 30 30 30 27 25 25 24 23 22 21 20 19 20 20 21 22
27 27 24 23 25 26 27 29 30 30 30 31 31 31 30 28 27 26 26 27 28 28 28 28 29 30 30 30 29 26 25 24 24 24 22 21 20 20 20 20 21 22
27 27 24 22 24 26 27 29 31 31 30 30 31 32 32 30 27 25 25 26 26 26 26 27 28 29 30 30 28 27 26 25 25 24 23 21 21 20 20 21 21 22
25 25 24 23 23 24 24 26 28 28 28 27 29 30 30 29 26 23 23 24 25 25 26 26 27 28 29 29 28 27 27 26 26 25 24 22 21 21 21 21 22 22
20 21 23 24 23 23 24 25 25 27 26 25 25 26 27 26 24 21 20 22 24 26 26 26 26 27 29 29 28 28 28 27 26 25 24 23 22 22 22 22 22 22
16 18 22 25 25 25 26 25 25 26 25 23 23 24 26 25 24 22 20 22 25 27 27 26 25 27 29 28 27 27 27 27 26 25 24 24 23 23 23 23 23 23
14 16 20 23 25 26 26 26 26 26 26 25 25 25 25 25 25 23 22 22 24 27 28 27 26 28 30 28 27 27 27 27 26 26 25 25 25 24 24 24 23 23
15 17 19 21 22 22 22 25 27 27 27 28 27 27 26 26 25 25 24 23 24 26 28 28 28 29 30 29 28 29 28 27 27 27 27 27 27 25 24 23 23 23
18 19 20 21 22 21 21 24 26 27 27 28 28 28 28 28 27 27 27 25 25 26 28 29 30 30 30 30 31 32 31 28 28 28 28 28 28 26 24 23 23 23
20 22 22 22 23 22 22 23 23 25 27 28 28 28 28 29 29 29 28 27 26 27 30 31 31 30 30 30 32 32 30 27 28 29 29 29 28 25 24 23 23 24
21 22 23 23 24 24 24 24 24 24 25 26 27 27 28 29 30 29 28 27 27 28 30 31 30 29 29 29 30 28 27 27 29 29 29 29 27 25 24 23 23 24
20 22 23 23 24 25 25 26 25 24 24 25 26 26 27 28 30 29 27 29 29 29 30 31 29 28 29 29 29 28 27 28 30 30 29 28 27 25 24 24 24 25
21 22 22 23 24 25 26 26 26 26 25 26 26 26 26 28 31 30 29 30 30 29 29 29 28 28 28 29 30 29 29 30 31 30 29 28 27 26 26 26 26 25
24 23 23 23 24 25 25 26 26 27 26 27 27 26 26 28 30 31 30 31 32 30 27 27 28 29 29 30 31 30 29 31 31 30 29 28 27 27 27 28 27 26
26 25 24 23 23 24 24 23 24 25 26 27 26 26 26 27 29 31 32 34 35 32 27 25 27 30 30 30 30 30 30 31 32 31 30 28 27 27 27 28 28 27
26 26 25 23 22 23 23 22 23 23 24 25 25 26 26 27 30 33 33 35 38 35 28 25 27 30 30 29 28 29 31 32 33 32 30 28 27 26 26 27 27 27
24 25 25 23 22 23 23 22 20 20 21 22 23 25 26 28 31 33 33 35 40 39 29 24 27 31 31 29 29 30 32 33 34 33 30 28 27 27 27 27 27 28
23 24 25 24 23 23 23 21 19 20 22 23 23 25 28 30 32 32 32 34 40 41 34 27 27 31 32 31 31 32 33 33 34 33 31 30 29 29 29 29 28 29
23 24 25 24 23 24 23 22 23 23 24 26 29 30 31 32 34 34 33 34 38 41 38 33 30 32 33 33 33 34 33 33 34 34 33 32 32 32 31 30 30 30
25 24 25 25 24 25 24 23 24 25 23 23 29 33 32 33 38 40 39 39 40 43 43 38 33 31 33 35 35 35 34 34 34 33 33 34 33 32 31 31 31 31

ECMWFNIL_500_spd_081.txt.gz
Wind_Speed
25 25 24 23 23 25 25 24 22 23 25 27 30 31 30 28 27 25 25 26 26 25 24 24 25 24 23 23 23 23 23 23 23 22 22 21 21 22 23 23 22 20
28 27 25 25 25 26 28 27 24 24 26 26 28 30 29 27 26 25 25 26 26 25 24 25 25 25 24 24 23 23 23 23 23 23 22 22 22 23 23 23 22 20
28 29 28 27 26 27 29 29 27 25 25 26 27 29 28 26 26 26 26 26 26 25 25 26 27 27 27 26 25 25 24 24 24 24 23 23 24 24 23 22 22 21
29 31 32 31 29 29 30 30 28 26 25 26 27 29 28 27 27 27 26 25 26 26 26 27 27 28 27 27 26 26 25 24 25 25 25 25 24 24 23 22 21 21
30 32 34 33 30 29 30 30 29 27 26 26 28 28 28 27 27 28 28 27 26 26 27 26 26 26 26 26 26 26 26 26 26 27 27 26 25 24 23 23 22 21
31 32 33 32 28 26 28 30 30 29 28 28 29 29 29 27 26 28 28 28 28 27 27 26 25 25 24 26 26 26 27 27 28 29 28 27 26 25 24 23 22 22
30 31 31 30 28 27 28 29 30 30 30 29 28 29 30 28 27 27 28 28 29 29 28 27 27 26 26 26 27 27 28 28 29 30 29 27 27 26 25 24 23 22
26 29 29 28 27 29 30 29 29 31 31 29 28 27 29 29 28 28 27 27 28 28 28 28 28 28 28 27 28 28 29 29 30 30 29 28 27 27 27 25 24 23
23 25 27 26 25 27 28 27 28 30 31 30 29 28 29 29 29 28 26 26 28 27 27 27 28 28 28 28 28 29 29 30 31 30 30 28 28 28 27 26 24 23
20 22 25 25 24 24 24 24 25 29 29 29 29 30 29 29 29 29 27 26 27 29 29 29 29 28 27 28 29 29 30 30 31 30 29 28 28 28 27 26 25 24
15 19 24 24 22 21 21 21 22 24 26 27 28 29 30 30 29 30 30 27 27 28 31 31 30 29 27 28 29 30 30 31 31 30 29 28 28 28 28 27 26 25
11 13 18 20 19 18 19 19 19 21 23 25 27 28 29 29 29 29 30 30 27 27 29 30 29 28 28 28 29 30 31 32 30 29 29 29 28 28 28 28 27 25
13 9 10 12 13 14 15 17 19 21 23 24 26 26 27 28 28 27 28 29 28 27 27 28 27 28 29 30 31 31 32 31 30 29 29 29 28 28 28 28 27 26
15 13 11 10 11 12 14 15 17 19 22 24 25 25 26 27 28 27 27 27 28 27 27 26 26 28 29 31 32 32 31 30 29 29 29 28 27 28 28 28 27 26
16 16 15 14 13 14 15 17 18 18 19 21 23 25 27 28 29 29 29 28 28 28 27 26 26 27 28 30 31 32 31 29 29 29 29 28 27 27 28 29 28 27
19 18 18 18 18 17 18 18 20 21 21 21 21 23 26 28 29 30 30 30 29 29 28 28 28 28 28 29 31 32 30 29 30 30 30 30 31 30 29 30 29 28
19 19 19 20 20 21 20 20 21 22 23 24 23 23 25 27 28 29 29 30 31 31 31 30 30 31 30 30 31 31 30 30 30 30 30 33 34 32 30 29 29 29
19 19 19 19 20 21 22 22 22 23 24 26 27 27 27 27 28 29 29 29 30 32 33 32 31 32 32 31 31 30 30 32 32 32 32 33 32 30 28 28 29 29
20 20 19 19 20 21 22 23 23 24 24 25 27 29 28 28 28 29 29 28 29 31 33 33 32 33 33 32 30 30 30 32 33 33 32 30 28 27 27 28 29 29
23 22 21 20 20 21 22 23 24 25 25 25 27 29 28 28 28 28 28 29 29 30 34 35 33 34 35 32 30 30 29 30 32 33 33 29 27 27 28 30 30 28
25 24 23 22 22 21 21 22 24 25 25 24 26 28 27 27 28 29 28 29 29 29 34 37 34 33 36 34 31 30 30 29 31 33 33 31 28 27 29 30 29 28
25 25 25 24 23 23 22 22 23 24 24 24 25 26 26 25 27 29 29 29 29 29 34 38 35 34 36 34 32 31 31 30 31 32 32 32 30 29 30 30 29 29
25 25 25 26 26 25 24 23 23 23 24 24 24 24 24 24 27 28 29 30 28 28 34 40 37 35 37 36 33 32 32 32 33 32 33 33 31 30 30 31 31 30
26 25 26 26 27 27 26 25 24 24 24 24 24 24 23 23 24 25 28 29 28 30 36 40 38 37 39 38 36 34 33 34 35 35 35 34 33 32 32 32 33 32
27 26 26 26 27 28 28 27 26 26 25 24 24 25 24 23 23 25 29 30 30 35 41 42 40 39 40 41 40 37 34 35 36 36 36 35 33 33 34 34 33 32
30 29 29 28 28 29 30 29 28 27 26 25 25 26 25 24 23 26 31 33 34 38 45 47 43 38 37 41 43 39 35 35 36 36 35 34 33 32 32 33 33 32

ECMWFNIL_500_spd_087.txt.gz
Wind_Speed
33 34 35 36 37 37 37 37 36 34 31 29 31 33 32 32 30 26 24 25 27 27 25 24 24 23 23 24 24 25 25 23 22 23 23 23 23 25 25 23 23 22
33 35 36 38 38 38 36 36 36 35 33 30 29 31 32 31 31 30 27 24 25 26 25 26 26 25 25 25 24 26 26 24 23 23 24 24 23 24 24 23 23 22
35 36 37 38 38 38 36 35 35 33 33 33 30 30 32 30 29 29 29 27 25 26 25 25 26 28 28 27 27 26 26 26 25 24 25 24 24 25 25 24 24 22
36 36 36 37 37 38 36 35 35 34 34 34 31 29 30 30 28 27 27 28 28 28 27 25 27 30 30 29 28 26 27 28 27 26 26 24 24 25 25 24 24 22
34 34 35 35 36 37 37 36 36 35 34 33 31 30 30 28 27 26 26 27 29 29 28 26 27 29 30 29 27 26 28 28 27 26 26 25 24 25 25 25 24 23
32 32 33 34 35 37 38 38 37 36 34 34 32 30 28 27 27 27 26 26 28 29 28 26 27 28 29 28 27 27 29 29 27 27 26 25 25 25 25 25 25 24
29 31 32 33 35 37 38 38 37 35 33 34 33 28 26 26 27 27 27 27 28 30 29 27 27 28 28 28 27 28 29 29 28 27 26 26 26 26 27 28 27 26
28 29 30 32 33 35 36 35 34 33 32 32 32 29 28 28 27 26 28 28 29 30 31 29 28 29 29 28 28 29 29 29 29 29 28 28 28 27 28 29 28 27
27 27 28 30 31 32 33 32 31 31 30 29 30 29 30 30 27 26 27 30 30 30 33 33 31 29 30 30 29 29 29 29 30 30 29 29 29 29 29 30 28 28
26 26 27 27 27 28 30 30 29 28 27 27 27 26 28 30 28 26 26 29 30 30 30 31 32 31 31 31 30 29 29 30 29 29 30 31 30 29 29 29 28 28
26 26 26 26 25 25 25 26 27 27 25 24 24 24 26 27 27 26 27 28 30 31 30 29 29 31 31 31 31 29 29 30 30 29 30 30 30 29 28 29 29 29
25 26 26 26 25 23 22 23 24 24 23 20 20 22 24 26 27 27 28 28 28 31 31 28 27 28 29 30 31 29 29 30 31 30 30 29 29 28 27 29 31 31
25 26 26 26 25 24 22 21 21 22 21 18 15 15 18 21 24 25 25 27 29 30 31 30 27 27 29 31 32 30 30 32 32 31 30 30 30 28 28 31 32 32
25 25 25 25 25 25 23 22 21 20 20 19 17 14 13 14 18 20 19 21 26 29 31 32 30 28 27 29 32 32 31 32 33 31 30 32 33 31 32 33 32 32
24 24 24 24 24 24 23 22 22 21 20 20 19 17 16 15 15 16 15 16 20 25 29 32 32 31 28 28 30 32 33 34 34 32 31 32 35 35 34 33 32 32
23 23 23 23 23 24 23 22 22 22 22 21 20 19 19 18 17 17 16 16 17 21 26 29 31 31 30 29 30 31 33 34 35 35 33 31 33 35 34 32 32 33
23 22 22 22 23 24 24 23 22 22 22 22 21 21 21 20 20 19 18 18 18 20 23 26 28 29 29 30 31 31 32 33 33 35 34 32 33 34 33 32 32 33
24 24 23 24 24 25 25 25 24 22 22 22 23 23 23 23 22 22 21 21 21 22 23 24 27 28 27 29 30 31 32 32 32 33 34 34 33 31 30 31 32 33
27 27 27 27 27 27 27 27 26 24 23 23 23 24 24 24 24 24 24 24 24 25 24 25 27 27 26 28 29 30 31 32 32 32 33 33 32 32 33 34 34 35
30 30 30 30 30 29 29 28 28 26 25 24 24 25 25 25 25 25 25 25 25 26 26 26 28 27 27 28 28 28 29 31 33 33 33 33 33 34 37 37 35 36
32 32 31 31 31 30 30 30 29 28 27 26 26 26 26 26 26 26 26 26 26 27 27 27 28 28 28 28 28 28 28 29 32 35 35 36 35 35 36 35 35 36
33 32 31 31 31 31 30 30 30 30 29 29 28 28 28 28 28 27 27 27 27 27 27 27 27 28 29 29 28 28 28 28 31 35 36 36 36 38 38 37 37 36
34 33 33 32 32 32 32 31 31 31 31 31 30 29 29 29 29 29 28 28 28 28 28 28 28 27 29 30 29 28 28 29 31 34 35 34 36 40 42 42 40 37
37 36 36 36 35 34 34 34 33 33 33 33 33 32 31 30 30 30 30 29 29 29 28 29 29 29 29 30 30 29 28 29 31 33 34 35 38 42 43 42 41 40
40 39 39 38 37 36 36 36 36 36 35 35 35 35 35 34 32 32 31 31 31 31 31 30 30 30 31 31 30 30 28 29 31 34 36 38 40 43 45 44 41 41
41 41 40 39 39 38 37 36 36 37 37 37 37 37 37 37 36 35 34 33 33 34 33 32 31 31 32 32 32 32 31 30 30 31 33 37 40 44 46 46 45 45

ECMWFNIL_500_spd_090.txt.gz
Wind_Speed
29 30 30 31 30 31 32 34 36 34 34 34 34 33 32 32 33 32 30 27 24 25 25 24 23 23 25 25 23 23 23 23 24 25 24 24 25 24 23 23 22 22
29 29 30 31 31 31 32 34 35 34 33 33 34 33 32 31 31 32 31 28 24 23 22 23 23 22 23 24 24 24 24 24 24 25 25 26 26 25 24 24 23 23
29 29 30 31 32 32 33 33 34 34 33 33 33 33 32 31 30 30 31 28 24 22 22 22 23 22 22 23 24 25 25 24 24 24 24 26 27 26 26 25 24 25
29 29 30 31 32 33 34 33 33 34 34 33 32 32 32 31 29 30 31 29 24 23 23 24 24 23 23 23 23 24 24 25 26 25 24 26 26 26 27 26 26 27
28 28 29 30 32 33 34 34 34 34 35 34 33 31 30 30 29 29 30 29 26 25 25 25 25 23 24 23 23 23 24 25 26 26 26 27 27 27 27 27 27 27
27 28 29 30 31 32 33 34 34 35 35 34 33 31 28 27 28 28 28 28 26 25 25 26 25 24 24 24 24 23 23 24 25 25 27 28 28 28 27 27 28 28
27 27 28 29 30 30 31 33 33 34 34 33 33 31 28 25 26 27 27 27 26 25 25 27 27 26 25 25 25 24 23 23 24 25 27 28 28 28 27 27 28 29
27 27 27 28 28 29 30 31 33 33 33 32 31 30 28 25 25 25 25 27 26 25 25 25 25 26 26 26 25 25 23 22 23 25 27 28 28 28 28 27 27 28
27 27 26 27 28 29 30 31 31 31 31 30 29 28 27 26 25 25 24 25 26 25 24 24 25 27 26 24 24 24 22 22 25 26 27 28 29 30 30 28 28 29
26 26 26 27 29 30 30 30 31 30 29 28 28 28 28 26 25 24 25 25 26 25 23 23 25 27 26 24 23 23 22 24 26 27 28 29 30 31 30 29 29 30
26 26 27 29 29 30 31 31 30 29 27 26 26 26 27 26 23 23 24 25 25 25 25 24 24 24 27 28 26 24 24 26 27 28 29 30 30 30 30 29 30 31
26 27 28 30 30 31 31 31 30 27 25 24 24 25 25 25 23 22 23 25 25 25 27 27 25 23 24 28 30 29 27 27 27 28 28 30 30 30 30 30 31 31
27 28 29 31 32 32 31 31 29 26 24 23 23 23 24 23 22 21 21 23 25 25 27 27 26 22 22 26 30 32 29 27 26 27 28 29 29 29 30 31 30 31
29 30 31 32 32 32 31 30 28 27 25 23 22 22 23 23 22 20 19 20 22 23 25 25 24 22 21 23 26 30 31 29 27 27 28 28 28 29 30 31 30 30
30 31 31 32 32 31 30 29 28 28 27 26 24 23 23 23 22 20 19 19 20 21 22 23 23 23 22 21 21 24 27 28 30 30 29 28 28 29 30 30 30 30
32 32 32 32 32 31 29 29 29 29 30 30 28 25 24 24 24 22 21 20 20 21 22 23 24 24 23 23 22 22 24 27 29 30 29 29 29 29 31 30 30 31
33 33 33 33 31 30 29 29 30 31 32 33 33 30 27 25 25 25 23 22 21 21 22 23 23 23 23 24 24 24 24 26 28 28 29 31 30 29 31 32 31 32
35 34 34 34 32 31 31 31 31 32 33 34 35 35 32 28 26 26 26 24 23 23 23 24 23 22 23 24 24 24 24 23 25 27 29 31 32 31 31 32 33 34
35 35 35 34 34 33 33 33 33 33 34 34 35 36 35 32 29 27 27 27 26 25 25 25 24 23 23 24 24 25 24 22 24 26 27 29 31 31 32 33 34 35
36 36 36 36 36 36 36 36 36 36 35 35 35 36 36 35 32 30 29 29 28 27 26 26 25 24 24 25 25 25 24 22 23 26 27 28 29 29 32 34 34 34
35 36 37 37 38 38 38 39 39 38 37 37 36 36 37 37 35 33 31 30 30 30 29 27 26 25 25 25 25 25 25 23 24 25 27 28 29 29 30 32 34 34
36 37 38 38 39 39 40 40 40 40 39 38 38 37 37 38 37 36 34 32 32 32 31 30 28 27 26 26 26 25 25 25 25 26 28 29 30 30 28 29 32 34
39 40 40 41 41 41 41 41 41 41 41 40 39 39 39 39 39 39 37 35 34 33 33 32 31 29 28 27 27 26 26 26 26 27 28 29 30 31 30 29 29 32
42 43 43 43 43 43 42 42 42 41 41 41 40 39 40 40 40 41 40 39 37 36 35 34 33 32 31 29 28 27 28 28 28 28 28 29 29 29 30 29 28 29
44 45 45 45 45 45 44 43 43 42 41 41 40 39 38 39 40 40 41 41 40 38 37 37 35 34 34 33 32 30 29 29 30 29 28 29 29 28 28 27 27 28
45 45 46 46 46 46 45 45 45 44 44 43 43 41 40 39 39 40 40 41 40 39 39 38 38 37 36 35 35 33 31 30 31 31 30 30 29 29 30 30 28 28

ECMWFNIL_500_spd_093.txt.gz
Wind_Speed
26 26 26 27 27 26 26 26 26 27 27 28 29 30 29 29 30 31 31 30 30 29 27 26 25 24 23 21 20 21 24 25 24 22 22 22 21 22 22 24 25 23
26 27 27 27 27 27 26 26 26 26 27 28 30 30 30 29 29 30 30 30 30 28 26 26 26 25 25 24 21 21 22 23 22 22 22 22 22 22 22 24 25 24
26 27 27 28 28 27 26 26 25 25 26 28 30 30 31 30 30 30 30 29 29 27 25 25 25 25 25 25 24 23 22 21 21 22 23 23 22 22 23 25 26 26
26 27 27 28 28 27 26 25 25 24 26 28 30 31 32 32 31 30 30 28 27 26 25 24 24 23 23 24 25 24 23 22 21 21 23 23 23 23 24 26 27 27
27 27 27 28 27 26 26 25 24 24 26 28 30 31 33 33 33 32 31 28 26 25 25 25 23 22 22 23 24 23 23 23 22 21 21 23 24 24 25 25 27 28
27 27 27 27 27 26 26 24 23 24 27 28 30 31 33 33 33 32 31 29 26 24 24 25 24 22 21 22 23 23 23 24 23 22 21 22 24 26 27 26 26 28
27 27 28 28 27 27 25 24 23 25 27 28 30 31 32 32 32 32 31 28 26 23 23 23 23 23 21 21 23 23 22 23 25 24 23 22 23 26 28 27 27 28
28 28 28 28 28 27 25 24 24 25 27 28 30 31 31 30 31 32 32 30 26 23 22 22 22 22 22 22 23 23 22 23 25 26 25 24 23 25 26 26 27 28
29 29 29 29 28 27 25 24 24 25 27 28 29 30 29 29 29 31 32 31 28 25 22 21 21 22 23 22 22 23 24 24 24 24 25 25 24 24 25 25 27 28
29 29 29 29 28 27 26 25 25 26 27 28 29 28 28 27 28 29 30 30 29 27 24 22 21 22 22 22 22 23 25 26 25 22 23 23 24 25 25 25 25 28
30 29 29 29 28 28 27 26 26 26 27 28 28 27 26 26 27 28 29 28 27 27 26 24 22 22 23 23 23 23 24 26 27 25 22 22 24 25 24 24 24 25
30 29 29 29 29 29 29 28 28 27 27 28 28 27 26 26 27 27 28 28 27 26 25 24 23 23 23 23 23 24 23 25 27 27 25 23 22 23 25 25 25 25
30 30 30 30 30 31 30 30 30 29 28 28 27 27 27 27 27 27 27 28 28 26 25 24 23 22 23 22 22 22 23 23 24 26 26 25 23 22 23 23 24 25
31 31 31 31 32 32 32 32 32 32 30 29 28 27 28 28 28 28 28 28 28 27 26 25 23 22 22 22 22 22 23 23 23 23 24 25 25 24 23 22 22 24
32 32 33 33 34 34 34 35 34 34 33 31 29 29 29 29 29 29 29 29 29 29 28 26 25 23 22 22 22 22 23 23 23 23 22 22 24 25 26 25 24 24
33 34 34 35 35 35 36 36 36 35 34 33 32 31 31 31 30 30 31 31 31 31 30 28 27 26 24 23 21 21 21 22 21 21 21 21 22 24 26 26 26 24
35 36 36 36 37 37 36 36 36 35 35 35 34 34 34 33 33 33 33 33 33 32 31 30 29 28 27 26 24 22 21 21 21 21 21 21 22 24 25 26 26 25
37 37 37 37 37 37 37 36 36 35 35 35 36 36 36 36 36 36 35 35 34 34 33 32 30 29 28 28 26 24 23 22 21 21 21 21 22 23 24 25 25 25
37 38 38 38 37 37 37 36 36 36 36 36 37 37 38 38 38 38 37 37 36 35 34 33 32 30 29 29 28 27 25 23 22 23 23 22 22 23 24 24 24 25
37 38 38 38 38 38 37 37 37 37 37 37 37 38 38 39 40 40 39 39 38 37 35 34 33 32 31 30 29 28 27 26 24 24 24 24 24 25 25 24 24 25
37 38 39 39 39 39 39 39 39 39 39 39 39 40 40 41 41 41 41 40 40 39 38 36 34 34 33 32 31 30 29 28 27 26 26 26 26 26 26 26 25 25
38 38 39 40 40 40 40 41 41 42 42 42 43 43 44 43 43 42 42 41 40 39 39 38 36 35 34 33 33 32 31 30 29 29 29 28 28 28 27 26 27 26
39 39 39 40 40 40 41 42 42 43 44 45 45 46 46 46 46 45 44 42 41 40 38 38 37 37 36 34 34 34 34 32 31 31 31 30 30 29 28 27 28 28
40 40 41 41 41 41 42 43 43 44 45 46 47 47 47 47 47 47 46 45 43 42 40 39 38 38 38 36 35 34 35 35 34 33 33 33 32 31 31 30 29 28
42 42 43 43 43 44 45 45 46 47 47 48 48 49 49 49 49 48 48 47 47 45 44 43 41 40 40 39 38 36 35 35 36 35 34 34 34 34 33 33 32 30
43 43 44 44 45 46 46 47 47 48 48 49 50 50 51 51 51 51 51 51 50 50 48 47 46 44 43 42 42 40 38 37 37 37 36 35 35 35 34 34 34 32

ECMWFNIL_500_spd_096.txt.gz
Wind_Speed
25 25 25 26 26 26 26 26 26 26 25 24 22 21 21 22 23 24 25 26 27 28 29 30 30 30 29 27 26 26 26 25 27 30 29 28 27 28 29 29 28 28
25 26 26 27 27 27 27 27 27 26 25 24 23 22 22 23 24 24 25 26 27 28 29 30 30 29 28 27 26 26 26 26 26 29 29 28 27 27 28 29 28 28
26 26 27 28 28 28 28 27 26 26 25 24 23 23 23 24 24 25 25 26 27 28 30 30 30 29 27 26 25 26 26 26 27 28 30 29 27 25 26 27 27 28
27 27 28 29 29 30 29 28 26 25 24 24 23 23 24 25 25 25 26 26 27 28 29 30 29 28 27 26 25 25 26 26 27 28 29 29 28 25 24 26 27 28
28 28 29 30 30 31 30 29 27 26 24 24 23 24 25 25 26 26 26 26 27 28 29 29 28 27 26 26 26 25 25 25 27 28 28 29 29 27 25 25 27 28
28 29 30 30 31 31 31 30 28 27 25 24 23 24 25 25 25 26 26 26 27 28 28 28 28 27 26 24 24 24 24 25 25 26 27 28 28 28 26 25 25 28
29 30 30 31 31 31 31 30 29 27 25 24 24 24 25 25 25 25 26 26 27 27 28 28 27 27 27 24 22 22 24 25 25 25 26 28 28 28 28 26 25 26
30 30 31 31 31 32 32 31 29 27 26 24 24 24 24 25 25 25 25 25 26 26 28 28 28 27 27 26 23 21 22 24 25 25 26 27 28 28 28 28 26 25
31 31 32 32 32 32 32 31 30 28 26 26 25 25 25 25 25 25 24 24 24 25 26 28 28 28 28 27 25 23 22 23 24 25 25 26 27 28 28 28 27 26
32 33 33 33 32 32 32 31 29 28 27 27 27 27 27 27 26 26 25 24 24 24 25 26 27 28 29 28 27 25 23 23 23 24 25 25 26 27 27 27 27 27
34 34 34 33 33 33 32 31 30 29 28 28 28 28 28 28 28 27 26 25 24 24 24 24 25 26 28 29 29 27 25 24 23 23 24 25 25 26 27 27 26 26
35 35 35 34 34 34 33 32 31 30 30 30 30 30 30 29 29 28 27 27 26 25 24 24 24 25 26 27 28 29 27 25 24 23 23 23 24 25 27 27 27 26
36 36 36 36 35 35 34 33 32 32 32 32 32 32 32 32 31 30 29 28 27 26 26 25 24 24 25 26 27 28 28 27 26 24 24 23 23 23 25 26 27 27
37 37 36 36 36 35 35 34 34 34 34 35 35 35 35 34 33 32 31 29 28 28 28 27 27 26 25 26 27 27 27 28 27 26 24 24 23 22 23 25 25 26
37 37 37 37 37 36 36 36 36 36 36 36 37 37 36 36 35 34 33 32 31 30 30 29 29 28 27 26 27 27 27 27 27 27 26 24 24 22 21 22 24 25
38 38 38 38 38 37 37 37 37 37 37 38 38 38 38 37 37 36 34 34 34 33 32 31 30 30 29 28 27 27 27 28 27 28 27 26 25 24 22 22 23 24
38 38 38 38 38 38 38 38 38 38 38 39 39 39 39 39 38 37 36 36 35 35 34 33 33 32 32 31 29 27 27 28 28 28 28 28 27 26 25 23 23 24
38 38 38 38 38 38 38 38 38 39 39 39 40 40 40 39 39 39 39 38 37 37 36 36 35 34 34 34 33 31 29 29 29 29 29 29 29 28 27 26 26 26
37 38 38 38 37 37 38 38 39 39 40 40 41 41 41 41 41 41 41 41 40 40 39 39 39 38 37 36 36 35 32 30 30 31 30 30 30 29 29 29 28 27
36 37 37 38 38 38 39 39 40 40 41 41 41 42 42 42 43 43 43 43 43 43 42 42 42 41 40 39 38 37 35 32 31 31 32 32 32 31 31 31 30 29
37 38 38 39 39 39 40 41 41 42 42 43 43 43 43 44 44 44 44 45 45 45 45 44 44 44 43 42 41 39 37 35 33 32 32 33 33 33 32 32 31 31
39 39 39 40 40 41 41 42 42 43 43 44 44 44 45 45 46 46 47 47 47 48 48 47 47 46 45 44 43 42 40 38 36 34 33 33 34 35 34 33 33 32
40 40 41 41 41 42 42 42 43 43 44 44 45 46 46 47 48 48 49 50 50 50 51 51 50 49 48 47 46 45 43 41 40 38 36 34 34 35 36 35 34 34
40 40 40 40 40 40 41 41 41 42 42 43 44 45 46 46 47 48 49 49 50 50 51 51 51 51 50 50 49 48 47 45 43 42 41 38 36 36 36 37 36 35
38 38 38 38 39 39 39 40 40 41 42 43 44 45 46 47 48 49 49 50 50 51 51 52 52 52 51 51 50 50 49 48 46 44 44 43 41 38 37 38 37 37
37 38 38 39 39 40 40 41 42 43 44 45 46 47 49 50 51 52 53 53 54 54 55 55 55 55 54 54 53 52 51 50 48 46 45 45 44 42 40 40 39 38

ECMWFNIL_500_spd_099.txt.gz
Wind_Speed
23 23 23 23 23 24 24 24 24 24 24 24 25 25 24 24 24 24 24 24 24 25 25 25 26 27 28 29 28 28 28 28 27 28 29 28 29 30 30 31 32 30
24 24 24 24 24 24 25 25 25 25 25 25 26 26 25 25 24 24 24 24 24 24 25 25 26 27 28 28 28 28 27 27 27 28 28 28 29 30 31 30 29 29
24 24 24 25 25 25 26 26 26 27 26 27 27 27 27 26 25 25 24 24 25 25 25 25 25 26 26 27 28 28 27 27 27 27 28 28 28 29 30 30 29 29
24 24 25 25 26 27 27 27 28 27 27 28 28 28 27 27 26 25 25 24 24 25 25 24 24 25 25 26 27 27 27 27 27 27 28 28 27 27 28 29 29 28
25 25 25 26 27 28 28 29 29 28 28 28 28 28 28 27 26 25 25 25 25 25 25 25 24 23 24 24 25 25 26 27 27 26 27 27 27 27 27 27 27 28
26 26 26 27 28 29 29 30 30 30 29 29 29 29 28 27 26 25 25 25 26 26 26 26 25 24 23 23 24 24 24 24 25 26 26 27 27 27 27 27 27 27
27 28 28 28 28 29 30 31 31 31 30 30 30 29 29 28 27 26 25 25 26 27 27 27 26 26 25 24 24 24 24 23 24 24 25 26 26 27 27 27 27 27
29 29 29 29 29 29 31 32 32 32 31 31 31 30 29 29 28 28 27 26 26 27 27 27 27 27 26 26 25 25 25 24 24 24 24 25 25 26 26 26 26 26
30 30 30 29 29 30 31 32 33 33 32 32 32 32 31 31 30 30 29 29 28 28 27 27 27 27 27 27 26 25 25 25 25 24 24 24 25 25 26 26 26 26
31 31 31 31 31 32 32 33 34 34 34 34 34 34 34 33 32 32 31 31 30 29 29 28 28 28 28 28 27 26 26 26 26 26 25 25 25 25 25 26 26 26
32 32 32 32 32 33 33 34 34 34 35 35 35 36 36 35 35 34 33 33 32 31 31 30 29 28 28 29 29 29 28 27 27 27 26 26 26 26 26 26 25 26
32 32 33 34 34 34 35 35 35 35 36 36 36 37 37 37 37 36 35 35 34 33 32 31 31 30 29 29 31 31 31 29 28 28 28 27 27 27 27 27 26 26
33 34 34 35 35 35 35 36 36 36 36 37 37 38 38 38 38 38 37 37 36 35 34 34 33 32 31 30 31 32 33 32 30 29 29 29 28 27 28 28 27 26
34 35 35 35 35 36 36 36 36 37 37 37 38 38 39 39 39 39 39 38 38 37 37 36 35 34 33 32 31 31 32 32 31 30 30 30 30 29 29 28 28 27
36 36 36 35 36 36 36 37 37 37 37 38 38 39 39 39 40 40 39 39 39 39 38 38 38 37 36 35 33 32 32 33 32 31 30 29 30 31 31 30 29 28
37 36 36 36 36 36 37 37 37 38 38 38 39 39 39 40 40 40 40 40 40 40 40 40 40 39 39 38 37 35 35 34 34 33 32 31 30 31 32 32 31 30
37 37 36 36 37 37 38 38 39 39 39 39 40 40 40 41 41 41 42 42 42 42 42 42 42 41 41 41 40 39 38 37 37 36 35 34 32 31 32 33 33 32
38 37 37 37 37 38 38 39 40 40 40 41 41 41 41 42 42 43 44 44 44 44 44 44 44 44 43 43 43 42 42 41 40 40 39 37 35 33 32 33 34 34
38 38 38 38 39 39 40 40 41 41 41 41 42 42 42 43 43 44 45 45 46 46 46 45 45 45 45 45 45 45 45 44 44 44 43 41 40 37 35 34 34 34
38 38 39 39 40 40 41 41 41 41 41 41 41 41 42 42 43 43 44 45 45 45 45 46 46 46 46 47 47 47 47 47 48 47 47 46 44 42 39 36 35 34
38 39 39 40 40 40 41 41 41 41 40 40 40 40 40 41 41 42 42 43 44 44 45 45 46 46 46 47 47 48 48 48 48 49 49 48 48 46 44 40 37 35
38 38 39 39 40 40 40 40 40 39 39 38 38 39 40 40 41 42 43 44 44 45 46 47 47 48 48 48 49 49 49 49 49 49 49 49 49 48 47 44 41 38
37 37 38 38 39 39 39 39 38 38 38 38 39 40 40 41 42 43 44 45 47 48 48 49 50 51 51 52 52 52 52 52 52 51 51 51 50 50 49 47 45 42
36 37 38 38 38 38 38 38 38 38 38 38 39 40 41 42 44 45 47 48 49 50 51 51 52 52 53 53 54 54 55 55 55 55 55 54 53 53 52 50 48 46
36 37 37 38 38 37 37 37 37 37 38 38 39 41 43 44 46 47 48 49 49 50 50 51 51 52 53 53 54 54 55 56 56 57 58 57 57 56 55 55 52 49
37 38 37 37 37 36 36 36 36 37 38 39 41 43 44 45 46 46 46 47 48 48 49 50 51 51 52 53 54 55 55 56 56 57 58 58 59 58 58 58 56 53

ECMWFNIL_500_spd_102.txt.gz
Wind_Speed
22 22 22 23 23 23 23 23 24 24 25 25 26 26 26 26 25 25 25 25 26 26 26 26 26 26 26 27 27 28 28 28 28 28 28 28 28 28 29 30 29 29
23 23 23 23 23 24 24 24 25 25 25 26 26 27 27 26 26 26 26 26 26 26 26 26 26 26 26 26 27 28 28 28 28 28 28 28 28 28 29 29 28 28
23 23 23 23 23 24 24 25 25 25 26 26 27 27 27 27 27 27 26 27 27 27 27 26 26 26 26 26 27 27 28 28 28 28 28 28 28 28 29 29 27 27
22 22 23 23 24 24 25 25 25 26 26 27 27 27 27 27 27 27 27 27 28 28 28 27 27 27 27 27 27 27 28 28 28 28 27 27 27 28 28 29 27 26
23 23 24 25 25 26 26 26 26 26 26 26 27 27 27 27 28 28 28 28 28 29 29 29 29 29 29 28 28 28 28 29 29 29 28 27 27 27 27 27 27 26
24 25 26 27 27 28 28 28 28 27 27 27 27 27 27 27 28 28 28 29 29 30 30 30 30 30 30 29 29 29 29 29 29 30 29 28 28 28 28 27 26 25
27 27 28 29 29 30 30 30 29 29 28 28 28 28 28 28 29 29 29 30 30 31 31 31 32 32 31 31 30 30 30 30 30 31 31 30 29 29 29 28 27 25
29 29 30 31 31 31 31 31 31 31 31 30 30 30 30 30 30 30 30 31 31 32 32 33 33 33 33 33 32 32 31 31 31 32 32 32 32 31 30 30 28 27
31 31 32 32 32 32 32 32 33 33 33 32 32 32 32 32 31 32 32 32 33 33 33 34 35 35 35 35 35 34 33 32 32 32 33 33 33 33 32 32 31 29
32 33 34 34 34 33 33 34 34 34 34 34 34 34 34 34 33 33 33 34 34 34 35 35 35 36 36 37 37 36 35 34 33 33 33 33 34 34 34 33 32 32
34 35 35 35 35 35 35 35 35 36 36 36 36 36 35 35 35 35 35 35 35 35 35 35 36 36 37 38 38 38 38 37 36 35 34 34 34 35 34 34 33 33
36 36 36 36 36 36 36 37 37 37 37 36 36 36 36 36 36 36 36 37 37 37 37 37 37 37 37 38 39 40 40 40 39 38 37 36 36 35 35 34 34 33
37 37 37 36 36 37 37 37 37 37 37 37 36 36 36 36 36 37 37 38 38 38 39 39 39 39 39 39 40 41 41 41 42 41 40 39 38 37 36 35 34 34
38 37 37 36 37 37 37 37 38 38 37 37 36 36 36 37 37 37 38 38 39 39 40 40 41 41 41 41 41 42 43 43 43 43 43 42 41 40 39 37 36 35
38 37 37 37 37 37 38 38 38 37 36 36 36 37 37 37 38 38 39 39 40 40 41 41 42 42 42 42 42 42 43 44 44 45 45 44 43 43 42 40 39 37
37 37 36 37 37 37 38 38 37 36 36 36 36 37 38 38 38 39 39 40 40 41 41 42 42 42 42 42 42 43 43 43 44 45 45 45 45 44 44 43 42 40
37 37 37 37 37 38 38 37 36 36 36 36 37 37 38 38 39 39 39 39 40 40 41 41 41 42 42 42 42 43 43 43 44 44 45 46 46 46 45 45 44 43
37 37 37 38 38 38 38 37 36 36 36 37 37 38 38 38 38 38 38 38 39 39 40 40 41 41 42 42 43 43 43 44 44 44 45 46 46 47 47 46 46 46
37 37 38 39 39 38 37 36 36 36 37 37 38 38 38 38 37 38 38 38 39 39 40 40 41 42 43 44 45 45 46 46 47 47 47 47 48 48 48 48 48 48
37 38 39 39 39 37 36 35 35 36 37 37 37 37 37 37 37 38 38 38 39 40 41 43 44 45 46 47 48 48 49 49 50 50 50 51 51 51 51 51 50 50
37 38 39 39 38 36 35 34 35 36 36 36 36 36 36 37 37 38 39 40 42 43 45 46 46 46 47 47 47 48 48 48 49 50 51 51 52 53 53 54 54 54
38 39 39 38 37 36 34 34 35 36 36 36 36 36 36 37 38 39 41 42 43 44 44 44 44 44 44 45 46 46 47 48 49 49 50 50 51 51 52 53 54 55
38 38 37 36 36 35 34 35 36 36 35 35 35 35 36 38 39 40 41 42 41 41 41 42 43 43 44 45 46 47 48 49 50 50 51 51 52 52 52 52 53 54
37 36 36 35 35 34 35 36 36 35 34 35 35 36 37 38 39 39 39 39 39 40 41 42 43 44 45 46 47 48 49 49 50 51 51 52 52 53 53 53 53 53
35 35 34 34 34 35 35 35 35 34 34 34 35 36 37 37 37 37 38 38 39 40 41 42 43 44 45 45 46 47 47 48 49 50 51 52 52 52 53 53 53 53
33 34 34 34 34 34 34 33 33 33 34 34 34 35 35 35 36 36 37 38 39 41 42 42 43 44 44 45 45 46 46 47 48 48 49 50 51 51 52 52 52 52

ECMWFNIL_500_spd_105.txt.gz
Wind_Speed
17 17 17 18 19 19 20 20 21 22 23 23 24 24 25 25 26 26 27 27 27 27 27 27 28 28 28 28 28 28 29 29 29 29 29 29 30 30 30 29 29 29
17 17 18 19 20 20 21 21 22 23 23 24 24 25 26 26 26 27 27 27 27 27 27 28 28 29 29 29 29 29 29 30 30 30 30 30 30 30 30 30 30 29
18 18 19 20 20 21 22 23 24 25 25 25 25 26 26 27 27 27 27 28 28 28 28 28 29 29 29 30 30 30 30 30 31 31 31 31 31 30 30 31 30 30
20 20 21 21 22 23 23 24 25 26 26 26 27 27 27 27 28 28 28 28 29 29 29 29 29 29 30 30 30 30 31 31 32 32 32 32 32 31 31 31 31 31
21 22 22 23 24 24 25 26 27 28 28 28 29 29 29 29 30 30 30 30 29 30 30 30 30 30 30 30 31 31 32 32 33 33 33 33 34 33 32 32 31 32
22 23 24 25 26 26 27 28 29 30 31 31 31 30 30 31 31 32 32 32 31 31 31 31 31 30 31 31 32 32 32 33 33 34 34 34 35 35 34 34 33 33
24 25 26 27 28 28 29 30 30 31 32 33 33 32 32 32 32 33 33 33 33 33 33 32 32 32 32 32 33 33 34 34 34 34 35 35 35 36 36 36 35 34
26 27 28 29 30 30 31 32 32 33 33 34 34 34 33 33 34 34 35 35 35 34 34 34 34 33 33 33 34 34 34 35 35 35 35 35 36 36 37 37 37 36
27 28 30 31 32 32 33 33 34 34 35 35 35 35 35 35 36 36 36 36 35 35 35 35 35 35 35 35 35 35 35 35 35 35 36 36 36 37 37 37 38 38
29 30 31 32 33 34 34 35 35 36 37 37 37 37 37 37 37 37 37 37 37 36 36 36 36 36 36 36 36 36 36 36 36 37 37 37 37 37 38 38 38 38
30 32 33 34 35 35 35 35 36 38 38 38 38 39 39 39 38 38 38 38 38 38 37 37 37 37 37 37 37 37 37 38 38 38 38 38 39 39 39 39 39 39
32 33 34 35 35 35 36 37 38 38 38 39 39 39 39 39 38 38 38 38 38 38 38 37 37 38 38 38 38 38 38 38 38 39 39 39 39 40 40 40 40 41
33 34 35 36 36 36 37 38 39 39 39 39 39 39 38 38 38 37 37 37 38 38 38 38 38 38 38 38 38 38 38 38 38 39 40 40 41 41 41 41 42 42
34 35 36 36 37 38 39 40 39 38 38 39 38 38 38 37 37 37 37 37 38 38 38 38 38 37 37 37 37 38 38 39 39 40 40 41 42 43 43 43 43 43
35 36 37 38 39 40 41 40 38 38 38 38 38 37 37 37 37 37 37 38 38 38 38 38 38 37 37 37 37 38 38 39 40 41 41 42 43 44 44 45 45 45
36 37 38 39 39 40 40 38 38 38 38 37 37 37 37 37 37 37 37 38 38 38 38 38 38 38 38 39 39 39 40 41 42 43 44 44 45 45 46 47 48 48
36 38 39 39 39 39 38 37 37 37 37 37 38 38 37 37 37 37 37 37 37 38 38 38 38 39 40 40 41 42 43 43 44 44 45 46 46 47 47 48 49 50
36 37 38 38 39 38 37 36 37 37 37 38 38 38 37 37 37 37 37 37 37 38 38 39 40 41 42 42 43 43 43 43 43 43 44 44 45 45 46 47 47 48
36 37 38 38 37 36 35 36 36 37 37 38 37 37 36 36 36 36 37 37 37 38 39 40 41 42 42 42 41 41 41 41 42 42 42 43 43 44 45 46 46 47
35 36 37 37 35 34 35 35 36 37 37 37 36 35 35 35 36 36 36 37 38 39 40 41 41 40 40 40 39 39 40 40 41 42 42 43 44 45 46 47 48 48
34 35 35 34 33 33 34 35 36 36 36 35 34 34 35 35 35 35 36 37 38 40 40 39 39 38 38 38 39 39 40 41 42 43 44 45 46 47 48 49 50 51
33 32 32 32 32 33 34 34 35 35 35 34 34 34 34 34 34 35 36 38 38 38 38 37 37 37 38 38 39 40 41 42 44 44 45 46 47 48 49 50 51 52
30 29 30 30 31 32 33 34 34 34 33 33 33 33 33 34 35 36 37 37 36 36 35 35 36 36 37 38 39 40 41 42 43 44 45 46 47 48 49 51 52 52
27 28 28 29 30 31 32 33 33 32 32 32 32 32 33 34 35 35 35 35 34 34 34 35 36 37 38 39 39 40 41 42 43 44 45 46 47 48 49 49 50 51
26 27 27 28 30 31 31 31 31 31 31 31 31 32 33 34 34 34 33 33 33 34 34 35 36 37 38 39 39 40 41 42 42 43 44 44 45 46 47 48 49 50
25 26 27 28 29 30 30 31 30 30 30 30 31 32 32 32 32 32 32 32 33 34 35 36 37 37 38 39 39 40 41 41 42 42 42 43 44 45 46 47 48 49

ECMWFNIL_500_spd_108.txt.gz
Wind_Speed
15 15 15 15 15 15 15 16 16 17 18 19 20 21 22 23 24 25 26 26 27 27 27 27 27 27 27 27 27 28 28 28 28 28 29 29 29 30 30 30 30 30
15 15 16 16 16 16 16 16 17 18 19 20 21 23 24 25 26 27 28 29 29 29 29 29 29 28 28 28 28 29 29 29 29 30 30 30 30 31 31 31 31 31
16 16 16 16 17 17 17 18 18 19 20 21 23 24 26 27 28 29 30 30 30 30 30 30 30 30 30 30 30 30 30 31 31 31 32 32 32 32 32 32 33 33
18 17 17 17 18 19 19 19 20 20 22 23 24 26 27 29 30 30 31 31 31 31 31 31 31 31 32 32 32 32 33 33 33 33 33 33 33 33 33 34 34 34
18 18 18 18 19 20 20 21 21 22 23 24 25 27 28 30 31 32 32 32 32 32 32 32 32 33 33 33 34 34 34 35 35 35 35 35 35 35 34 34 35 35
18 19 19 20 21 22 22 22 23 24 24 26 27 28 30 31 32 32 33 33 32 33 33 34 34 34 34 34 35 35 35 36 36 36 36 37 37 36 36 36 36 36
19 20 20 21 22 23 23 24 24 25 26 27 29 30 31 32 32 33 33 33 34 34 35 35 34 34 34 35 35 36 36 36 37 37 37 37 38 38 37 37 38 38
20 21 21 22 23 24 25 25 26 27 28 29 31 32 32 33 34 34 33 34 35 35 35 35 35 34 34 35 35 35 36 36 37 37 38 38 38 39 39 39 39 39
21 21 22 23 24 25 26 27 28 29 30 31 33 34 34 35 35 34 34 35 35 36 36 35 35 34 34 34 35 35 36 36 37 37 38 38 39 39 39 40 40 40
22 22 23 24 26 27 27 28 29 31 32 33 34 35 36 36 36 35 35 36 36 36 35 35 34 34 35 35 35 36 37 37 38 38 38 38 39 39 40 40 40 41
24 24 25 26 27 28 29 30 31 32 33 34 36 37 37 37 36 35 36 37 37 36 35 35 35 35 35 36 36 37 37 37 38 38 38 39 39 40 40 40 41 41
25 26 26 28 29 29 30 31 32 33 34 35 37 38 38 37 36 36 37 37 36 35 35 35 35 35 36 36 36 37 37 38 38 38 39 39 40 40 41 42 42 42
26 27 28 29 30 30 31 32 33 34 35 36 37 38 37 36 36 37 37 37 36 35 35 35 36 36 36 37 37 37 38 38 39 40 40 41 42 42 43 44 44 45
27 28 29 30 31 31 32 33 34 35 36 37 37 37 37 36 37 37 37 36 36 36 36 36 36 36 37 38 38 39 39 40 40 41 42 43 44 44 45 46 46 47
27 28 30 31 32 32 33 33 34 36 36 37 37 37 37 36 37 37 37 36 36 36 36 37 37 37 37 38 38 39 40 40 41 42 43 43 44 45 45 46 46 47
28 29 31 32 32 33 33 34 35 36 36 37 37 37 36 36 37 37 37 37 37 37 37 38 38 38 38 38 39 40 40 41 42 42 43 43 43 43 44 45 45 46
29 31 32 32 33 33 34 35 36 36 37 37 37 36 36 36 36 36 36 36 37 37 38 38 38 38 39 40 41 41 42 42 42 42 42 42 42 42 43 43 44 45
31 32 33 33 34 34 35 36 36 36 37 36 35 35 35 35 35 36 36 36 37 38 38 38 39 39 40 41 41 42 42 41 41 41 41 41 42 42 43 44 44 45
33 34 34 34 35 35 36 37 36 36 36 35 34 34 34 34 35 35 36 36 37 37 37 38 39 40 41 42 42 41 41 41 41 42 42 42 43 44 44 45 45 46
34 35 35 35 36 37 36 36 35 34 33 33 33 34 33 33 34 34 35 36 36 36 37 38 40 41 41 41 41 41 41 41 42 43 44 44 45 45 46 46 46 47
37 36 36 36 37 37 36 34 32 31 32 32 33 33 32 32 33 33 34 34 35 36 38 39 40 40 40 40 40 40 41 42 43 44 44 45 45 46 46 46 46 47
39 37 36 36 36 35 32 30 29 30 31 32 31 31 31 32 32 32 33 33 35 37 38 39 39 39 38 39 39 40 41 42 43 43 44 44 44 45 45 46 46 46
39 37 35 34 32 30 27 27 28 29 30 30 30 30 31 31 31 31 32 34 36 37 37 37 37 37 37 38 39 40 41 41 42 42 42 42 43 43 44 45 45 46
36 33 31 28 26 24 25 26 28 28 28 29 29 29 29 29 30 31 33 34 35 36 36 36 36 36 37 38 39 40 40 40 40 40 40 40 41 42 43 43 45 45
27 25 24 22 22 24 25 26 26 27 27 28 28 28 28 29 30 32 33 34 35 35 35 35 35 36 37 38 38 38 38 38 38 38 39 39 40 41 41 42 42 43
21 21 21 22 23 24 25 25 25 26 26 27 27 27 28 30 31 32 33 34 34 34 35 35 36 36 37 37 37 37 37 36 36 37 38 38 39 40 40 40 40 41

ECMWFNIL_500_spd_111.txt.gz
Wind_Speed
18 18 18 18 18 18 18 18 18 18 19 19 19 19 19 20 20 21 22 23 24 25 26 27 28 29 29 30 30 31 31 31 31 32 32 32 32 32 32 32 32 32
20 20 20 20 19 19 19 19 19 19 19 20 20 20 21 21 22 23 24 25 25 26 28 29 29 30 30 31 31 31 32 32 33 33 33 33 33 33 33 33 34 34
21 20 20 20 20 20 20 20 20 20 20 20 21 21 22 23 23 24 25 25 26 28 29 30 30 31 31 31 32 32 33 33 34 34 34 34 34 34 34 34 35 35
20 19 19 19 20 21 21 21 20 20 20 21 21 22 22 23 23 24 25 26 27 29 30 31 31 31 31 32 32 33 33 34 34 34 34 34 35 35 35 36 36 36
18 19 19 20 20 21 21 21 20 20 21 21 22 22 22 22 23 24 25 27 29 30 31 31 31 31 32 32 33 33 33 33 33 34 34 34 34 35 35 36 37 37
19 19 20 20 20 20 20 20 20 21 21 21 22 22 22 22 23 25 27 28 30 30 31 31 31 31 32 32 33 32 32 33 33 33 33 34 34 35 35 36 37 38
19 20 20 20 20 20 20 21 21 22 22 23 23 23 23 24 25 26 28 30 31 31 32 31 31 31 32 32 32 32 32 32 33 33 34 35 35 36 37 37 38 39
19 20 21 21 21 21 22 22 23 23 24 24 25 24 24 25 27 29 30 31 32 33 32 32 31 32 32 32 32 32 33 33 34 35 35 36 37 38 38 39 40 40
20 21 21 22 22 23 23 24 24 25 25 26 26 26 26 27 29 30 31 32 33 33 32 32 32 33 33 34 34 34 34 35 35 36 37 38 39 39 40 40 41 42
22 22 22 23 24 24 24 25 26 26 27 27 27 27 28 29 30 31 32 33 33 33 32 32 33 34 34 35 35 35 36 36 37 38 39 39 40 40 41 41 42 43
22 22 23 24 24 25 25 26 27 28 28 28 28 28 29 31 32 33 33 34 34 33 33 33 34 35 35 35 36 36 37 38 38 39 40 40 41 42 42 43 44 44
21 22 23 24 25 26 27 28 29 29 29 29 29 30 31 32 33 34 34 35 35 34 34 34 35 35 36 36 37 37 38 39 40 40 41 42 43 43 44 45 45 46
21 22 23 24 26 27 28 29 30 30 31 31 31 31 32 33 34 35 36 36 35 35 35 35 36 36 37 37 37 38 39 40 41 42 42 43 44 45 46 46 46 47
22 22 23 25 26 27 29 30 31 32 32 32 32 33 33 34 35 36 37 37 36 35 36 37 37 37 37 38 38 38 39 40 41 42 43 44 45 46 46 47 47 48
21 22 23 25 26 28 30 31 32 33 33 33 33 34 35 36 36 37 37 37 36 36 37 37 38 37 37 37 38 39 40 40 41 43 44 45 45 46 46 47 47 47
23 24 25 26 27 29 31 32 34 34 34 34 34 35 36 37 37 37 37 36 36 37 38 38 38 37 37 38 38 39 40 41 42 43 44 44 45 45 46 46 46 47
26 26 27 28 29 30 32 34 35 36 35 35 36 37 38 38 37 37 36 36 37 38 38 38 38 37 38 38 39 40 41 42 43 44 44 44 45 45 45 46 46 47
27 28 29 30 31 32 33 35 36 37 37 37 38 39 39 38 37 36 36 36 37 38 38 38 37 37 38 38 40 41 42 43 43 44 44 44 45 45 46 47 48 49
28 30 30 30 31 32 34 36 38 39 39 39 40 40 39 38 36 35 36 37 38 38 38 37 37 37 38 40 41 42 43 43 43 44 44 45 46 47 48 49 50 50
29 30 30 30 31 33 36 38 40 41 41 41 40 40 38 36 34 34 35 37 38 38 37 37 37 38 39 41 42 42 42 43 43 44 45 46 47 48 49 50 51 51
31 31 32 32 32 33 36 40 42 43 41 40 40 39 36 33 32 34 35 36 37 37 36 36 37 39 40 41 41 41 42 42 43 44 46 47 48 49 50 50 50 50
34 34 35 35 34 33 36 39 42 41 40 39 38 35 31 30 32 33 35 35 36 36 35 36 38 39 40 40 40 40 41 42 43 45 46 47 48 48 48 48 48 48
36 36 35 33 32 32 34 37 39 39 38 36 34 30 29 30 32 33 34 34 34 35 36 37 39 39 39 39 39 40 41 42 44 45 46 47 47 46 46 46 45 46
36 34 31 29 28 30 33 35 35 35 33 31 29 28 29 31 31 32 33 33 33 35 37 38 38 37 37 38 39 40 41 43 44 45 45 45 44 44 44 43 43 44
30 28 26 26 27 30 31 31 30 29 28 27 27 28 29 31 31 32 32 33 34 36 37 37 36 36 37 38 39 40 41 42 43 43 42 41 41 41 41 42 42 42
22 21 21 22 24 26 26 26 26 25 25 26 27 29 30 30 31 31 32 33 35 35 35 35 35 36 37 38 39 40 41 41 41 39 39 38 39 39 40 40 41 40

ECMWFNIL_500_spd_114.txt.gz
Wind_Speed
14 14 14 15 15 16 17 17 17 16 16 16 16 17 18 19 21 22 22 23 24 25 26 28 29 30 31 32 32 33 33 34 34 34 34 34 35 35 35 36 36 36
14 15 15 16 17 17 17 16 16 16 16 17 17 18 19 20 21 22 23 24 25 26 27 28 29 30 31 32 33 33 34 34 34 35 35 35 36 36 36 36 36 36
16 16 17 17 17 17 16 15 16 16 17 18 19 20 20 21 22 22 23 24 24 26 27 28 29 30 31 33 33 34 34 34 35 35 36 36 36 36 35 35 36 35
17 18 18 18 17 16 15 15 16 17 18 19 19 20 20 21 21 22 22 23 25 26 27 28 30 31 32 33 34 35 35 35 36 36 36 36 36 35 35 35 35 36
18 18 18 17 16 16 16 16 17 17 18 19 19 20 20 21 21 22 22 24 25 27 28 30 31 32 33 34 35 35 35 36 36 36 36 36 36 35 35 36 36 37
18 18 17 17 17 17 17 17 17 18 18 19 19 20 21 22 22 22 23 24 26 27 29 30 32 33 33 34 34 35 35 36 36 36 36 35 36 36 36 37 38 39
18 18 18 18 18 18 17 18 18 19 20 20 21 22 22 23 23 23 24 25 27 28 30 31 32 32 33 33 34 34 34 35 34 35 35 35 36 37 37 38 39 39
19 19 19 19 19 19 18 19 20 20 21 22 23 23 24 24 24 25 26 27 28 30 31 32 32 33 33 34 34 34 34 34 35 35 36 36 37 38 38 39 39 40
19 19 19 19 19 20 20 21 22 22 23 23 24 25 25 25 26 26 27 28 30 31 32 33 33 34 35 35 36 36 35 35 36 37 37 38 38 39 39 40 40 41
21 20 20 20 21 22 22 23 23 24 24 25 26 26 27 27 28 28 29 30 31 33 33 34 35 36 36 37 37 37 37 37 38 39 39 39 40 40 40 41 42 43
22 21 20 21 21 22 22 23 24 24 25 26 27 28 29 29 29 30 31 32 33 34 35 35 36 37 38 38 38 38 38 39 39 40 40 41 41 41 42 43 43 44
22 21 21 21 21 21 22 23 24 25 25 27 28 29 30 30 31 32 33 34 35 35 36 36 37 38 38 39 38 38 39 40 41 41 42 42 42 43 44 45 46 46
24 23 23 23 23 23 23 24 25 26 27 28 29 30 31 31 33 34 35 36 36 37 37 37 38 38 39 39 39 39 40 41 42 42 43 43 44 45 46 47 48 48
25 25 24 24 24 24 25 25 26 27 28 28 29 31 32 33 34 35 37 38 39 39 38 38 39 39 39 39 39 40 41 42 43 43 44 45 46 47 48 48 49 49
22 23 23 23 24 24 25 26 27 28 29 30 31 32 34 35 36 37 38 40 41 40 40 39 39 39 39 39 40 41 42 42 43 44 45 46 47 48 48 48 48 48
21 21 22 22 23 24 25 27 29 30 31 32 33 34 36 37 38 39 40 42 42 41 41 40 40 39 39 40 40 41 41 42 43 44 45 46 47 48 48 48 48 48
21 21 22 23 24 26 28 29 31 32 33 34 35 36 37 38 39 40 42 43 44 43 42 42 41 40 40 40 40 41 41 42 43 44 46 47 47 47 47 47 47 48
22 22 23 24 26 28 29 31 32 34 34 34 35 36 37 38 40 42 43 44 44 43 43 42 40 39 40 40 40 41 41 42 44 45 46 47 47 47 47 47 48 49
24 24 26 27 28 30 31 32 33 34 34 35 35 36 37 39 41 42 44 44 44 43 42 40 39 38 39 40 40 41 42 43 44 45 46 46 45 46 47 48 49 50
26 27 28 29 31 32 33 35 35 35 35 36 36 37 37 38 40 41 42 43 42 40 39 37 37 38 39 39 40 41 42 44 44 44 44 44 45 46 47 48 49 50
28 29 30 31 32 34 35 36 37 37 37 37 37 37 36 36 37 39 40 39 38 36 35 35 36 37 37 39 40 42 43 43 43 43 43 44 45 46 48 48 49 49
28 28 30 31 32 34 36 37 38 38 36 35 34 33 32 33 35 36 36 35 34 34 34 34 35 36 37 39 40 42 42 42 42 42 42 44 45 47 47 48 48 48
27 28 30 31 32 33 33 33 34 33 31 29 29 30 31 32 33 33 33 32 32 33 33 34 35 36 38 40 41 41 41 40 41 42 43 44 46 46 46 46 46 46
27 28 29 30 31 31 30 28 28 28 28 28 29 30 30 30 31 31 31 31 31 32 32 33 35 37 38 40 40 39 39 40 41 42 43 44 45 45 45 44 44 44
26 27 28 29 30 29 27 25 24 25 26 27 28 29 28 29 29 29 29 30 30 31 33 34 36 38 38 38 38 38 38 39 41 42 43 43 43 43 42 42 42 42
26 26 27 28 28 27 24 22 22 23 23 24 26 26 27 27 27 28 28 29 30 32 33 35 36 37 37 36 36 37 38 39 41 41 41 41 40 40 40 40 40 40

ECMWFNIL_500_spd_117.txt.gz
Wind_Speed
10 9 9 10 11 13 14 14 14 14 15 15 15 15 15 15 16 17 18 19 20 21 22 23 25 26 27 27 28 29 30 30 31 32 32 33 33 34 34 35 35 35
8 9 9 11 13 14 14 14 15 15 15 15 15 15 15 16 17 18 19 20 20 21 22 24 25 26 27 28 29 29 30 31 32 32 33 33 33 34 34 35 35 35
9 10 11 13 14 15 15 15 15 16 15 15 15 15 16 16 17 18 19 20 20 22 23 24 25 26 28 29 29 30 31 31 32 32 33 33 34 34 34 34 35 35
11 12 13 15 16 16 16 16 16 16 15 15 15 15 16 17 18 18 19 20 21 22 23 25 26 27 28 29 30 31 31 32 32 33 33 34 34 34 34 34 35 36
12 13 15 15 16 16 16 16 15 15 15 15 15 16 16 17 18 19 20 21 22 23 24 25 26 27 28 30 30 31 32 32 33 33 34 35 35 35 35 35 36 36
13 15 16 15 15 15 15 15 15 15 16 16 17 17 17 18 19 20 21 22 23 24 25 26 26 28 29 30 31 32 33 34 34 35 35 36 36 36 36 36 37 37
14 16 16 16 16 16 16 16 16 17 17 18 18 18 19 20 21 22 22 23 24 24 25 26 27 29 30 32 33 34 35 35 36 36 37 37 38 38 38 38 38 39
15 16 17 17 17 17 17 18 18 18 18 19 20 20 21 22 22 23 23 24 25 26 27 28 29 30 32 33 35 35 36 37 38 38 38 39 39 39 39 39 39 39
17 17 18 18 18 18 18 18 19 19 20 21 21 22 23 23 23 24 25 26 26 27 28 29 30 32 34 35 36 37 38 39 39 39 39 39 39 39 40 40 40 41
18 18 18 19 19 19 19 20 21 21 22 22 23 23 23 24 24 25 27 28 29 29 30 31 33 34 36 38 39 39 39 40 40 40 39 39 40 40 41 41 41 42
18 19 20 20 20 20 21 21 22 22 22 22 22 23 24 25 26 27 29 30 30 31 32 33 35 37 39 40 40 40 40 40 40 40 40 40 41 42 42 42 43 45
19 19 20 20 20 21 21 22 22 22 22 23 23 25 26 27 28 29 30 31 32 33 34 36 37 39 41 41 41 41 41 41 41 41 41 42 43 43 44 45 46 48
19 19 19 20 21 22 23 23 24 24 24 25 26 27 27 29 30 31 32 33 34 35 36 37 39 40 42 43 43 43 43 42 42 42 43 44 45 45 45 47 49 51
17 17 18 20 22 23 24 25 25 25 26 26 27 28 29 30 31 32 34 35 36 37 37 38 39 40 42 43 44 44 43 42 42 42 43 45 45 46 47 49 51 52
16 17 19 21 23 24 24 25 25 25 25 26 27 29 30 31 33 34 35 35 35 36 37 38 40 41 42 43 44 43 42 41 41 42 43 45 46 47 48 50 51 52
17 18 20 22 23 23 23 23 24 24 25 27 28 30 31 32 33 34 34 34 35 37 38 39 40 40 41 41 41 41 40 40 41 42 44 45 46 47 48 50 51 51
18 20 21 22 22 22 22 23 24 25 26 28 29 31 32 33 34 34 34 35 37 38 38 39 38 38 38 39 39 38 39 40 41 42 43 44 46 48 49 49 50 50
20 22 22 22 22 22 24 25 26 27 28 30 32 33 34 35 35 35 35 36 37 37 37 36 35 36 36 36 37 37 39 40 41 42 43 44 46 47 48 48 48 48
21 23 23 23 23 24 25 26 27 29 30 31 33 35 36 37 37 36 35 36 36 34 33 33 34 35 35 35 36 38 39 40 40 41 43 45 46 47 47 47 47 48
22 23 24 24 25 25 26 27 28 29 30 32 33 34 36 37 36 34 32 32 31 30 31 32 33 34 34 35 37 37 38 39 40 42 44 44 45 45 45 46 46 46
24 25 25 25 26 26 27 28 28 29 30 31 32 33 33 33 31 29 28 28 29 30 31 32 33 33 34 36 36 37 37 39 41 42 43 43 43 43 44 45 45 45
25 25 25 26 26 27 27 27 28 29 30 31 32 33 33 31 28 27 28 29 30 31 31 32 33 34 35 35 35 36 38 40 41 41 41 41 42 43 44 44 44 44
24 25 26 26 26 26 27 27 28 29 30 31 31 32 32 30 28 28 28 29 29 30 30 32 33 34 34 34 35 37 38 39 39 39 40 41 42 42 43 42 42 42
24 25 26 26 25 25 26 27 28 29 30 30 30 29 29 28 27 27 27 27 28 29 30 32 33 33 33 34 36 37 38 38 38 38 39 41 41 41 41 41 41 40
24 25 25 25 24 24 25 26 28 29 29 28 28 27 26 26 25 25 26 26 28 29 31 31 32 32 33 34 36 36 37 37 37 38 40 40 40 40 40 39 39 38
25 24 23 23 23 23 25 26 27 27 27 26 26 25 24 24 24 24 25 27 28 30 30 31 31 32 33 34 35 35 35 36 37 38 39 39 38 38 37 37 36 36

ECMWFNIL_500_spd_120.txt.gz
Wind_Speed
7 6 7 9 9 10 11 13 14 14 15 16 17 17 18 18 19 19 20 21 21 22 23 23 24 24 24 25 25 26 26 27 27 28 29 30 31 32 32 33 33 33
8 7 7 8 8 10 11 13 13 14 15 16 16 17 18 19 20 21 21 21 22 23 23 23 24 24 24 25 26 26 27 28 29 30 31 31 32 32 33 34 34 35
9 7 6 7 8 9 11 12 13 14 15 16 17 18 19 20 21 21 22 22 22 23 23 23 24 24 25 26 26 27 28 29 30 31 32 32 33 34 35 35 36 36
9 7 7 8 9 10 11 12 13 15 16 17 18 19 20 21 21 21 21 21 22 22 23 24 24 25 25 26 27 28 29 30 31 32 33 34 35 36 37 37 38 38
8 8 8 9 10 11 12 13 14 15 17 18 19 20 20 21 22 22 21 22 22 23 24 24 25 26 26 27 28 29 30 31 32 34 35 36 36 37 38 39 39 39
7 9 10 10 11 11 12 13 15 16 17 18 19 20 21 21 22 22 22 22 23 24 24 25 26 27 28 29 29 30 31 32 34 36 37 37 38 39 39 40 39 39
9 10 10 11 11 12 12 13 15 16 17 18 19 21 22 22 22 22 23 23 24 25 26 27 27 28 29 30 30 31 33 34 36 37 38 38 39 40 41 41 40 39
11 11 11 11 12 12 13 14 15 16 18 19 21 22 22 22 23 23 24 25 25 26 27 28 29 30 30 31 32 33 35 36 38 39 40 40 41 42 42 42 41 40
12 12 12 12 13 14 14 15 16 17 19 20 21 22 23 23 24 25 25 26 26 27 28 29 30 31 31 32 34 35 37 38 40 41 41 42 43 43 43 42 41 41
14 14 13 13 13 14 15 16 17 18 19 20 21 22 23 24 24 25 26 26 27 28 29 30 31 32 33 34 36 37 38 39 41 42 43 44 44 44 42 41 40 41
14 14 13 13 13 15 16 17 18 19 21 21 22 23 23 24 25 26 26 27 28 29 30 31 32 33 35 36 36 37 39 40 41 42 43 44 44 43 41 40 40 42
14 13 12 13 15 16 17 18 19 20 21 22 23 24 24 25 26 26 27 28 28 30 31 32 34 35 35 36 37 38 40 41 42 42 43 43 43 41 40 40 42 44
14 13 14 15 17 17 18 18 19 21 22 23 24 24 25 25 26 26 27 28 30 31 33 34 35 35 35 36 38 39 40 41 42 42 42 41 40 40 40 42 44 46
15 14 15 16 16 16 17 18 20 21 22 23 23 24 24 25 26 27 29 30 31 33 34 35 35 36 37 38 39 41 41 41 41 41 40 39 39 40 42 44 46 47
15 15 15 15 15 16 17 19 20 21 21 22 22 23 24 26 27 29 30 31 33 34 35 37 37 37 38 39 40 40 40 39 39 39 38 39 40 42 44 45 47 48
16 16 17 17 17 18 19 20 20 20 21 22 23 24 25 27 28 30 31 33 35 36 37 38 38 38 38 38 38 37 37 37 37 38 38 40 42 43 44 46 47 48
17 18 18 18 19 20 21 20 20 20 21 22 23 25 26 27 29 31 33 34 36 37 38 39 38 37 36 35 35 35 36 36 36 38 39 40 42 43 45 46 47 47
18 18 19 20 21 21 21 21 21 21 22 23 25 26 27 28 30 32 33 35 36 37 38 37 35 33 33 33 34 35 35 36 37 38 39 41 42 43 44 45 46 46
20 20 21 21 21 22 22 22 22 23 23 24 25 26 27 29 31 32 34 35 35 36 37 36 33 32 33 33 34 34 35 36 37 38 40 41 42 43 43 44 44 46
22 22 22 22 22 22 23 24 24 24 25 25 26 27 28 30 31 32 34 34 35 35 35 34 33 32 32 33 33 34 35 36 38 38 39 40 41 42 42 43 44 46
23 22 23 23 23 23 24 25 25 25 25 26 26 27 29 30 31 32 33 33 33 32 32 31 30 30 31 31 33 34 35 37 38 38 39 40 40 41 42 43 44 45
24 24 25 24 24 24 25 25 25 26 26 26 27 28 29 31 32 32 32 31 31 29 28 28 28 29 30 32 33 35 36 36 37 37 38 39 39 40 42 43 43 43
26 25 26 25 24 25 25 25 25 26 26 26 27 29 30 31 31 31 30 30 29 27 27 27 28 29 31 32 33 35 35 36 36 37 37 38 39 40 42 42 42 41
28 28 27 25 25 25 24 25 26 26 26 26 28 30 31 31 31 29 28 28 27 26 26 27 28 30 31 32 33 34 35 35 36 36 36 37 39 40 41 41 40 39
31 28 26 24 24 24 24 25 25 25 25 27 28 30 31 30 29 27 26 26 25 25 26 27 28 30 31 32 33 34 34 35 35 35 36 38 39 40 39 39 37 36
31 26 23 22 22 23 24 24 24 24 25 27 28 29 29 28 26 25 25 25 24 25 26 27 28 30 31 32 33 33 34 34 34 35 36 38 39 38 37 36 34 33

ECMWFNIL_500_spd_123.txt.gz
Wind_Speed
14 14 14 16 15 13 13 13 13 13 13 11 11 13 14 14 15 17 18 19 19 21 22 24 25 25 26 26 27 27 28 29 29 30 30 30 31 32 33 34 34 35
13 13 14 15 14 13 14 13 13 12 10 9 11 13 14 15 16 17 18 19 20 22 23 24 25 26 26 27 27 28 29 30 30 31 31 31 32 33 34 35 36 37
13 11 12 13 14 14 14 13 11 10 9 10 12 13 14 15 16 17 18 19 21 23 24 25 25 26 26 27 28 29 30 30 31 31 32 32 33 34 35 37 38 39
11 10 11 13 14 14 13 11 10 8 9 11 12 13 15 16 16 18 19 20 22 23 24 25 25 26 27 28 29 30 30 31 31 32 32 33 34 35 37 39 40 41
13 11 12 14 14 13 11 9 8 8 10 12 13 15 16 16 17 18 20 21 22 23 24 25 26 27 28 29 30 30 31 31 31 32 33 34 36 38 39 41 42 43
14 13 14 14 13 10 8 7 8 10 11 13 14 15 16 17 18 19 20 22 23 24 25 26 27 28 29 29 30 31 31 32 32 33 35 36 38 39 41 43 44 45
15 14 14 12 10 7 7 8 10 11 13 14 15 16 16 17 19 20 21 22 23 24 25 27 28 28 29 30 30 31 31 32 33 35 36 38 39 41 43 45 46 47
16 15 13 11 8 7 8 10 11 12 13 14 15 16 17 18 20 21 22 22 23 25 26 27 27 28 29 30 30 31 32 34 35 37 38 39 41 43 45 47 47 47
17 15 13 10 8 9 10 11 12 13 14 15 16 17 18 19 20 21 22 23 24 25 26 26 27 28 29 30 31 32 34 36 37 38 39 41 43 45 46 47 46 45
16 15 13 12 11 12 12 13 14 14 15 16 17 18 19 19 20 21 22 23 24 25 26 26 27 28 30 31 33 34 36 37 38 40 41 43 44 45 45 44 43 43
14 14 14 13 13 13 13 14 15 15 16 17 18 19 19 20 20 21 23 24 25 25 26 26 28 30 31 33 34 36 37 38 40 41 42 43 44 44 43 42 42 42
14 14 14 14 14 13 13 14 15 17 18 18 19 20 20 20 21 22 23 24 24 25 26 28 30 31 33 34 36 37 39 40 41 42 42 42 42 41 41 41 42 43
15 15 15 15 14 14 14 15 17 18 19 19 19 20 20 21 22 23 23 24 24 26 28 30 31 33 34 36 37 38 40 41 41 41 40 40 39 40 40 41 42 44
16 16 16 16 15 15 15 17 18 18 19 19 19 19 20 21 22 22 23 24 26 28 30 31 33 34 35 37 38 39 40 41 40 39 38 38 38 39 40 41 43 45
17 17 17 17 17 17 17 17 17 18 18 18 19 19 20 21 21 22 24 26 28 30 31 32 34 35 36 37 38 39 39 39 38 37 36 37 37 38 40 42 44 46
18 18 18 18 18 18 18 18 18 18 18 18 19 19 20 20 21 23 26 28 29 31 32 33 34 35 36 37 37 37 37 36 35 35 36 36 37 39 41 43 45 46
20 20 20 20 20 19 19 20 20 19 19 19 19 19 19 21 23 25 27 29 30 31 33 34 35 35 36 36 36 35 34 33 34 34 35 36 38 40 42 44 45 46
22 22 21 21 21 21 21 21 21 20 20 20 19 19 21 22 25 27 29 30 31 32 33 34 35 36 36 35 34 32 32 32 32 33 35 37 39 41 42 44 44 45
23 23 23 23 22 22 22 22 22 21 21 20 20 21 22 24 26 28 29 30 31 32 34 35 36 35 35 33 32 31 31 31 32 34 35 37 39 40 42 43 43 44
25 24 24 24 24 24 23 23 23 22 22 22 22 23 24 26 28 29 30 31 32 33 35 35 35 34 33 32 31 30 30 31 32 34 35 37 39 40 41 42 43 45
26 26 26 26 25 25 25 25 24 23 23 24 24 24 26 27 29 30 30 31 33 34 35 35 34 33 32 31 30 30 31 31 32 34 35 37 38 39 40 41 43 45
29 28 29 29 27 27 27 26 25 24 25 25 25 26 27 28 29 30 31 32 33 34 35 34 33 31 30 29 29 30 30 31 32 34 35 37 38 39 40 41 43 44
30 30 31 30 29 29 29 28 26 26 26 26 26 27 27 28 29 30 31 33 34 34 33 32 30 30 29 29 29 29 30 31 32 34 36 37 37 38 39 41 43 43
32 32 33 32 31 31 31 30 28 27 27 27 27 27 27 28 29 30 32 33 33 33 31 29 29 28 28 28 28 28 29 31 33 34 35 36 36 38 40 41 41 40
34 35 36 36 36 36 34 30 28 27 27 27 26 26 27 28 29 31 32 32 32 30 29 27 27 27 27 27 27 28 30 31 33 34 34 35 36 38 39 40 39 38
32 33 34 37 40 39 33 28 27 26 25 25 25 26 28 29 30 31 31 31 30 28 27 26 26 26 26 26 27 28 30 31 32 33 33 34 36 38 38 38 37 35

ECMWFNIL_500_spd_126.txt.gz
Wind_Speed
12 15 19 18 15 15 16 15 15 16 16 16 16 16 14 12 11 10 10 11 11 13 14 16 17 18 19 21 22 23 24 25 27 28 29 30 31 32 32 33 34 35
13 16 17 15 13 14 15 15 16 16 16 16 16 15 13 10 10 10 11 11 12 14 15 16 17 19 20 21 23 24 25 26 28 29 30 31 32 33 34 35 36 37
13 15 14 13 14 15 15 14 15 16 16 16 15 13 11 9 10 10 11 12 13 15 16 17 18 19 20 22 23 25 26 28 29 30 31 32 32 34 35 36 37 39
13 13 13 14 15 15 13 13 15 15 15 15 14 12 10 9 10 11 12 14 15 16 16 17 18 20 21 23 24 26 27 29 30 30 31 32 33 35 36 38 39 40
13 13 11 12 13 13 13 14 15 15 15 15 13 11 10 10 11 12 14 15 16 16 17 18 19 21 22 24 26 27 28 29 30 31 32 33 35 36 38 39 40 41
14 13 10 9 11 13 14 14 15 15 15 14 12 10 10 11 12 14 15 16 17 17 18 19 20 22 24 25 27 28 28 29 30 31 33 34 36 38 39 40 41 42
14 14 11 10 12 13 14 15 15 15 14 13 12 11 12 13 14 15 16 17 17 18 18 20 21 23 24 26 26 27 28 29 31 32 34 36 38 39 40 41 42 41
13 12 11 12 13 14 15 16 16 15 15 14 12 12 14 14 15 16 17 17 18 18 19 20 22 23 24 25 26 27 28 30 32 34 36 37 39 40 41 41 41 40
12 13 14 14 15 16 17 18 17 17 16 14 13 14 15 15 16 16 17 18 18 19 20 21 22 23 24 25 26 28 30 32 34 36 37 38 39 40 41 40 40 40
13 15 16 17 17 19 20 19 18 17 16 14 14 15 16 16 17 17 18 18 19 19 20 21 22 23 24 25 27 30 32 34 35 37 38 39 40 40 40 40 40 41
14 16 17 19 20 21 21 20 19 17 16 15 16 17 17 18 18 18 19 19 19 20 21 21 22 23 25 27 30 32 33 35 36 38 39 40 40 40 39 39 40 40
14 16 17 20 21 22 21 20 19 17 17 17 17 18 18 18 19 19 19 19 19 20 20 21 22 24 26 29 31 33 34 36 37 38 39 39 39 39 39 39 39 40
15 15 17 18 20 21 21 21 20 19 18 18 19 19 19 18 18 19 19 19 19 19 19 21 23 26 29 31 32 34 35 36 37 38 39 39 38 38 37 38 39 40
16 16 16 18 19 20 21 22 21 20 19 20 20 19 18 18 18 19 18 18 17 18 20 22 25 28 30 32 33 34 35 36 37 38 38 37 36 36 37 38 39 40
17 17 17 18 19 21 22 23 22 22 21 21 21 19 18 18 18 18 17 17 17 19 21 24 27 29 31 32 33 35 35 36 37 37 36 35 35 36 37 38 39 39
18 18 18 19 20 21 22 23 23 23 23 22 21 20 19 18 18 18 17 17 18 20 23 26 28 30 31 32 34 35 35 36 36 35 34 34 35 36 37 38 38 39
20 20 20 20 21 21 22 23 24 25 24 24 22 21 20 19 18 17 17 17 19 22 24 27 29 31 32 33 34 34 35 35 35 34 34 34 35 36 36 37 38 39
22 22 22 22 22 23 23 24 25 26 26 25 24 22 21 20 19 18 17 19 21 23 26 28 30 31 32 33 34 34 34 34 33 33 34 34 35 35 36 37 38 39
23 24 24 24 24 25 25 26 26 27 27 26 25 24 22 21 19 18 19 20 22 25 27 29 31 32 33 33 34 34 34 33 33 33 33 34 34 35 35 36 37 39
24 25 25 26 27 27 26 26 27 27 26 26 26 24 23 21 20 20 20 22 24 26 28 30 31 32 33 33 33 33 33 32 32 32 33 33 34 34 35 36 37 39
25 26 27 27 29 28 27 28 29 29 28 27 27 25 24 23 22 21 22 24 25 27 29 31 32 32 33 33 33 32 31 31 31 31 32 33 33 34 34 35 37 39
26 27 27 28 30 30 29 30 30 29 29 29 27 26 25 25 24 23 24 25 26 28 29 31 32 32 32 32 32 31 30 30 30 31 31 32 32 33 34 35 37 39
27 27 28 29 30 31 31 31 32 32 32 31 29 27 27 27 26 25 25 26 27 28 30 31 32 32 32 31 30 30 29 29 29 30 31 31 31 32 33 35 37 39
28 29 30 30 31 32 32 33 34 34 34 34 32 30 28 27 27 26 26 26 27 28 30 31 31 31 30 30 29 29 28 28 29 30 30 30 31 32 33 34 37 38
29 30 31 32 33 33 33 34 35 36 37 36 34 31 28 28 27 27 26 25 26 28 29 30 30 30 29 29 28 27 27 28 29 29 29 29 30 31 32 34 36 37
30 30 29 31 32 32 31 31 33 37 42 43 37 30 28 27 26 25 25 25 26 28 29 29 29 29 29 28 27 26 27 27 28 28 28 29 30 30 32 34 35 36